<?xml version='1.0' encoding='UTF-8'?>
<gpx version="1.1" creator="https://www.komoot.de" xmlns="http://www.topografix.com/GPX/1/1" xmlns:xsi="http://www.w3.org/2001/XMLSchema-instance" xsi:schemaLocation="http://www.topografix.com/GPX/1/1 http://www.topografix.com/GPX/1/1/gpx.xsd">
  <metadata>
    <name>56_730SeltisbergAsp</name>
    <author>
      <link href="https://www.komoot.de">
        <text>komoot</text>
        <type>text/html</type>
      </link>
    </author>
  </metadata>
  <trk>
    <name>56_730SeltisbergAsp</name>
    <trkseg>
      <trkpt lat="47.541400" lon="7.870799">
        <ele>339.179217</ele>
        <time>2021-11-14T16:43:54.842Z</time>
      </trkpt>
      <trkpt lat="47.541410" lon="7.870791">
        <ele>339.179217</ele>
        <time>2021-11-14T16:43:54.980Z</time>
      </trkpt>
      <trkpt lat="47.541576" lon="7.870664">
        <ele>339.179217</ele>
        <time>2021-11-14T16:43:57.419Z</time>
      </trkpt>
      <trkpt lat="47.541550" lon="7.870601">
        <ele>339.179217</ele>
        <time>2021-11-14T16:43:58.230Z</time>
      </trkpt>
      <trkpt lat="47.541521" lon="7.870517">
        <ele>339.179217</ele>
        <time>2021-11-14T16:43:59.287Z</time>
      </trkpt>
      <trkpt lat="47.541606" lon="7.870424">
        <ele>339.179217</ele>
        <time>2021-11-14T16:44:00.914Z</time>
      </trkpt>
      <trkpt lat="47.541910" lon="7.870106">
        <ele>339.179217</ele>
        <time>2021-11-14T16:44:06.577Z</time>
      </trkpt>
      <trkpt lat="47.542014" lon="7.870126">
        <ele>339.179217</ele>
        <time>2021-11-14T16:44:08.048Z</time>
      </trkpt>
      <trkpt lat="47.542118" lon="7.870135">
        <ele>339.078733</ele>
        <time>2021-11-14T16:44:09.790Z</time>
      </trkpt>
      <trkpt lat="47.542181" lon="7.870131">
        <ele>339.014913</ele>
        <time>2021-11-14T16:44:10.678Z</time>
      </trkpt>
      <trkpt lat="47.542317" lon="7.870012">
        <ele>338.855053</ele>
        <time>2021-11-14T16:44:12.771Z</time>
      </trkpt>
      <trkpt lat="47.542348" lon="7.869983">
        <ele>338.817946</ele>
        <time>2021-11-14T16:44:13.210Z</time>
      </trkpt>
      <trkpt lat="47.542329" lon="7.869820">
        <ele>338.704937</ele>
        <time>2021-11-14T16:44:14.995Z</time>
      </trkpt>
      <trkpt lat="47.542372" lon="7.869746">
        <ele>338.638229</ele>
        <time>2021-11-14T16:44:15.820Z</time>
      </trkpt>
      <trkpt lat="47.542657" lon="7.869354">
        <ele>338.244626</ele>
        <time>2021-11-14T16:44:20.600Z</time>
      </trkpt>
      <trkpt lat="47.542696" lon="7.869257">
        <ele>338.167492</ele>
        <time>2021-11-14T16:44:21.536Z</time>
      </trkpt>
      <trkpt lat="47.542722" lon="7.869201">
        <ele>338.121058</ele>
        <time>2021-11-14T16:44:22.127Z</time>
      </trkpt>
      <trkpt lat="47.543049" lon="7.868759">
        <ele>337.673046</ele>
        <time>2021-11-14T16:44:27.040Z</time>
      </trkpt>
      <trkpt lat="47.543105" lon="7.868711">
        <ele>337.607566</ele>
        <time>2021-11-14T16:44:27.778Z</time>
      </trkpt>
      <trkpt lat="47.543201" lon="7.868657">
        <ele>337.503638</ele>
        <time>2021-11-14T16:44:28.857Z</time>
      </trkpt>
      <trkpt lat="47.543657" lon="7.868359">
        <ele>336.904444</ele>
        <time>2021-11-14T16:44:34.655Z</time>
      </trkpt>
      <trkpt lat="47.543801" lon="7.868269">
        <ele>336.704579</ele>
        <time>2021-11-14T16:44:37.136Z</time>
      </trkpt>
      <trkpt lat="47.544214" lon="7.867988">
        <ele>336.123396</ele>
        <time>2021-11-14T16:44:44.751Z</time>
      </trkpt>
      <trkpt lat="47.544246" lon="7.867967">
        <ele>336.078639</ele>
        <time>2021-11-14T16:44:45.346Z</time>
      </trkpt>
      <trkpt lat="47.544410" lon="7.867825">
        <ele>335.835721</ele>
        <time>2021-11-14T16:44:48.602Z</time>
      </trkpt>
      <trkpt lat="47.544469" lon="7.867776">
        <ele>335.749225</ele>
        <time>2021-11-14T16:44:49.623Z</time>
      </trkpt>
      <trkpt lat="47.544568" lon="7.867693">
        <ele>335.603756</ele>
        <time>2021-11-14T16:44:51.548Z</time>
      </trkpt>
      <trkpt lat="47.544738" lon="7.867531">
        <ele>335.345268</ele>
        <time>2021-11-14T16:44:54.920Z</time>
      </trkpt>
      <trkpt lat="47.545003" lon="7.867278">
        <ele>335.147303</ele>
        <time>2021-11-14T16:45:00.407Z</time>
      </trkpt>
      <trkpt lat="47.545160" lon="7.866985">
        <ele>335.392499</ele>
        <time>2021-11-14T16:45:05.056Z</time>
      </trkpt>
      <trkpt lat="47.545240" lon="7.866887">
        <ele>335.493297</ele>
        <time>2021-11-14T16:45:07.332Z</time>
      </trkpt>
      <trkpt lat="47.546096" lon="7.866147">
        <ele>336.455641</ele>
        <time>2021-11-14T16:45:32.396Z</time>
      </trkpt>
      <trkpt lat="47.546327" lon="7.865959">
        <ele>336.711561</ele>
        <time>2021-11-14T16:45:40.129Z</time>
      </trkpt>
      <trkpt lat="47.546510" lon="7.865766">
        <ele>337.057731</ele>
        <time>2021-11-14T16:45:47.230Z</time>
      </trkpt>
      <trkpt lat="47.546819" lon="7.865489">
        <ele>337.769276</ele>
        <time>2021-11-14T16:45:57.461Z</time>
      </trkpt>
      <trkpt lat="47.546889" lon="7.865225">
        <ele>338.146465</ele>
        <time>2021-11-14T16:46:02.653Z</time>
      </trkpt>
      <trkpt lat="47.546894" lon="7.864837">
        <ele>338.662530</ele>
        <time>2021-11-14T16:46:10.072Z</time>
      </trkpt>
      <trkpt lat="47.546885" lon="7.864500">
        <ele>339.111031</ele>
        <time>2021-11-14T16:46:16.861Z</time>
      </trkpt>
      <trkpt lat="47.546877" lon="7.864345">
        <ele>339.317755</ele>
        <time>2021-11-14T16:46:19.755Z</time>
      </trkpt>
      <trkpt lat="47.546592" lon="7.863006">
        <ele>340.640349</ele>
        <time>2021-11-14T16:46:45.764Z</time>
      </trkpt>
      <trkpt lat="47.546526" lon="7.861665">
        <ele>341.263864</ele>
        <time>2021-11-14T16:47:06.496Z</time>
      </trkpt>
      <trkpt lat="47.546487" lon="7.859119">
        <ele>341.182994</ele>
        <time>2021-11-14T16:47:39.116Z</time>
      </trkpt>
      <trkpt lat="47.546537" lon="7.857497">
        <ele>340.867425</ele>
        <time>2021-11-14T16:48:00.128Z</time>
      </trkpt>
      <trkpt lat="47.546582" lon="7.856413">
        <ele>340.680199</ele>
        <time>2021-11-14T16:48:14.482Z</time>
      </trkpt>
      <trkpt lat="47.546945" lon="7.851719">
        <ele>339.198126</ele>
        <time>2021-11-14T16:49:15.516Z</time>
      </trkpt>
      <trkpt lat="47.547141" lon="7.850355">
        <ele>338.267602</ele>
        <time>2021-11-14T16:49:31.081Z</time>
      </trkpt>
      <trkpt lat="47.547143" lon="7.849985">
        <ele>337.774127</ele>
        <time>2021-11-14T16:49:34.990Z</time>
      </trkpt>
      <trkpt lat="47.547124" lon="7.848795">
        <ele>336.186609</ele>
        <time>2021-11-14T16:49:47.588Z</time>
      </trkpt>
      <trkpt lat="47.547274" lon="7.845536">
        <ele>332.174023</ele>
        <time>2021-11-14T16:50:22.347Z</time>
      </trkpt>
      <trkpt lat="47.547295" lon="7.844722">
        <ele>331.524411</ele>
        <time>2021-11-14T16:50:31.829Z</time>
      </trkpt>
      <trkpt lat="47.547313" lon="7.843735">
        <ele>331.266132</ele>
        <time>2021-11-14T16:50:44.251Z</time>
      </trkpt>
      <trkpt lat="47.547354" lon="7.842839">
        <ele>331.031214</ele>
        <time>2021-11-14T16:50:56.427Z</time>
      </trkpt>
      <trkpt lat="47.547448" lon="7.842262">
        <ele>330.849242</ele>
        <time>2021-11-14T16:51:04.752Z</time>
      </trkpt>
      <trkpt lat="47.547423" lon="7.842089">
        <ele>330.771817</ele>
        <time>2021-11-14T16:51:07.240Z</time>
      </trkpt>
      <trkpt lat="47.547362" lon="7.841665">
        <ele>330.582097</ele>
        <time>2021-11-14T16:51:13.015Z</time>
      </trkpt>
      <trkpt lat="47.547339" lon="7.841072">
        <ele>330.322158</ele>
        <time>2021-11-14T16:51:20.561Z</time>
      </trkpt>
      <trkpt lat="47.547332" lon="7.840572">
        <ele>330.103300</ele>
        <time>2021-11-14T16:51:26.647Z</time>
      </trkpt>
      <trkpt lat="47.547300" lon="7.838688">
        <ele>328.505584</ele>
        <time>2021-11-14T16:51:47.864Z</time>
      </trkpt>
      <trkpt lat="47.547276" lon="7.837287">
        <ele>326.885592</ele>
        <time>2021-11-14T16:52:02.740Z</time>
      </trkpt>
      <trkpt lat="47.547240" lon="7.836221">
        <ele>325.574873</ele>
        <time>2021-11-14T16:52:14.160Z</time>
      </trkpt>
      <trkpt lat="47.547190" lon="7.835066">
        <ele>324.135835</ele>
        <time>2021-11-14T16:52:26.665Z</time>
      </trkpt>
      <trkpt lat="47.547020" lon="7.831965">
        <ele>320.371702</ele>
        <time>2021-11-14T16:53:00.465Z</time>
      </trkpt>
      <trkpt lat="47.546946" lon="7.830852">
        <ele>318.905675</ele>
        <time>2021-11-14T16:53:12.497Z</time>
      </trkpt>
      <trkpt lat="47.546823" lon="7.829336">
        <ele>316.871926</ele>
        <time>2021-11-14T16:53:28.689Z</time>
      </trkpt>
      <trkpt lat="47.546721" lon="7.828140">
        <ele>315.113462</ele>
        <time>2021-11-14T16:53:41.401Z</time>
      </trkpt>
      <trkpt lat="47.546592" lon="7.826850">
        <ele>313.178307</ele>
        <time>2021-11-14T16:53:54.866Z</time>
      </trkpt>
      <trkpt lat="47.546574" lon="7.826239">
        <ele>312.396499</ele>
        <time>2021-11-14T16:54:01.312Z</time>
      </trkpt>
      <trkpt lat="47.546589" lon="7.825597">
        <ele>311.758331</ele>
        <time>2021-11-14T16:54:08.134Z</time>
      </trkpt>
      <trkpt lat="47.546693" lon="7.825618">
        <ele>311.603851</ele>
        <time>2021-11-14T16:54:09.801Z</time>
      </trkpt>
      <trkpt lat="47.547233" lon="7.825872">
        <ele>310.769996</ele>
        <time>2021-11-14T16:54:18.924Z</time>
      </trkpt>
      <trkpt lat="47.547666" lon="7.826091">
        <ele>310.096604</ele>
        <time>2021-11-14T16:54:26.623Z</time>
      </trkpt>
      <trkpt lat="47.548237" lon="7.826410">
        <ele>310.462934</ele>
        <time>2021-11-14T16:54:39.997Z</time>
      </trkpt>
      <trkpt lat="47.548679" lon="7.826710">
        <ele>310.870652</ele>
        <time>2021-11-14T16:54:51.295Z</time>
      </trkpt>
      <trkpt lat="47.549105" lon="7.827067">
        <ele>311.281097</ele>
        <time>2021-11-14T16:55:03.562Z</time>
      </trkpt>
      <trkpt lat="47.549143" lon="7.827110">
        <ele>311.321197</ele>
        <time>2021-11-14T16:55:05.572Z</time>
      </trkpt>
      <trkpt lat="47.550183" lon="7.828277">
        <ele>312.933563</ele>
        <time>2021-11-14T16:55:41.760Z</time>
      </trkpt>
      <trkpt lat="47.550522" lon="7.828744">
        <ele>313.544580</ele>
        <time>2021-11-14T16:55:53.644Z</time>
      </trkpt>
      <trkpt lat="47.550675" lon="7.828955">
        <ele>313.820488</ele>
        <time>2021-11-14T16:55:57.905Z</time>
      </trkpt>
      <trkpt lat="47.551640" lon="7.830558">
        <ele>312.882643</ele>
        <time>2021-11-14T16:56:24.681Z</time>
      </trkpt>
      <trkpt lat="47.552065" lon="7.831350">
        <ele>312.021097</ele>
        <time>2021-11-14T16:56:35.704Z</time>
      </trkpt>
      <trkpt lat="47.552251" lon="7.831814">
        <ele>311.283023</ele>
        <time>2021-11-14T16:56:41.444Z</time>
      </trkpt>
      <trkpt lat="47.552368" lon="7.832305">
        <ele>310.570892</ele>
        <time>2021-11-14T16:56:46.913Z</time>
      </trkpt>
      <trkpt lat="47.552458" lon="7.832824">
        <ele>309.838038</ele>
        <time>2021-11-14T16:56:52.514Z</time>
      </trkpt>
      <trkpt lat="47.552508" lon="7.832936">
        <ele>309.654386</ele>
        <time>2021-11-14T16:56:53.974Z</time>
      </trkpt>
      <trkpt lat="47.552556" lon="7.832977">
        <ele>309.542116</ele>
        <time>2021-11-14T16:56:54.939Z</time>
      </trkpt>
      <trkpt lat="47.552616" lon="7.832891">
        <ele>309.372954</ele>
        <time>2021-11-14T16:56:55.745Z</time>
      </trkpt>
      <trkpt lat="47.552690" lon="7.832598">
        <ele>308.943862</ele>
        <time>2021-11-14T16:56:58.068Z</time>
      </trkpt>
      <trkpt lat="47.552645" lon="7.830686">
        <ele>305.842929</ele>
        <time>2021-11-14T16:57:11.761Z</time>
      </trkpt>
      <trkpt lat="47.552554" lon="7.829266">
        <ele>303.861632</ele>
        <time>2021-11-14T16:57:22.047Z</time>
      </trkpt>
      <trkpt lat="47.552416" lon="7.828822">
        <ele>303.307216</ele>
        <time>2021-11-14T16:57:25.705Z</time>
      </trkpt>
      <trkpt lat="47.552404" lon="7.828582">
        <ele>303.034263</ele>
        <time>2021-11-14T16:57:27.614Z</time>
      </trkpt>
      <trkpt lat="47.552421" lon="7.828481">
        <ele>302.916201</ele>
        <time>2021-11-14T16:57:28.368Z</time>
      </trkpt>
      <trkpt lat="47.552477" lon="7.828294">
        <ele>302.684166</ele>
        <time>2021-11-14T16:57:29.942Z</time>
      </trkpt>
      <trkpt lat="47.552515" lon="7.828094">
        <ele>302.448509</ele>
        <time>2021-11-14T16:57:31.654Z</time>
      </trkpt>
      <trkpt lat="47.552491" lon="7.827227">
        <ele>301.547571</ele>
        <time>2021-11-14T16:57:38.557Z</time>
      </trkpt>
      <trkpt lat="47.552510" lon="7.826557">
        <ele>301.222699</ele>
        <time>2021-11-14T16:57:44.244Z</time>
      </trkpt>
      <trkpt lat="47.552567" lon="7.824508">
        <ele>300.227862</ele>
        <time>2021-11-14T16:58:02.425Z</time>
      </trkpt>
      <trkpt lat="47.552896" lon="7.820699">
        <ele>298.356017</ele>
        <time>2021-11-14T16:58:35.205Z</time>
      </trkpt>
      <trkpt lat="47.552948" lon="7.819358">
        <ele>297.723393</ele>
        <time>2021-11-14T16:58:46.745Z</time>
      </trkpt>
      <trkpt lat="47.552844" lon="7.816432">
        <ele>297.367409</ele>
        <time>2021-11-14T16:59:14.378Z</time>
      </trkpt>
      <trkpt lat="47.552711" lon="7.812955">
        <ele>298.598043</ele>
        <time>2021-11-14T16:59:55.033Z</time>
      </trkpt>
      <trkpt lat="47.552566" lon="7.810386">
        <ele>299.732238</ele>
        <time>2021-11-14T17:00:25.065Z</time>
      </trkpt>
      <trkpt lat="47.552398" lon="7.808880">
        <ele>300.428783</ele>
        <time>2021-11-14T17:00:43.546Z</time>
      </trkpt>
      <trkpt lat="47.552068" lon="7.806445">
        <ele>300.958219</ele>
        <time>2021-11-14T17:01:11.898Z</time>
      </trkpt>
      <trkpt lat="47.552015" lon="7.806307">
        <ele>300.990357</ele>
        <time>2021-11-14T17:01:13.624Z</time>
      </trkpt>
      <trkpt lat="47.551895" lon="7.806278">
        <ele>300.990047</ele>
        <time>2021-11-14T17:01:14.931Z</time>
      </trkpt>
      <trkpt lat="47.551651" lon="7.806246">
        <ele>300.808134</ele>
        <time>2021-11-14T17:01:18.704Z</time>
      </trkpt>
      <trkpt lat="47.551671" lon="7.806117">
        <ele>300.741792</ele>
        <time>2021-11-14T17:01:20.016Z</time>
      </trkpt>
      <trkpt lat="47.551677" lon="7.805758">
        <ele>300.561796</ele>
        <time>2021-11-14T17:01:24.823Z</time>
      </trkpt>
      <trkpt lat="47.551681" lon="7.805477">
        <ele>300.420920</ele>
        <time>2021-11-14T17:01:27.899Z</time>
      </trkpt>
      <trkpt lat="47.551709" lon="7.805000">
        <ele>300.180932</ele>
        <time>2021-11-14T17:01:33.544Z</time>
      </trkpt>
      <trkpt lat="47.551731" lon="7.804667">
        <ele>300.013225</ele>
        <time>2021-11-14T17:01:38.190Z</time>
      </trkpt>
      <trkpt lat="47.551744" lon="7.804473">
        <ele>299.915509</ele>
        <time>2021-11-14T17:01:40.192Z</time>
      </trkpt>
      <trkpt lat="47.551741" lon="7.804294">
        <ele>299.825762</ele>
        <time>2021-11-14T17:01:42.578Z</time>
      </trkpt>
      <trkpt lat="47.551692" lon="7.803510">
        <ele>299.627969</ele>
        <time>2021-11-14T17:01:51.725Z</time>
      </trkpt>
      <trkpt lat="47.551751" lon="7.803369">
        <ele>299.610455</ele>
        <time>2021-11-14T17:01:53.724Z</time>
      </trkpt>
      <trkpt lat="47.551744" lon="7.803277">
        <ele>299.600681</ele>
        <time>2021-11-14T17:01:54.542Z</time>
      </trkpt>
      <trkpt lat="47.551732" lon="7.803125">
        <ele>299.584524</ele>
        <time>2021-11-14T17:01:55.930Z</time>
      </trkpt>
      <trkpt lat="47.551666" lon="7.803144">
        <ele>299.574007</ele>
        <time>2021-11-14T17:02:00.597Z</time>
      </trkpt>
      <trkpt lat="47.551598" lon="7.803160">
        <ele>299.563237</ele>
        <time>2021-11-14T17:02:05.342Z</time>
      </trkpt>
      <trkpt lat="47.551163" lon="7.803129">
        <ele>299.495116</ele>
        <time>2021-11-14T17:02:14.367Z</time>
      </trkpt>
      <trkpt lat="47.550981" lon="7.803132">
        <ele>299.466645</ele>
        <time>2021-11-14T17:02:18.380Z</time>
      </trkpt>
      <trkpt lat="47.550196" lon="7.803120">
        <ele>299.515111</ele>
        <time>2021-11-14T17:02:35.706Z</time>
      </trkpt>
      <trkpt lat="47.550134" lon="7.803051">
        <ele>299.540545</ele>
        <time>2021-11-14T17:02:37.388Z</time>
      </trkpt>
      <trkpt lat="47.550146" lon="7.802262">
        <ele>299.715262</ele>
        <time>2021-11-14T17:02:48.770Z</time>
      </trkpt>
      <trkpt lat="47.549879" lon="7.802247">
        <ele>299.802902</ele>
        <time>2021-11-14T17:02:54.533Z</time>
      </trkpt>
      <trkpt lat="47.549481" lon="7.802234">
        <ele>299.933479</ele>
        <time>2021-11-14T17:03:03.262Z</time>
      </trkpt>
      <trkpt lat="47.549410" lon="7.802226">
        <ele>299.956834</ele>
        <time>2021-11-14T17:03:04.874Z</time>
      </trkpt>
      <trkpt lat="47.548877" lon="7.802168">
        <ele>300.045655</ele>
        <time>2021-11-14T17:03:16.077Z</time>
      </trkpt>
      <trkpt lat="47.548626" lon="7.802129">
        <ele>300.078383</ele>
        <time>2021-11-14T17:03:21.295Z</time>
      </trkpt>
      <trkpt lat="47.548615" lon="7.801873">
        <ele>300.100836</ele>
        <time>2021-11-14T17:03:24.799Z</time>
      </trkpt>
      <trkpt lat="47.548607" lon="7.801690">
        <ele>300.116887</ele>
        <time>2021-11-14T17:03:27.369Z</time>
      </trkpt>
      <trkpt lat="47.548596" lon="7.801213">
        <ele>300.158663</ele>
        <time>2021-11-14T17:03:33.895Z</time>
      </trkpt>
      <trkpt lat="47.548576" lon="7.800968">
        <ele>300.180264</ele>
        <time>2021-11-14T17:03:37.256Z</time>
      </trkpt>
      <trkpt lat="47.548569" lon="7.800838">
        <ele>300.191679</ele>
        <time>2021-11-14T17:03:39.012Z</time>
      </trkpt>
      <trkpt lat="47.548560" lon="7.800672">
        <ele>300.206256</ele>
        <time>2021-11-14T17:03:41.340Z</time>
      </trkpt>
      <trkpt lat="47.548545" lon="7.800404">
        <ele>300.238480</ele>
        <time>2021-11-14T17:03:44.982Z</time>
      </trkpt>
      <trkpt lat="47.548519" lon="7.799896">
        <ele>300.335162</ele>
        <time>2021-11-14T17:03:52.099Z</time>
      </trkpt>
      <trkpt lat="47.548514" lon="7.799795">
        <ele>300.354381</ele>
        <time>2021-11-14T17:03:53.496Z</time>
      </trkpt>
      <trkpt lat="47.548535" lon="7.799720">
        <ele>300.369790</ele>
        <time>2021-11-14T17:03:54.646Z</time>
      </trkpt>
      <trkpt lat="47.548459" lon="7.799691">
        <ele>300.391855</ele>
        <time>2021-11-14T17:03:56.305Z</time>
      </trkpt>
      <trkpt lat="47.547912" lon="7.799646">
        <ele>300.545887</ele>
        <time>2021-11-14T17:04:07.551Z</time>
      </trkpt>
      <trkpt lat="47.547540" lon="7.799538">
        <ele>300.652467</ele>
        <time>2021-11-14T17:04:15.511Z</time>
      </trkpt>
      <trkpt lat="47.546418" lon="7.798980">
        <ele>301.120311</ele>
        <time>2021-11-14T17:04:43.958Z</time>
      </trkpt>
      <trkpt lat="47.545807" lon="7.798846">
        <ele>301.385192</ele>
        <time>2021-11-14T17:04:56.898Z</time>
      </trkpt>
      <trkpt lat="47.545731" lon="7.798810">
        <ele>301.419410</ele>
        <time>2021-11-14T17:04:58.940Z</time>
      </trkpt>
      <trkpt lat="47.545581" lon="7.798713">
        <ele>301.489598</ele>
        <time>2021-11-14T17:05:01.745Z</time>
      </trkpt>
      <trkpt lat="47.545511" lon="7.798680">
        <ele>301.497073</ele>
        <time>2021-11-14T17:05:03.241Z</time>
      </trkpt>
      <trkpt lat="47.545558" lon="7.798144">
        <ele>301.480246</ele>
        <time>2021-11-14T17:05:10.029Z</time>
      </trkpt>
      <trkpt lat="47.545593" lon="7.797775">
        <ele>301.468645</ele>
        <time>2021-11-14T17:05:14.737Z</time>
      </trkpt>
      <trkpt lat="47.545637" lon="7.797310">
        <ele>301.454027</ele>
        <time>2021-11-14T17:05:21.813Z</time>
      </trkpt>
      <trkpt lat="47.545645" lon="7.797258">
        <ele>301.452367</ele>
        <time>2021-11-14T17:05:22.308Z</time>
      </trkpt>
      <trkpt lat="47.545670" lon="7.797142">
        <ele>301.448576</ele>
        <time>2021-11-14T17:05:23.880Z</time>
      </trkpt>
      <trkpt lat="47.545689" lon="7.797076">
        <ele>301.446342</ele>
        <time>2021-11-14T17:05:24.785Z</time>
      </trkpt>
      <trkpt lat="47.545728" lon="7.796950">
        <ele>301.442027</ele>
        <time>2021-11-14T17:05:27.492Z</time>
      </trkpt>
      <trkpt lat="47.545788" lon="7.796748">
        <ele>301.435156</ele>
        <time>2021-11-14T17:05:30.263Z</time>
      </trkpt>
      <trkpt lat="47.545889" lon="7.796500">
        <ele>301.426139</ele>
        <time>2021-11-14T17:05:34.552Z</time>
      </trkpt>
      <trkpt lat="47.546038" lon="7.796107">
        <ele>301.455791</ele>
        <time>2021-11-14T17:05:40.105Z</time>
      </trkpt>
      <trkpt lat="47.546105" lon="7.795928">
        <ele>301.513503</ele>
        <time>2021-11-14T17:05:43.622Z</time>
      </trkpt>
      <trkpt lat="47.546154" lon="7.795747">
        <ele>301.568490</ele>
        <time>2021-11-14T17:05:45.939Z</time>
      </trkpt>
      <trkpt lat="47.546170" lon="7.795612">
        <ele>301.607137</ele>
        <time>2021-11-14T17:05:47.856Z</time>
      </trkpt>
      <trkpt lat="47.546165" lon="7.795511">
        <ele>301.635691</ele>
        <time>2021-11-14T17:05:49.883Z</time>
      </trkpt>
      <trkpt lat="47.546019" lon="7.795020">
        <ele>301.786972</ele>
        <time>2021-11-14T17:05:57.647Z</time>
      </trkpt>
      <trkpt lat="47.545947" lon="7.794710">
        <ele>301.879410</ele>
        <time>2021-11-14T17:06:02.683Z</time>
      </trkpt>
      <trkpt lat="47.545921" lon="7.794468">
        <ele>301.948504</ele>
        <time>2021-11-14T17:06:06.805Z</time>
      </trkpt>
      <trkpt lat="47.545948" lon="7.794016">
        <ele>302.076449</ele>
        <time>2021-11-14T17:06:13.833Z</time>
      </trkpt>
      <trkpt lat="47.545969" lon="7.793663">
        <ele>302.155485</ele>
        <time>2021-11-14T17:06:19.269Z</time>
      </trkpt>
      <trkpt lat="47.546027" lon="7.793254">
        <ele>301.986624</ele>
        <time>2021-11-14T17:06:25.610Z</time>
      </trkpt>
      <trkpt lat="47.546253" lon="7.791998">
        <ele>301.461427</ele>
        <time>2021-11-14T17:06:41.640Z</time>
      </trkpt>
      <trkpt lat="47.546426" lon="7.790731">
        <ele>300.875839</ele>
        <time>2021-11-14T17:06:56.149Z</time>
      </trkpt>
      <trkpt lat="47.546673" lon="7.788921">
        <ele>299.819029</ele>
        <time>2021-11-14T17:07:17.989Z</time>
      </trkpt>
      <trkpt lat="47.546695" lon="7.788763">
        <ele>299.726703</ele>
        <time>2021-11-14T17:07:19.913Z</time>
      </trkpt>
      <trkpt lat="47.546897" lon="7.787133">
        <ele>300.208641</ele>
        <time>2021-11-14T17:07:41.641Z</time>
      </trkpt>
      <trkpt lat="47.546959" lon="7.786598">
        <ele>300.461965</ele>
        <time>2021-11-14T17:07:49.309Z</time>
      </trkpt>
      <trkpt lat="47.546952" lon="7.786540">
        <ele>300.489461</ele>
        <time>2021-11-14T17:07:50.268Z</time>
      </trkpt>
      <trkpt lat="47.546913" lon="7.786470">
        <ele>300.531819</ele>
        <time>2021-11-14T17:07:52.051Z</time>
      </trkpt>
      <trkpt lat="47.546526" lon="7.786353">
        <ele>300.804899</ele>
        <time>2021-11-14T17:08:03.448Z</time>
      </trkpt>
      <trkpt lat="47.546464" lon="7.786335">
        <ele>301.122347</ele>
        <time>2021-11-14T17:08:05.253Z</time>
      </trkpt>
      <trkpt lat="47.546417" lon="7.786331">
        <ele>301.384151</ele>
        <time>2021-11-14T17:08:06.491Z</time>
      </trkpt>
      <trkpt lat="47.546102" lon="7.786217">
        <ele>303.187420</ele>
        <time>2021-11-14T17:08:18.044Z</time>
      </trkpt>
      <trkpt lat="47.545856" lon="7.785973">
        <ele>304.833761</ele>
        <time>2021-11-14T17:08:30.199Z</time>
      </trkpt>
      <trkpt lat="47.545672" lon="7.785654">
        <ele>306.408859</ele>
        <time>2021-11-14T17:08:41.525Z</time>
      </trkpt>
      <trkpt lat="47.545624" lon="7.785548">
        <ele>306.888003</ele>
        <time>2021-11-14T17:08:48.190Z</time>
      </trkpt>
      <trkpt lat="47.545250" lon="7.784778">
        <ele>310.448957</ele>
        <time>2021-11-14T17:09:19.717Z</time>
      </trkpt>
      <trkpt lat="47.545240" lon="7.784746">
        <ele>310.581328</ele>
        <time>2021-11-14T17:09:22.396Z</time>
      </trkpt>
      <trkpt lat="47.545054" lon="7.784227">
        <ele>311.593447</ele>
        <time>2021-11-14T17:09:40.545Z</time>
      </trkpt>
      <trkpt lat="47.544950" lon="7.784008">
        <ele>311.991063</ele>
        <time>2021-11-14T17:09:46.876Z</time>
      </trkpt>
      <trkpt lat="47.544627" lon="7.783499">
        <ele>313.028453</ele>
        <time>2021-11-14T17:10:02.739Z</time>
      </trkpt>
      <trkpt lat="47.544555" lon="7.783372">
        <ele>313.274732</ele>
        <time>2021-11-14T17:10:04.816Z</time>
      </trkpt>
      <trkpt lat="47.544490" lon="7.783060">
        <ele>313.759600</ele>
        <time>2021-11-14T17:10:09.562Z</time>
      </trkpt>
      <trkpt lat="47.544474" lon="7.782623">
        <ele>314.409477</ele>
        <time>2021-11-14T17:10:14.570Z</time>
      </trkpt>
      <trkpt lat="47.544469" lon="7.782455">
        <ele>314.659191</ele>
        <time>2021-11-14T17:10:15.869Z</time>
      </trkpt>
      <trkpt lat="47.544461" lon="7.782254">
        <ele>314.276976</ele>
        <time>2021-11-14T17:10:17.133Z</time>
      </trkpt>
      <trkpt lat="47.544100" lon="7.779438">
        <ele>303.616847</ele>
        <time>2021-11-14T17:10:34.623Z</time>
      </trkpt>
      <trkpt lat="47.543933" lon="7.778374">
        <ele>300.756136</ele>
        <time>2021-11-14T17:10:41.693Z</time>
      </trkpt>
      <trkpt lat="47.543707" lon="7.777394">
        <ele>298.044087</ele>
        <time>2021-11-14T17:10:48.914Z</time>
      </trkpt>
      <trkpt lat="47.543527" lon="7.776532">
        <ele>297.189158</ele>
        <time>2021-11-14T17:10:56.058Z</time>
      </trkpt>
      <trkpt lat="47.543482" lon="7.776095">
        <ele>296.990818</ele>
        <time>2021-11-14T17:10:59.934Z</time>
      </trkpt>
      <trkpt lat="47.543449" lon="7.775478">
        <ele>296.713118</ele>
        <time>2021-11-14T17:11:05.677Z</time>
      </trkpt>
      <trkpt lat="47.543402" lon="7.775016">
        <ele>296.503488</ele>
        <time>2021-11-14T17:11:10.346Z</time>
      </trkpt>
      <trkpt lat="47.543350" lon="7.774507">
        <ele>296.296179</ele>
        <time>2021-11-14T17:11:15.584Z</time>
      </trkpt>
      <trkpt lat="47.543145" lon="7.773277">
        <ele>296.136453</ele>
        <time>2021-11-14T17:11:28.483Z</time>
      </trkpt>
      <trkpt lat="47.543108" lon="7.773069">
        <ele>296.109334</ele>
        <time>2021-11-14T17:11:30.663Z</time>
      </trkpt>
      <trkpt lat="47.542720" lon="7.770771">
        <ele>295.706401</ele>
        <time>2021-11-14T17:11:51.885Z</time>
      </trkpt>
      <trkpt lat="47.542450" lon="7.769311">
        <ele>295.579214</ele>
        <time>2021-11-14T17:12:05.857Z</time>
      </trkpt>
      <trkpt lat="47.542317" lon="7.768533">
        <ele>296.803448</ele>
        <time>2021-11-14T17:12:14.230Z</time>
      </trkpt>
      <trkpt lat="47.541697" lon="7.765479">
        <ele>305.144131</ele>
        <time>2021-11-14T17:13:16.496Z</time>
      </trkpt>
      <trkpt lat="47.541552" lon="7.764869">
        <ele>307.695872</ele>
        <time>2021-11-14T17:13:36.236Z</time>
      </trkpt>
      <trkpt lat="47.541443" lon="7.764512">
        <ele>309.241872</ele>
        <time>2021-11-14T17:13:50.087Z</time>
      </trkpt>
      <trkpt lat="47.541364" lon="7.764150">
        <ele>311.208594</ele>
        <time>2021-11-14T17:14:01.054Z</time>
      </trkpt>
      <trkpt lat="47.541377" lon="7.764045">
        <ele>311.890420</ele>
        <time>2021-11-14T17:14:05.617Z</time>
      </trkpt>
      <trkpt lat="47.541334" lon="7.764020">
        <ele>312.327476</ele>
        <time>2021-11-14T17:14:10.460Z</time>
      </trkpt>
      <trkpt lat="47.541219" lon="7.763853">
        <ele>313.851160</ele>
        <time>2021-11-14T17:14:17.048Z</time>
      </trkpt>
      <trkpt lat="47.541023" lon="7.762922">
        <ele>320.079982</ele>
        <time>2021-11-14T17:14:55.380Z</time>
      </trkpt>
      <trkpt lat="47.541004" lon="7.762306">
        <ele>324.018531</ele>
        <time>2021-11-14T17:15:18.198Z</time>
      </trkpt>
      <trkpt lat="47.540921" lon="7.761599">
        <ele>327.925975</ele>
        <time>2021-11-14T17:15:42.867Z</time>
      </trkpt>
      <trkpt lat="47.540567" lon="7.759901">
        <ele>334.461875</ele>
        <time>2021-11-14T17:16:27.541Z</time>
      </trkpt>
      <trkpt lat="47.540447" lon="7.759585">
        <ele>335.795323</ele>
        <time>2021-11-14T17:16:35.124Z</time>
      </trkpt>
      <trkpt lat="47.539949" lon="7.758688">
        <ele>336.384695</ele>
        <time>2021-11-14T17:16:53.369Z</time>
      </trkpt>
      <trkpt lat="47.539722" lon="7.758107">
        <ele>336.064490</ele>
        <time>2021-11-14T17:16:59.658Z</time>
      </trkpt>
      <trkpt lat="47.539595" lon="7.757548">
        <ele>335.783151</ele>
        <time>2021-11-14T17:17:04.052Z</time>
      </trkpt>
      <trkpt lat="47.539346" lon="7.755736">
        <ele>330.695672</ele>
        <time>2021-11-14T17:17:15.796Z</time>
      </trkpt>
      <trkpt lat="47.539230" lon="7.755294">
        <ele>328.972336</ele>
        <time>2021-11-14T17:17:18.688Z</time>
      </trkpt>
      <trkpt lat="47.539079" lon="7.754976">
        <ele>327.559483</ele>
        <time>2021-11-14T17:17:21.079Z</time>
      </trkpt>
      <trkpt lat="47.538792" lon="7.754549">
        <ele>325.573889</ele>
        <time>2021-11-14T17:17:24.813Z</time>
      </trkpt>
      <trkpt lat="47.538723" lon="7.754445">
        <ele>325.267168</ele>
        <time>2021-11-14T17:17:25.711Z</time>
      </trkpt>
      <trkpt lat="47.538494" lon="7.754103">
        <ele>324.253940</ele>
        <time>2021-11-14T17:17:28.871Z</time>
      </trkpt>
      <trkpt lat="47.538359" lon="7.753900">
        <ele>323.654549</ele>
        <time>2021-11-14T17:17:30.772Z</time>
      </trkpt>
      <trkpt lat="47.538052" lon="7.753460">
        <ele>322.323529</ele>
        <time>2021-11-14T17:17:35.179Z</time>
      </trkpt>
      <trkpt lat="47.537715" lon="7.753194">
        <ele>321.133722</ele>
        <time>2021-11-14T17:17:39.298Z</time>
      </trkpt>
      <trkpt lat="47.537564" lon="7.753073">
        <ele>320.598798</ele>
        <time>2021-11-14T17:17:41.200Z</time>
      </trkpt>
      <trkpt lat="47.537371" lon="7.752851">
        <ele>320.195998</ele>
        <time>2021-11-14T17:17:44.637Z</time>
      </trkpt>
      <trkpt lat="47.537134" lon="7.752309">
        <ele>320.017906</ele>
        <time>2021-11-14T17:17:50.925Z</time>
      </trkpt>
      <trkpt lat="47.535912" lon="7.749669">
        <ele>319.231664</ele>
        <time>2021-11-14T17:18:21.105Z</time>
      </trkpt>
      <trkpt lat="47.534874" lon="7.746551">
        <ele>318.585510</ele>
        <time>2021-11-14T17:18:52.955Z</time>
      </trkpt>
      <trkpt lat="47.534429" lon="7.744856">
        <ele>318.711404</ele>
        <time>2021-11-14T17:19:11.866Z</time>
      </trkpt>
      <trkpt lat="47.534370" lon="7.744709">
        <ele>318.737882</ele>
        <time>2021-11-14T17:19:13.513Z</time>
      </trkpt>
      <trkpt lat="47.534179" lon="7.744495">
        <ele>318.792801</ele>
        <time>2021-11-14T17:19:17.396Z</time>
      </trkpt>
      <trkpt lat="47.534097" lon="7.744343">
        <ele>318.822925</ele>
        <time>2021-11-14T17:19:19.407Z</time>
      </trkpt>
      <trkpt lat="47.534043" lon="7.744207">
        <ele>318.847352</ele>
        <time>2021-11-14T17:19:21.153Z</time>
      </trkpt>
      <trkpt lat="47.533870" lon="7.743466">
        <ele>319.077099</ele>
        <time>2021-11-14T17:19:29.931Z</time>
      </trkpt>
      <trkpt lat="47.533707" lon="7.742025">
        <ele>319.764142</ele>
        <time>2021-11-14T17:19:48.480Z</time>
      </trkpt>
      <trkpt lat="47.533352" lon="7.740430">
        <ele>319.563292</ele>
        <time>2021-11-14T17:20:07.602Z</time>
      </trkpt>
      <trkpt lat="47.533191" lon="7.739816">
        <ele>319.077351</ele>
        <time>2021-11-14T17:20:13.673Z</time>
      </trkpt>
      <trkpt lat="47.533153" lon="7.739664">
        <ele>318.957772</ele>
        <time>2021-11-14T17:20:14.970Z</time>
      </trkpt>
      <trkpt lat="47.531874" lon="7.736048">
        <ele>312.612458</ele>
        <time>2021-11-14T17:20:43.443Z</time>
      </trkpt>
      <trkpt lat="47.531710" lon="7.735855">
        <ele>312.222386</ele>
        <time>2021-11-14T17:20:45.629Z</time>
      </trkpt>
      <trkpt lat="47.531389" lon="7.735745">
        <ele>311.608825</ele>
        <time>2021-11-14T17:20:49.194Z</time>
      </trkpt>
      <trkpt lat="47.531325" lon="7.735684">
        <ele>311.467098</ele>
        <time>2021-11-14T17:20:49.906Z</time>
      </trkpt>
      <trkpt lat="47.530882" lon="7.735983">
        <ele>310.560516</ele>
        <time>2021-11-14T17:20:55.519Z</time>
      </trkpt>
      <trkpt lat="47.530193" lon="7.736351">
        <ele>309.775988</ele>
        <time>2021-11-14T17:21:04.937Z</time>
      </trkpt>
      <trkpt lat="47.529741" lon="7.736731">
        <ele>309.804176</ele>
        <time>2021-11-14T17:21:13.417Z</time>
      </trkpt>
      <trkpt lat="47.529603" lon="7.736896">
        <ele>309.813795</ele>
        <time>2021-11-14T17:21:16.652Z</time>
      </trkpt>
      <trkpt lat="47.529534" lon="7.737005">
        <ele>309.819266</ele>
        <time>2021-11-14T17:21:18.822Z</time>
      </trkpt>
      <trkpt lat="47.528997" lon="7.738134">
        <ele>309.681993</ele>
        <time>2021-11-14T17:21:32.797Z</time>
      </trkpt>
      <trkpt lat="47.528896" lon="7.738303">
        <ele>309.568008</ele>
        <time>2021-11-14T17:21:34.985Z</time>
      </trkpt>
      <trkpt lat="47.528842" lon="7.738378">
        <ele>309.512633</ele>
        <time>2021-11-14T17:21:35.804Z</time>
      </trkpt>
      <trkpt lat="47.528601" lon="7.738620">
        <ele>309.294838</ele>
        <time>2021-11-14T17:21:39.422Z</time>
      </trkpt>
      <trkpt lat="47.528341" lon="7.738762">
        <ele>309.087558</ele>
        <time>2021-11-14T17:21:42.714Z</time>
      </trkpt>
      <trkpt lat="47.528292" lon="7.738774">
        <ele>309.050409</ele>
        <time>2021-11-14T17:21:43.294Z</time>
      </trkpt>
      <trkpt lat="47.527841" lon="7.738820">
        <ele>308.712266</ele>
        <time>2021-11-14T17:21:51.131Z</time>
      </trkpt>
      <trkpt lat="47.527567" lon="7.738827">
        <ele>308.510962</ele>
        <time>2021-11-14T17:21:54.673Z</time>
      </trkpt>
      <trkpt lat="47.527349" lon="7.738840">
        <ele>308.481585</ele>
        <time>2021-11-14T17:21:57.420Z</time>
      </trkpt>
      <trkpt lat="47.527103" lon="7.738847">
        <ele>308.448456</ele>
        <time>2021-11-14T17:22:00.426Z</time>
      </trkpt>
      <trkpt lat="47.527053" lon="7.739298">
        <ele>308.406902</ele>
        <time>2021-11-14T17:22:04.338Z</time>
      </trkpt>
      <trkpt lat="47.527038" lon="7.739424">
        <ele>308.395270</ele>
        <time>2021-11-14T17:22:05.667Z</time>
      </trkpt>
      <trkpt lat="47.526782" lon="7.740808">
        <ele>308.301318</ele>
        <time>2021-11-14T17:22:20.743Z</time>
      </trkpt>
      <trkpt lat="47.526531" lon="7.741693">
        <ele>308.879970</ele>
        <time>2021-11-14T17:22:33.308Z</time>
      </trkpt>
      <trkpt lat="47.526222" lon="7.742784">
        <ele>309.593170</ele>
        <time>2021-11-14T17:22:47.609Z</time>
      </trkpt>
      <trkpt lat="47.525969" lon="7.743974">
        <ele>310.733680</ele>
        <time>2021-11-14T17:23:04.544Z</time>
      </trkpt>
      <trkpt lat="47.525836" lon="7.744800">
        <ele>311.668698</ele>
        <time>2021-11-14T17:23:16.625Z</time>
      </trkpt>
      <trkpt lat="47.525817" lon="7.744920">
        <ele>311.804415</ele>
        <time>2021-11-14T17:23:18.550Z</time>
      </trkpt>
      <trkpt lat="47.525761" lon="7.745310">
        <ele>312.243451</ele>
        <time>2021-11-14T17:23:24.324Z</time>
      </trkpt>
      <trkpt lat="47.525754" lon="7.745361">
        <ele>312.300756</ele>
        <time>2021-11-14T17:23:25.098Z</time>
      </trkpt>
      <trkpt lat="47.525698" lon="7.745676">
        <ele>312.659426</ele>
        <time>2021-11-14T17:23:30.186Z</time>
      </trkpt>
      <trkpt lat="47.525493" lon="7.746648">
        <ele>314.260314</ele>
        <time>2021-11-14T17:23:46.316Z</time>
      </trkpt>
      <trkpt lat="47.525175" lon="7.747653">
        <ele>316.085175</ele>
        <time>2021-11-14T17:24:05.165Z</time>
      </trkpt>
      <trkpt lat="47.525102" lon="7.747843">
        <ele>316.444606</ele>
        <time>2021-11-14T17:24:09.243Z</time>
      </trkpt>
      <trkpt lat="47.525034" lon="7.748003">
        <ele>316.755451</ele>
        <time>2021-11-14T17:24:12.107Z</time>
      </trkpt>
      <trkpt lat="47.524939" lon="7.748210">
        <ele>317.166973</ele>
        <time>2021-11-14T17:24:16.381Z</time>
      </trkpt>
      <trkpt lat="47.524786" lon="7.748513">
        <ele>317.977327</ele>
        <time>2021-11-14T17:24:22.588Z</time>
      </trkpt>
      <trkpt lat="47.524595" lon="7.748826">
        <ele>318.888196</ele>
        <time>2021-11-14T17:24:30.327Z</time>
      </trkpt>
      <trkpt lat="47.523810" lon="7.749861">
        <ele>322.248849</ele>
        <time>2021-11-14T17:24:59.771Z</time>
      </trkpt>
      <trkpt lat="47.522660" lon="7.751079">
        <ele>327.098846</ele>
        <time>2021-11-14T17:25:41.637Z</time>
      </trkpt>
      <trkpt lat="47.522153" lon="7.751504">
        <ele>329.121778</ele>
        <time>2021-11-14T17:25:58.225Z</time>
      </trkpt>
      <trkpt lat="47.521128" lon="7.752139">
        <ele>331.671621</ele>
        <time>2021-11-14T17:26:26.728Z</time>
      </trkpt>
      <trkpt lat="47.520691" lon="7.752581">
        <ele>332.875860</ele>
        <time>2021-11-14T17:26:39.068Z</time>
      </trkpt>
      <trkpt lat="47.520500" lon="7.752840">
        <ele>333.277908</ele>
        <time>2021-11-14T17:26:43.824Z</time>
      </trkpt>
      <trkpt lat="47.520081" lon="7.753575">
        <ele>333.284102</ele>
        <time>2021-11-14T17:26:54.515Z</time>
      </trkpt>
      <trkpt lat="47.519771" lon="7.754124">
        <ele>333.288710</ele>
        <time>2021-11-14T17:27:01.169Z</time>
      </trkpt>
      <trkpt lat="47.519558" lon="7.754516">
        <ele>333.291950</ele>
        <time>2021-11-14T17:27:05.534Z</time>
      </trkpt>
      <trkpt lat="47.518866" lon="7.755813">
        <ele>332.855422</ele>
        <time>2021-11-14T17:27:19.496Z</time>
      </trkpt>
      <trkpt lat="47.517863" lon="7.757421">
        <ele>332.738356</ele>
        <time>2021-11-14T17:27:40.208Z</time>
      </trkpt>
      <trkpt lat="47.516954" lon="7.758506">
        <ele>333.474343</ele>
        <time>2021-11-14T17:28:01.833Z</time>
      </trkpt>
      <trkpt lat="47.516501" lon="7.759179">
        <ele>334.794445</ele>
        <time>2021-11-14T17:28:14.947Z</time>
      </trkpt>
      <trkpt lat="47.515929" lon="7.760077">
        <ele>336.675194</ele>
        <time>2021-11-14T17:28:34.653Z</time>
      </trkpt>
      <trkpt lat="47.515394" lon="7.761200">
        <ele>339.439912</ele>
        <time>2021-11-14T17:29:01.464Z</time>
      </trkpt>
      <trkpt lat="47.515265" lon="7.761533">
        <ele>340.355216</ele>
        <time>2021-11-14T17:29:09.340Z</time>
      </trkpt>
      <trkpt lat="47.515220" lon="7.761710">
        <ele>340.806147</ele>
        <time>2021-11-14T17:29:13.208Z</time>
      </trkpt>
      <trkpt lat="47.515194" lon="7.761991">
        <ele>341.482394</ele>
        <time>2021-11-14T17:29:19.240Z</time>
      </trkpt>
      <trkpt lat="47.515150" lon="7.762617">
        <ele>342.983030</ele>
        <time>2021-11-14T17:29:31.360Z</time>
      </trkpt>
      <trkpt lat="47.515108" lon="7.762767">
        <ele>343.370192</ele>
        <time>2021-11-14T17:29:34.823Z</time>
      </trkpt>
      <trkpt lat="47.515023" lon="7.762891">
        <ele>343.791444</ele>
        <time>2021-11-14T17:29:38.554Z</time>
      </trkpt>
      <trkpt lat="47.514492" lon="7.763207">
        <ele>344.989777</ele>
        <time>2021-11-14T17:29:53.840Z</time>
      </trkpt>
      <trkpt lat="47.514365" lon="7.763357">
        <ele>345.312622</ele>
        <time>2021-11-14T17:29:58.190Z</time>
      </trkpt>
      <trkpt lat="47.514022" lon="7.763802">
        <ele>346.218909</ele>
        <time>2021-11-14T17:30:06.202Z</time>
      </trkpt>
      <trkpt lat="47.513823" lon="7.764227">
        <ele>346.913019</ele>
        <time>2021-11-14T17:30:13.326Z</time>
      </trkpt>
      <trkpt lat="47.513810" lon="7.764252">
        <ele>346.955367</ele>
        <time>2021-11-14T17:30:13.761Z</time>
      </trkpt>
      <trkpt lat="47.513747" lon="7.764397">
        <ele>347.186779</ele>
        <time>2021-11-14T17:30:16.234Z</time>
      </trkpt>
      <trkpt lat="47.513707" lon="7.764494">
        <ele>347.339322</ele>
        <time>2021-11-14T17:30:18.218Z</time>
      </trkpt>
      <trkpt lat="47.513661" lon="7.764590">
        <ele>347.497307</ele>
        <time>2021-11-14T17:30:20.146Z</time>
      </trkpt>
      <trkpt lat="47.513615" lon="7.764654">
        <ele>347.592122</ele>
        <time>2021-11-14T17:30:20.827Z</time>
      </trkpt>
      <trkpt lat="47.513036" lon="7.765134">
        <ele>348.566411</ele>
        <time>2021-11-14T17:30:35.731Z</time>
      </trkpt>
      <trkpt lat="47.512959" lon="7.765198">
        <ele>348.696060</ele>
        <time>2021-11-14T17:30:36.933Z</time>
      </trkpt>
      <trkpt lat="47.512947" lon="7.765205">
        <ele>348.714997</ele>
        <time>2021-11-14T17:30:37.161Z</time>
      </trkpt>
      <trkpt lat="47.512876" lon="7.765238">
        <ele>348.824256</ele>
        <time>2021-11-14T17:30:38.625Z</time>
      </trkpt>
      <trkpt lat="47.512596" lon="7.765294">
        <ele>349.239091</ele>
        <time>2021-11-14T17:30:44.129Z</time>
      </trkpt>
      <trkpt lat="47.512523" lon="7.765308">
        <ele>349.347166</ele>
        <time>2021-11-14T17:30:45.555Z</time>
      </trkpt>
      <trkpt lat="47.512359" lon="7.765319">
        <ele>349.588200</ele>
        <time>2021-11-14T17:30:49.457Z</time>
      </trkpt>
      <trkpt lat="47.512026" lon="7.765311">
        <ele>350.077181</ele>
        <time>2021-11-14T17:30:55.465Z</time>
      </trkpt>
      <trkpt lat="47.511929" lon="7.765269">
        <ele>350.244340</ele>
        <time>2021-11-14T17:30:57.753Z</time>
      </trkpt>
      <trkpt lat="47.511866" lon="7.765218">
        <ele>350.374731</ele>
        <time>2021-11-14T17:30:58.911Z</time>
      </trkpt>
      <trkpt lat="47.511702" lon="7.765093">
        <ele>350.709696</ele>
        <time>2021-11-14T17:31:03.259Z</time>
      </trkpt>
      <trkpt lat="47.511360" lon="7.764807">
        <ele>351.422978</ele>
        <time>2021-11-14T17:31:13.113Z</time>
      </trkpt>
      <trkpt lat="47.511298" lon="7.764777">
        <ele>351.541427</ele>
        <time>2021-11-14T17:31:15.023Z</time>
      </trkpt>
      <trkpt lat="47.511261" lon="7.764772">
        <ele>351.608897</ele>
        <time>2021-11-14T17:31:15.869Z</time>
      </trkpt>
      <trkpt lat="47.510922" lon="7.764773">
        <ele>352.224507</ele>
        <time>2021-11-14T17:31:23.752Z</time>
      </trkpt>
      <trkpt lat="47.510628" lon="7.764909">
        <ele>352.783851</ele>
        <time>2021-11-14T17:31:29.718Z</time>
      </trkpt>
      <trkpt lat="47.510486" lon="7.765012">
        <ele>353.071003</ele>
        <time>2021-11-14T17:31:32.892Z</time>
      </trkpt>
      <trkpt lat="47.510392" lon="7.765088">
        <ele>353.265499</ele>
        <time>2021-11-14T17:31:34.865Z</time>
      </trkpt>
      <trkpt lat="47.510179" lon="7.765273">
        <ele>353.939800</ele>
        <time>2021-11-14T17:31:39.487Z</time>
      </trkpt>
      <trkpt lat="47.510078" lon="7.765363">
        <ele>354.314280</ele>
        <time>2021-11-14T17:31:42.170Z</time>
      </trkpt>
      <trkpt lat="47.510019" lon="7.765402">
        <ele>354.519538</ele>
        <time>2021-11-14T17:31:43.559Z</time>
      </trkpt>
      <trkpt lat="47.509942" lon="7.765436">
        <ele>354.774790</ele>
        <time>2021-11-14T17:31:45.373Z</time>
      </trkpt>
      <trkpt lat="47.509899" lon="7.765445">
        <ele>354.912746</ele>
        <time>2021-11-14T17:31:46.370Z</time>
      </trkpt>
      <trkpt lat="47.509741" lon="7.765454">
        <ele>355.415034</ele>
        <time>2021-11-14T17:31:50.492Z</time>
      </trkpt>
      <trkpt lat="47.509600" lon="7.765443">
        <ele>355.863568</ele>
        <time>2021-11-14T17:31:54.781Z</time>
      </trkpt>
      <trkpt lat="47.509436" lon="7.765441">
        <ele>356.384562</ele>
        <time>2021-11-14T17:31:59.762Z</time>
      </trkpt>
      <trkpt lat="47.509057" lon="7.765447">
        <ele>357.588594</ele>
        <time>2021-11-14T17:32:12.299Z</time>
      </trkpt>
      <trkpt lat="47.508744" lon="7.765478">
        <ele>358.585119</ele>
        <time>2021-11-14T17:32:22.274Z</time>
      </trkpt>
      <trkpt lat="47.508322" lon="7.765556">
        <ele>359.965974</ele>
        <time>2021-11-14T17:32:34.935Z</time>
      </trkpt>
      <trkpt lat="47.508137" lon="7.765584">
        <ele>360.578525</ele>
        <time>2021-11-14T17:32:39.718Z</time>
      </trkpt>
      <trkpt lat="47.507977" lon="7.765561">
        <ele>361.108030</ele>
        <time>2021-11-14T17:32:43.935Z</time>
      </trkpt>
      <trkpt lat="47.507650" lon="7.765503">
        <ele>362.192844</ele>
        <time>2021-11-14T17:32:52.166Z</time>
      </trkpt>
      <trkpt lat="47.507506" lon="7.765470">
        <ele>362.672817</ele>
        <time>2021-11-14T17:32:57.624Z</time>
      </trkpt>
      <trkpt lat="47.507429" lon="7.765409">
        <ele>362.960481</ele>
        <time>2021-11-14T17:32:59.371Z</time>
      </trkpt>
      <trkpt lat="47.506870" lon="7.765037">
        <ele>364.979265</ele>
        <time>2021-11-14T17:33:17.641Z</time>
      </trkpt>
      <trkpt lat="47.506716" lon="7.764971">
        <ele>365.452005</ele>
        <time>2021-11-14T17:33:21.098Z</time>
      </trkpt>
      <trkpt lat="47.506619" lon="7.764938">
        <ele>365.740093</ele>
        <time>2021-11-14T17:33:23.683Z</time>
      </trkpt>
      <trkpt lat="47.506377" lon="7.764894">
        <ele>366.445833</ele>
        <time>2021-11-14T17:33:29.384Z</time>
      </trkpt>
      <trkpt lat="47.506301" lon="7.764884">
        <ele>366.666684</ele>
        <time>2021-11-14T17:33:30.829Z</time>
      </trkpt>
      <trkpt lat="47.506143" lon="7.764883">
        <ele>367.124024</ele>
        <time>2021-11-14T17:33:35.651Z</time>
      </trkpt>
      <trkpt lat="47.505115" lon="7.765011">
        <ele>370.110107</ele>
        <time>2021-11-14T17:34:01.596Z</time>
      </trkpt>
      <trkpt lat="47.504400" lon="7.764478">
        <ele>372.617555</ele>
        <time>2021-11-14T17:34:26.780Z</time>
      </trkpt>
      <trkpt lat="47.503736" lon="7.764325">
        <ele>374.733191</ele>
        <time>2021-11-14T17:34:46.509Z</time>
      </trkpt>
      <trkpt lat="47.502578" lon="7.764620">
        <ele>376.565747</ele>
        <time>2021-11-14T17:35:10.997Z</time>
      </trkpt>
      <trkpt lat="47.502400" lon="7.764717">
        <ele>376.719278</ele>
        <time>2021-11-14T17:35:14.375Z</time>
      </trkpt>
      <trkpt lat="47.502299" lon="7.764761">
        <ele>376.804497</ele>
        <time>2021-11-14T17:35:16.023Z</time>
      </trkpt>
      <trkpt lat="47.501861" lon="7.764937">
        <ele>377.171856</ele>
        <time>2021-11-14T17:35:22.460Z</time>
      </trkpt>
      <trkpt lat="47.501785" lon="7.764941">
        <ele>377.233411</ele>
        <time>2021-11-14T17:35:23.775Z</time>
      </trkpt>
      <trkpt lat="47.501717" lon="7.764903">
        <ele>377.292244</ele>
        <time>2021-11-14T17:35:24.875Z</time>
      </trkpt>
      <trkpt lat="47.501402" lon="7.764367">
        <ele>377.820241</ele>
        <time>2021-11-14T17:35:31.980Z</time>
      </trkpt>
      <trkpt lat="47.501345" lon="7.764315">
        <ele>377.899216</ele>
        <time>2021-11-14T17:35:32.739Z</time>
      </trkpt>
      <trkpt lat="47.501281" lon="7.764267">
        <ele>377.983841</ele>
        <time>2021-11-14T17:35:33.860Z</time>
      </trkpt>
      <trkpt lat="47.501206" lon="7.764177">
        <ele>378.097723</ele>
        <time>2021-11-14T17:35:35.535Z</time>
      </trkpt>
      <trkpt lat="47.500750" lon="7.764229">
        <ele>378.637173</ele>
        <time>2021-11-14T17:35:42.499Z</time>
      </trkpt>
      <trkpt lat="47.499021" lon="7.765388">
        <ele>384.309913</ele>
        <time>2021-11-14T17:36:32.125Z</time>
      </trkpt>
      <trkpt lat="47.498581" lon="7.765578">
        <ele>386.196943</ele>
        <time>2021-11-14T17:36:49.220Z</time>
      </trkpt>
      <trkpt lat="47.498206" lon="7.765691">
        <ele>388.702986</ele>
        <time>2021-11-14T17:37:05.274Z</time>
      </trkpt>
      <trkpt lat="47.497832" lon="7.765749">
        <ele>391.906506</ele>
        <time>2021-11-14T17:37:22.457Z</time>
      </trkpt>
      <trkpt lat="47.497683" lon="7.765775">
        <ele>393.184617</ele>
        <time>2021-11-14T17:37:30.879Z</time>
      </trkpt>
      <trkpt lat="47.496981" lon="7.765800">
        <ele>399.166637</ele>
        <time>2021-11-14T17:38:06.412Z</time>
      </trkpt>
      <trkpt lat="47.496601" lon="7.765776">
        <ele>402.485867</ele>
        <time>2021-11-14T17:38:26.994Z</time>
      </trkpt>
      <trkpt lat="47.496345" lon="7.765747">
        <ele>405.623486</ele>
        <time>2021-11-14T17:38:40.063Z</time>
      </trkpt>
      <trkpt lat="47.495891" lon="7.765655">
        <ele>411.223392</ele>
        <time>2021-11-14T17:39:05.201Z</time>
      </trkpt>
      <trkpt lat="47.495429" lon="7.765534">
        <ele>416.957017</ele>
        <time>2021-11-14T17:39:36.369Z</time>
      </trkpt>
      <trkpt lat="47.494837" lon="7.765306">
        <ele>424.496700</ele>
        <time>2021-11-14T17:40:20.893Z</time>
      </trkpt>
      <trkpt lat="47.494623" lon="7.765176">
        <ele>428.121713</ele>
        <time>2021-11-14T17:40:38.186Z</time>
      </trkpt>
      <trkpt lat="47.494523" lon="7.765111">
        <ele>429.833248</ele>
        <time>2021-11-14T17:40:47.118Z</time>
      </trkpt>
      <trkpt lat="47.494327" lon="7.764912">
        <ele>433.557947</ele>
        <time>2021-11-14T17:41:05.873Z</time>
      </trkpt>
      <trkpt lat="47.493822" lon="7.764461">
        <ele>442.800758</ele>
        <time>2021-11-14T17:41:54.775Z</time>
      </trkpt>
      <trkpt lat="47.493545" lon="7.764429">
        <ele>447.154738</ele>
        <time>2021-11-14T17:42:17.343Z</time>
      </trkpt>
      <trkpt lat="47.493274" lon="7.764563">
        <ele>451.632236</ele>
        <time>2021-11-14T17:42:39.164Z</time>
      </trkpt>
      <trkpt lat="47.493115" lon="7.764783">
        <ele>453.793263</ele>
        <time>2021-11-14T17:42:56.104Z</time>
      </trkpt>
      <trkpt lat="47.493010" lon="7.765043">
        <ele>455.488883</ele>
        <time>2021-11-14T17:43:10.044Z</time>
      </trkpt>
      <trkpt lat="47.492941" lon="7.765577">
        <ele>458.532358</ele>
        <time>2021-11-14T17:43:31.377Z</time>
      </trkpt>
      <trkpt lat="47.493006" lon="7.768806">
        <ele>471.597578</ele>
        <time>2021-11-14T17:44:44.297Z</time>
      </trkpt>
      <trkpt lat="47.492999" lon="7.768874">
        <ele>471.775365</ele>
        <time>2021-11-14T17:44:44.825Z</time>
      </trkpt>
      <trkpt lat="47.492983" lon="7.768975">
        <ele>472.043498</ele>
        <time>2021-11-14T17:44:46.555Z</time>
      </trkpt>
      <trkpt lat="47.492832" lon="7.769442">
        <ele>473.381640</ele>
        <time>2021-11-14T17:44:54.285Z</time>
      </trkpt>
      <trkpt lat="47.492784" lon="7.769533">
        <ele>473.680030</ele>
        <time>2021-11-14T17:44:56.778Z</time>
      </trkpt>
      <trkpt lat="47.492732" lon="7.769629">
        <ele>473.998051</ele>
        <time>2021-11-14T17:44:59.404Z</time>
      </trkpt>
      <trkpt lat="47.492753" lon="7.769701">
        <ele>474.215443</ele>
        <time>2021-11-14T17:45:03.525Z</time>
      </trkpt>
      <trkpt lat="47.492661" lon="7.769832">
        <ele>474.963903</ele>
        <time>2021-11-14T17:45:06.593Z</time>
      </trkpt>
      <trkpt lat="47.492435" lon="7.770039">
        <ele>476.522060</ele>
        <time>2021-11-14T17:45:14.919Z</time>
      </trkpt>
      <trkpt lat="47.492137" lon="7.770169">
        <ele>478.343430</ele>
        <time>2021-11-14T17:45:25.366Z</time>
      </trkpt>
      <trkpt lat="47.492020" lon="7.770184">
        <ele>479.031922</ele>
        <time>2021-11-14T17:45:28.674Z</time>
      </trkpt>
      <trkpt lat="47.491182" lon="7.770222">
        <ele>483.947082</ele>
        <time>2021-11-14T17:46:04.169Z</time>
      </trkpt>
      <trkpt lat="47.490367" lon="7.770241">
        <ele>490.145373</ele>
        <time>2021-11-14T17:46:48.838Z</time>
      </trkpt>
      <trkpt lat="47.490063" lon="7.770088">
        <ele>492.694669</ele>
        <time>2021-11-14T17:47:07.839Z</time>
      </trkpt>
      <trkpt lat="47.489882" lon="7.769861">
        <ele>494.578290</ele>
        <time>2021-11-14T17:47:19.566Z</time>
      </trkpt>
      <trkpt lat="47.489759" lon="7.769607">
        <ele>496.254721</ele>
        <time>2021-11-14T17:47:29.527Z</time>
      </trkpt>
      <trkpt lat="47.489330" lon="7.768521">
        <ele>497.819459</ele>
        <time>2021-11-14T17:47:54.512Z</time>
      </trkpt>
      <trkpt lat="47.489260" lon="7.768283">
        <ele>497.409803</ele>
        <time>2021-11-14T17:47:57.772Z</time>
      </trkpt>
      <trkpt lat="47.489217" lon="7.768114">
        <ele>497.124801</ele>
        <time>2021-11-14T17:47:59.036Z</time>
      </trkpt>
      <trkpt lat="47.489202" lon="7.768057">
        <ele>497.028261</ele>
        <time>2021-11-14T17:47:59.435Z</time>
      </trkpt>
      <trkpt lat="47.489166" lon="7.767905">
        <ele>496.774062</ele>
        <time>2021-11-14T17:48:00.576Z</time>
      </trkpt>
      <trkpt lat="47.489106" lon="7.767650">
        <ele>496.347913</ele>
        <time>2021-11-14T17:48:02.359Z</time>
      </trkpt>
      <trkpt lat="47.489047" lon="7.767376">
        <ele>495.894052</ele>
        <time>2021-11-14T17:48:04.180Z</time>
      </trkpt>
      <trkpt lat="47.488885" lon="7.766666">
        <ele>494.379794</ele>
        <time>2021-11-14T17:48:08.712Z</time>
      </trkpt>
      <trkpt lat="47.488779" lon="7.766201">
        <ele>490.604468</ele>
        <time>2021-11-14T17:48:11.573Z</time>
      </trkpt>
      <trkpt lat="47.488674" lon="7.765750">
        <ele>486.934750</ele>
        <time>2021-11-14T17:48:14.295Z</time>
      </trkpt>
      <trkpt lat="47.488592" lon="7.765070">
        <ele>481.620826</ele>
        <time>2021-11-14T17:48:18.234Z</time>
      </trkpt>
      <trkpt lat="47.488619" lon="7.763292">
        <ele>467.694760</ele>
        <time>2021-11-14T17:48:28.354Z</time>
      </trkpt>
      <trkpt lat="47.488582" lon="7.762924">
        <ele>464.722940</ele>
        <time>2021-11-14T17:48:30.481Z</time>
      </trkpt>
      <trkpt lat="47.488339" lon="7.762200">
        <ele>458.265783</ele>
        <time>2021-11-14T17:48:35.111Z</time>
      </trkpt>
      <trkpt lat="47.487890" lon="7.761232">
        <ele>449.345966</ele>
        <time>2021-11-14T17:48:41.870Z</time>
      </trkpt>
      <trkpt lat="47.487031" lon="7.759652">
        <ele>434.928539</ele>
        <time>2021-11-14T17:48:53.621Z</time>
      </trkpt>
      <trkpt lat="47.486636" lon="7.758922">
        <ele>428.709170</ele>
        <time>2021-11-14T17:48:59.088Z</time>
      </trkpt>
      <trkpt lat="47.486484" lon="7.758798">
        <ele>427.017013</ele>
        <time>2021-11-14T17:49:00.543Z</time>
      </trkpt>
      <trkpt lat="47.486303" lon="7.758588">
        <ele>424.774683</ele>
        <time>2021-11-14T17:49:02.591Z</time>
      </trkpt>
      <trkpt lat="47.485984" lon="7.758280">
        <ele>421.061214</ele>
        <time>2021-11-14T17:49:05.890Z</time>
      </trkpt>
      <trkpt lat="47.485673" lon="7.758136">
        <ele>417.884223</ele>
        <time>2021-11-14T17:49:08.710Z</time>
      </trkpt>
      <trkpt lat="47.485622" lon="7.758125">
        <ele>417.381755</ele>
        <time>2021-11-14T17:49:09.154Z</time>
      </trkpt>
      <trkpt lat="47.485584" lon="7.758116">
        <ele>417.006567</ele>
        <time>2021-11-14T17:49:09.471Z</time>
      </trkpt>
      <trkpt lat="47.485109" lon="7.758040">
        <ele>413.753666</ele>
        <time>2021-11-14T17:49:13.650Z</time>
      </trkpt>
      <trkpt lat="47.484579" lon="7.757732">
        <ele>410.037141</ele>
        <time>2021-11-14T17:49:18.747Z</time>
      </trkpt>
      <trkpt lat="47.484552" lon="7.757716">
        <ele>409.847305</ele>
        <time>2021-11-14T17:49:18.985Z</time>
      </trkpt>
      <trkpt lat="47.484252" lon="7.757357">
        <ele>407.329033</ele>
        <time>2021-11-14T17:49:22.493Z</time>
      </trkpt>
      <trkpt lat="47.483892" lon="7.756713">
        <ele>404.463691</ele>
        <time>2021-11-14T17:49:29.281Z</time>
      </trkpt>
      <trkpt lat="47.483791" lon="7.756407">
        <ele>403.974848</ele>
        <time>2021-11-14T17:49:31.884Z</time>
      </trkpt>
      <trkpt lat="47.483769" lon="7.756121">
        <ele>403.561654</ele>
        <time>2021-11-14T17:49:35.706Z</time>
      </trkpt>
      <trkpt lat="47.483754" lon="7.755239">
        <ele>402.295172</ele>
        <time>2021-11-14T17:49:42.157Z</time>
      </trkpt>
      <trkpt lat="47.483795" lon="7.754908">
        <ele>401.812117</ele>
        <time>2021-11-14T17:49:44.614Z</time>
      </trkpt>
      <trkpt lat="47.483838" lon="7.754668">
        <ele>401.455704</ele>
        <time>2021-11-14T17:49:46.547Z</time>
      </trkpt>
      <trkpt lat="47.483916" lon="7.754251">
        <ele>400.294604</ele>
        <time>2021-11-14T17:49:49.539Z</time>
      </trkpt>
      <trkpt lat="47.484067" lon="7.753436">
        <ele>395.882064</ele>
        <time>2021-11-14T17:49:55.261Z</time>
      </trkpt>
      <trkpt lat="47.484428" lon="7.751559">
        <ele>385.078873</ele>
        <time>2021-11-14T17:50:06.579Z</time>
      </trkpt>
      <trkpt lat="47.484582" lon="7.750743">
        <ele>378.784046</ele>
        <time>2021-11-14T17:50:11.409Z</time>
      </trkpt>
      <trkpt lat="47.484640" lon="7.750440">
        <ele>376.444204</ele>
        <time>2021-11-14T17:50:13.201Z</time>
      </trkpt>
      <trkpt lat="47.484700" lon="7.749896">
        <ele>372.348843</ele>
        <time>2021-11-14T17:50:16.380Z</time>
      </trkpt>
      <trkpt lat="47.484572" lon="7.749580">
        <ele>369.611522</ele>
        <time>2021-11-14T17:50:18.547Z</time>
      </trkpt>
      <trkpt lat="47.484510" lon="7.749532">
        <ele>368.842206</ele>
        <time>2021-11-14T17:50:19.124Z</time>
      </trkpt>
      <trkpt lat="47.484462" lon="7.749511">
        <ele>368.291888</ele>
        <time>2021-11-14T17:50:19.554Z</time>
      </trkpt>
      <trkpt lat="47.484403" lon="7.749499">
        <ele>367.637115</ele>
        <time>2021-11-14T17:50:20.090Z</time>
      </trkpt>
      <trkpt lat="47.484374" lon="7.749499">
        <ele>367.329787</ele>
        <time>2021-11-14T17:50:20.337Z</time>
      </trkpt>
      <trkpt lat="47.484276" lon="7.749526">
        <ele>366.492016</ele>
        <time>2021-11-14T17:50:21.208Z</time>
      </trkpt>
      <trkpt lat="47.484079" lon="7.749775">
        <ele>364.314607</ele>
        <time>2021-11-14T17:50:23.459Z</time>
      </trkpt>
      <trkpt lat="47.483936" lon="7.750074">
        <ele>362.234179</ele>
        <time>2021-11-14T17:50:25.563Z</time>
      </trkpt>
      <trkpt lat="47.483821" lon="7.750312">
        <ele>360.572464</ele>
        <time>2021-11-14T17:50:27.414Z</time>
      </trkpt>
      <trkpt lat="47.483598" lon="7.750514">
        <ele>358.375040</ele>
        <time>2021-11-14T17:50:29.691Z</time>
      </trkpt>
      <trkpt lat="47.483353" lon="7.750495">
        <ele>356.313173</ele>
        <time>2021-11-14T17:50:31.812Z</time>
      </trkpt>
      <trkpt lat="47.483212" lon="7.750380">
        <ele>354.960089</ele>
        <time>2021-11-14T17:50:33.324Z</time>
      </trkpt>
      <trkpt lat="47.483118" lon="7.750142">
        <ele>353.394412</ele>
        <time>2021-11-14T17:50:34.962Z</time>
      </trkpt>
      <trkpt lat="47.483104" lon="7.749789">
        <ele>351.554481</ele>
        <time>2021-11-14T17:50:37.256Z</time>
      </trkpt>
      <trkpt lat="47.483127" lon="7.749663">
        <ele>350.957570</ele>
        <time>2021-11-14T17:50:38.003Z</time>
      </trkpt>
      <trkpt lat="47.483157" lon="7.749589">
        <ele>350.562907</ele>
        <time>2021-11-14T17:50:38.519Z</time>
      </trkpt>
      <trkpt lat="47.483455" lon="7.748863">
        <ele>346.678097</ele>
        <time>2021-11-14T17:50:43.747Z</time>
      </trkpt>
      <trkpt lat="47.483653" lon="7.748384">
        <ele>344.110107</ele>
        <time>2021-11-14T17:50:47.124Z</time>
      </trkpt>
      <trkpt lat="47.483857" lon="7.747917">
        <ele>341.566966</ele>
        <time>2021-11-14T17:50:50.481Z</time>
      </trkpt>
      <trkpt lat="47.483953" lon="7.747697">
        <ele>340.369293</ele>
        <time>2021-11-14T17:50:52.036Z</time>
      </trkpt>
      <trkpt lat="47.484176" lon="7.747166">
        <ele>338.531379</ele>
        <time>2021-11-14T17:50:56.080Z</time>
      </trkpt>
      <trkpt lat="47.484266" lon="7.746897">
        <ele>337.704440</ele>
        <time>2021-11-14T17:50:57.988Z</time>
      </trkpt>
      <trkpt lat="47.484616" lon="7.745052">
        <ele>332.425165</ele>
        <time>2021-11-14T17:51:11.071Z</time>
      </trkpt>
      <trkpt lat="47.484658" lon="7.744938">
        <ele>332.067579</ele>
        <time>2021-11-14T17:51:11.861Z</time>
      </trkpt>
      <trkpt lat="47.484727" lon="7.744803">
        <ele>331.601421</ele>
        <time>2021-11-14T17:51:13.152Z</time>
      </trkpt>
      <trkpt lat="47.484772" lon="7.744741">
        <ele>331.350847</ele>
        <time>2021-11-14T17:51:13.803Z</time>
      </trkpt>
      <trkpt lat="47.485152" lon="7.744380">
        <ele>329.510561</ele>
        <time>2021-11-14T17:51:18.583Z</time>
      </trkpt>
      <trkpt lat="47.485353" lon="7.744189">
        <ele>328.537074</ele>
        <time>2021-11-14T17:51:20.855Z</time>
      </trkpt>
      <trkpt lat="47.485726" lon="7.743655">
        <ele>326.422024</ele>
        <time>2021-11-14T17:51:25.799Z</time>
      </trkpt>
      <trkpt lat="47.486081" lon="7.742579">
        <ele>322.439345</ele>
        <time>2021-11-14T17:51:33.334Z</time>
      </trkpt>
      <trkpt lat="47.486170" lon="7.742275">
        <ele>321.254199</ele>
        <time>2021-11-14T17:51:35.345Z</time>
      </trkpt>
      <trkpt lat="47.486221" lon="7.742103">
        <ele>320.582292</ele>
        <time>2021-11-14T17:51:36.542Z</time>
      </trkpt>
      <trkpt lat="47.486335" lon="7.741716">
        <ele>319.072095</ele>
        <time>2021-11-14T17:51:39.172Z</time>
      </trkpt>
      <trkpt lat="47.486413" lon="7.741401">
        <ele>317.872005</ele>
        <time>2021-11-14T17:51:41.296Z</time>
      </trkpt>
      <trkpt lat="47.486458" lon="7.741135">
        <ele>316.891102</ele>
        <time>2021-11-14T17:51:43.040Z</time>
      </trkpt>
      <trkpt lat="47.486469" lon="7.741035">
        <ele>316.528673</ele>
        <time>2021-11-14T17:51:43.689Z</time>
      </trkpt>
      <trkpt lat="47.486493" lon="7.740755">
        <ele>315.808846</ele>
        <time>2021-11-14T17:51:45.480Z</time>
      </trkpt>
      <trkpt lat="47.486498" lon="7.740674">
        <ele>315.742211</ele>
        <time>2021-11-14T17:51:46.006Z</time>
      </trkpt>
      <trkpt lat="47.486546" lon="7.739919">
        <ele>315.120946</ele>
        <time>2021-11-14T17:51:51.147Z</time>
      </trkpt>
      <trkpt lat="47.486574" lon="7.739389">
        <ele>314.685420</ele>
        <time>2021-11-14T17:51:55.418Z</time>
      </trkpt>
      <trkpt lat="47.486588" lon="7.739167">
        <ele>314.502756</ele>
        <time>2021-11-14T17:51:57.223Z</time>
      </trkpt>
      <trkpt lat="47.486599" lon="7.738994">
        <ele>314.360401</ele>
        <time>2021-11-14T17:51:58.926Z</time>
      </trkpt>
      <trkpt lat="47.486652" lon="7.738745">
        <ele>314.146528</ele>
        <time>2021-11-14T17:52:01.824Z</time>
      </trkpt>
      <trkpt lat="47.486688" lon="7.738613">
        <ele>314.029912</ele>
        <time>2021-11-14T17:52:03.150Z</time>
      </trkpt>
      <trkpt lat="47.486696" lon="7.738489">
        <ele>313.927864</ele>
        <time>2021-11-14T17:52:05.372Z</time>
      </trkpt>
      <trkpt lat="47.486689" lon="7.738358">
        <ele>313.820208</ele>
        <time>2021-11-14T17:52:07.523Z</time>
      </trkpt>
      <trkpt lat="47.486676" lon="7.738293">
        <ele>313.764673</ele>
        <time>2021-11-14T17:52:08.552Z</time>
      </trkpt>
      <trkpt lat="47.486621" lon="7.738169">
        <ele>313.956309</ele>
        <time>2021-11-14T17:52:10.728Z</time>
      </trkpt>
      <trkpt lat="47.486495" lon="7.737981">
        <ele>314.693091</ele>
        <time>2021-11-14T17:52:15.982Z</time>
      </trkpt>
      <trkpt lat="47.486384" lon="7.737805">
        <ele>315.362979</ele>
        <time>2021-11-14T17:52:20.174Z</time>
      </trkpt>
      <trkpt lat="47.486354" lon="7.737753">
        <ele>315.553234</ele>
        <time>2021-11-14T17:52:21.343Z</time>
      </trkpt>
      <trkpt lat="47.486314" lon="7.737686">
        <ele>315.802004</ele>
        <time>2021-11-14T17:52:23.045Z</time>
      </trkpt>
      <trkpt lat="47.486287" lon="7.737642">
        <ele>315.967384</ele>
        <time>2021-11-14T17:52:24.812Z</time>
      </trkpt>
      <trkpt lat="47.486087" lon="7.737329">
        <ele>317.166044</ele>
        <time>2021-11-14T17:52:33.826Z</time>
      </trkpt>
      <trkpt lat="47.485976" lon="7.737217">
        <ele>317.719250</ele>
        <time>2021-11-14T17:52:38.955Z</time>
      </trkpt>
      <trkpt lat="47.485875" lon="7.737156">
        <ele>318.168443</ele>
        <time>2021-11-14T17:52:42.480Z</time>
      </trkpt>
      <trkpt lat="47.485806" lon="7.737111">
        <ele>318.478934</ele>
        <time>2021-11-14T17:52:44.763Z</time>
      </trkpt>
      <trkpt lat="47.485750" lon="7.737070">
        <ele>318.736205</ele>
        <time>2021-11-14T17:52:46.954Z</time>
      </trkpt>
      <trkpt lat="47.485679" lon="7.737020">
        <ele>319.059980</ele>
        <time>2021-11-14T17:52:50.339Z</time>
      </trkpt>
      <trkpt lat="47.485564" lon="7.736965">
        <ele>319.557633</ele>
        <time>2021-11-14T17:52:54.509Z</time>
      </trkpt>
      <trkpt lat="47.485482" lon="7.736917">
        <ele>319.920743</ele>
        <time>2021-11-14T17:52:57.250Z</time>
      </trkpt>
      <trkpt lat="47.485412" lon="7.736871">
        <ele>320.236126</ele>
        <time>2021-11-14T17:52:59.784Z</time>
      </trkpt>
      <trkpt lat="47.485357" lon="7.736813">
        <ele>320.514223</ele>
        <time>2021-11-14T17:53:02.737Z</time>
      </trkpt>
      <trkpt lat="47.485212" lon="7.736657">
        <ele>321.269906</ele>
        <time>2021-11-14T17:53:08.557Z</time>
      </trkpt>
      <trkpt lat="47.485182" lon="7.736627">
        <ele>321.438792</ele>
        <time>2021-11-14T17:53:09.620Z</time>
      </trkpt>
      <trkpt lat="47.485143" lon="7.736599">
        <ele>321.640981</ele>
        <time>2021-11-14T17:53:11.143Z</time>
      </trkpt>
      <trkpt lat="47.485052" lon="7.736552">
        <ele>322.090548</ele>
        <time>2021-11-14T17:53:15.130Z</time>
      </trkpt>
      <trkpt lat="47.485005" lon="7.736543">
        <ele>322.311600</ele>
        <time>2021-11-14T17:53:16.868Z</time>
      </trkpt>
      <trkpt lat="47.484905" lon="7.736536">
        <ele>322.778556</ele>
        <time>2021-11-14T17:53:20.201Z</time>
      </trkpt>
      <trkpt lat="47.484870" lon="7.736533">
        <ele>322.942081</ele>
        <time>2021-11-14T17:53:21.280Z</time>
      </trkpt>
      <trkpt lat="47.484700" lon="7.736511">
        <ele>323.738047</ele>
        <time>2021-11-14T17:53:27.686Z</time>
      </trkpt>
      <trkpt lat="47.484515" lon="7.736477">
        <ele>324.607580</ele>
        <time>2021-11-14T17:53:34.272Z</time>
      </trkpt>
      <trkpt lat="47.484114" lon="7.736364">
        <ele>326.511596</ele>
        <time>2021-11-14T17:53:48.368Z</time>
      </trkpt>
      <trkpt lat="47.483917" lon="7.736315">
        <ele>327.443362</ele>
        <time>2021-11-14T17:53:54.784Z</time>
      </trkpt>
      <trkpt lat="47.483778" lon="7.736282">
        <ele>328.099998</ele>
        <time>2021-11-14T17:53:59.761Z</time>
      </trkpt>
      <trkpt lat="47.483599" lon="7.736235">
        <ele>328.947958</ele>
        <time>2021-11-14T17:54:06.576Z</time>
      </trkpt>
      <trkpt lat="47.483356" lon="7.736149">
        <ele>330.025214</ele>
        <time>2021-11-14T17:54:15.535Z</time>
      </trkpt>
      <trkpt lat="47.483352" lon="7.736146">
        <ele>330.043074</ele>
        <time>2021-11-14T17:54:16.021Z</time>
      </trkpt>
      <trkpt lat="47.483095" lon="7.735982">
        <ele>331.157764</ele>
        <time>2021-11-14T17:54:25.031Z</time>
      </trkpt>
      <trkpt lat="47.482953" lon="7.735671">
        <ele>332.167985</ele>
        <time>2021-11-14T17:54:33.957Z</time>
      </trkpt>
      <trkpt lat="47.482931" lon="7.735630">
        <ele>332.308894</ele>
        <time>2021-11-14T17:54:35.356Z</time>
      </trkpt>
      <trkpt lat="47.482843" lon="7.735675">
        <ele>332.679714</ele>
        <time>2021-11-14T17:54:37.712Z</time>
      </trkpt>
      <trkpt lat="47.482798" lon="7.735712">
        <ele>332.884748</ele>
        <time>2021-11-14T17:54:39.482Z</time>
      </trkpt>
      <trkpt lat="47.482759" lon="7.735794">
        <ele>333.154636</ele>
        <time>2021-11-14T17:54:41.709Z</time>
      </trkpt>
      <trkpt lat="47.482666" lon="7.735762">
        <ele>333.534913</ele>
        <time>2021-11-14T17:54:44.263Z</time>
      </trkpt>
      <trkpt lat="47.482502" lon="7.735796">
        <ele>334.194463</ele>
        <time>2021-11-14T17:54:48.892Z</time>
      </trkpt>
      <trkpt lat="47.482455" lon="7.735817">
        <ele>334.389999</ele>
        <time>2021-11-14T17:54:50.983Z</time>
      </trkpt>
      <trkpt lat="47.482190" lon="7.735935">
        <ele>335.492180</ele>
        <time>2021-11-14T17:54:58.968Z</time>
      </trkpt>
      <trkpt lat="47.482126" lon="7.735966">
        <ele>335.760385</ele>
        <time>2021-11-14T17:55:01.258Z</time>
      </trkpt>
      <trkpt lat="47.482046" lon="7.736005">
        <ele>336.095851</ele>
        <time>2021-11-14T17:55:04.019Z</time>
      </trkpt>
      <trkpt lat="47.481911" lon="7.736111">
        <ele>336.720257</ele>
        <time>2021-11-14T17:55:08.690Z</time>
      </trkpt>
      <trkpt lat="47.481746" lon="7.736309">
        <ele>337.997693</ele>
        <time>2021-11-14T17:55:16.844Z</time>
      </trkpt>
      <trkpt lat="47.481528" lon="7.736594">
        <ele>339.746917</ele>
        <time>2021-11-14T17:55:26.649Z</time>
      </trkpt>
      <trkpt lat="47.481415" lon="7.736739">
        <ele>340.646320</ele>
        <time>2021-11-14T17:55:31.923Z</time>
      </trkpt>
      <trkpt lat="47.481358" lon="7.736813">
        <ele>341.102295</ele>
        <time>2021-11-14T17:55:34.170Z</time>
      </trkpt>
      <trkpt lat="47.481122" lon="7.737038">
        <ele>342.790468</ele>
        <time>2021-11-14T17:55:44.085Z</time>
      </trkpt>
      <trkpt lat="47.481084" lon="7.737033">
        <ele>343.019869</ele>
        <time>2021-11-14T17:55:45.499Z</time>
      </trkpt>
      <trkpt lat="47.481043" lon="7.737005">
        <ele>343.291401</ele>
        <time>2021-11-14T17:55:47.226Z</time>
      </trkpt>
      <trkpt lat="47.480998" lon="7.736963">
        <ele>343.611327</ele>
        <time>2021-11-14T17:55:49.237Z</time>
      </trkpt>
      <trkpt lat="47.480783" lon="7.736712">
        <ele>345.258105</ele>
        <time>2021-11-14T17:56:01.837Z</time>
      </trkpt>
      <trkpt lat="47.480717" lon="7.736638">
        <ele>345.756043</ele>
        <time>2021-11-14T17:56:04.918Z</time>
      </trkpt>
      <trkpt lat="47.480675" lon="7.736582">
        <ele>346.096006</ele>
        <time>2021-11-14T17:56:06.991Z</time>
      </trkpt>
      <trkpt lat="47.480639" lon="7.736513">
        <ele>346.450253</ele>
        <time>2021-11-14T17:56:10.861Z</time>
      </trkpt>
      <trkpt lat="47.480309" lon="7.735364">
        <ele>353.551326</ele>
        <time>2021-11-14T17:56:50.607Z</time>
      </trkpt>
      <trkpt lat="47.480231" lon="7.735048">
        <ele>355.605528</ele>
        <time>2021-11-14T17:57:03.806Z</time>
      </trkpt>
      <trkpt lat="47.480208" lon="7.734904">
        <ele>356.509033</ele>
        <time>2021-11-14T17:57:09.003Z</time>
      </trkpt>
      <trkpt lat="47.480177" lon="7.734199">
        <ele>360.822965</ele>
        <time>2021-11-14T17:57:35.136Z</time>
      </trkpt>
      <trkpt lat="47.480029" lon="7.733853">
        <ele>363.323286</ele>
        <time>2021-11-14T17:57:48.765Z</time>
      </trkpt>
      <trkpt lat="47.479940" lon="7.733695">
        <ele>364.548336</ele>
        <time>2021-11-14T17:57:55.970Z</time>
      </trkpt>
      <trkpt lat="47.479876" lon="7.733626">
        <ele>365.237466</ele>
        <time>2021-11-14T17:58:00.430Z</time>
      </trkpt>
      <trkpt lat="47.479629" lon="7.733549">
        <ele>367.434175</ele>
        <time>2021-11-14T17:58:13.563Z</time>
      </trkpt>
      <trkpt lat="47.479442" lon="7.733643">
        <ele>369.152893</ele>
        <time>2021-11-14T17:58:23.469Z</time>
      </trkpt>
      <trkpt lat="47.479374" lon="7.733720">
        <ele>369.898075</ele>
        <time>2021-11-14T17:58:28.074Z</time>
      </trkpt>
      <trkpt lat="47.479287" lon="7.733859">
        <ele>371.012351</ele>
        <time>2021-11-14T17:58:33.888Z</time>
      </trkpt>
      <trkpt lat="47.479108" lon="7.734183">
        <ele>373.473672</ele>
        <time>2021-11-14T17:58:47.484Z</time>
      </trkpt>
      <trkpt lat="47.479049" lon="7.734271">
        <ele>374.202729</ele>
        <time>2021-11-14T17:58:52.099Z</time>
      </trkpt>
      <trkpt lat="47.478987" lon="7.734340">
        <ele>374.877875</ele>
        <time>2021-11-14T17:58:56.103Z</time>
      </trkpt>
      <trkpt lat="47.478751" lon="7.734445">
        <ele>377.022509</ele>
        <time>2021-11-14T17:59:08.209Z</time>
      </trkpt>
      <trkpt lat="47.478604" lon="7.734448">
        <ele>378.301898</ele>
        <time>2021-11-14T17:59:15.572Z</time>
      </trkpt>
      <trkpt lat="47.478419" lon="7.734438">
        <ele>379.868056</ele>
        <time>2021-11-14T17:59:23.877Z</time>
      </trkpt>
      <trkpt lat="47.478062" lon="7.734359">
        <ele>382.738619</ele>
        <time>2021-11-14T17:59:39.819Z</time>
      </trkpt>
      <trkpt lat="47.477944" lon="7.734325">
        <ele>383.694623</ele>
        <time>2021-11-14T17:59:46.724Z</time>
      </trkpt>
      <trkpt lat="47.477622" lon="7.734199">
        <ele>386.343317</ele>
        <time>2021-11-14T18:00:02.123Z</time>
      </trkpt>
      <trkpt lat="47.476662" lon="7.733746">
        <ele>394.318263</ele>
        <time>2021-11-14T18:00:48.572Z</time>
      </trkpt>
      <trkpt lat="47.476542" lon="7.733685">
        <ele>395.269004</ele>
        <time>2021-11-14T18:00:55.462Z</time>
      </trkpt>
      <trkpt lat="47.476311" lon="7.733566">
        <ele>397.101789</ele>
        <time>2021-11-14T18:01:05.722Z</time>
      </trkpt>
      <trkpt lat="47.475702" lon="7.733361">
        <ele>401.781595</ele>
        <time>2021-11-14T18:01:31.493Z</time>
      </trkpt>
      <trkpt lat="47.475643" lon="7.733352">
        <ele>402.226021</ele>
        <time>2021-11-14T18:01:34.624Z</time>
      </trkpt>
      <trkpt lat="47.475513" lon="7.733347">
        <ele>403.200430</ele>
        <time>2021-11-14T18:01:41.420Z</time>
      </trkpt>
      <trkpt lat="47.475316" lon="7.733339">
        <ele>404.677092</ele>
        <time>2021-11-14T18:01:50.398Z</time>
      </trkpt>
      <trkpt lat="47.475034" lon="7.733352">
        <ele>406.791122</ele>
        <time>2021-11-14T18:02:04.579Z</time>
      </trkpt>
      <trkpt lat="47.474608" lon="7.733393">
        <ele>409.826653</ele>
        <time>2021-11-14T18:02:22.441Z</time>
      </trkpt>
      <trkpt lat="47.474307" lon="7.733450">
        <ele>411.968696</ele>
        <time>2021-11-14T18:02:34.728Z</time>
      </trkpt>
      <trkpt lat="47.474010" lon="7.733547">
        <ele>414.115645</ele>
        <time>2021-11-14T18:02:47.973Z</time>
      </trkpt>
      <trkpt lat="47.473788" lon="7.733629">
        <ele>415.730807</ele>
        <time>2021-11-14T18:02:57.605Z</time>
      </trkpt>
      <trkpt lat="47.473666" lon="7.733675">
        <ele>416.619512</ele>
        <time>2021-11-14T18:03:02.929Z</time>
      </trkpt>
      <trkpt lat="47.473509" lon="7.733729">
        <ele>417.757304</ele>
        <time>2021-11-14T18:03:09.610Z</time>
      </trkpt>
      <trkpt lat="47.473073" lon="7.733797">
        <ele>420.805992</ele>
        <time>2021-11-14T18:03:29.009Z</time>
      </trkpt>
      <trkpt lat="47.472834" lon="7.733752">
        <ele>422.427036</ele>
        <time>2021-11-14T18:03:39.703Z</time>
      </trkpt>
      <trkpt lat="47.472688" lon="7.733697">
        <ele>423.440720</ele>
        <time>2021-11-14T18:03:45.697Z</time>
      </trkpt>
      <trkpt lat="47.472547" lon="7.733633">
        <ele>424.433063</ele>
        <time>2021-11-14T18:03:51.830Z</time>
      </trkpt>
      <trkpt lat="47.472105" lon="7.733303">
        <ele>427.764242</ele>
        <time>2021-11-14T18:04:10.225Z</time>
      </trkpt>
      <trkpt lat="47.471631" lon="7.732839">
        <ele>431.588444</ele>
        <time>2021-11-14T18:04:35.052Z</time>
      </trkpt>
      <trkpt lat="47.471395" lon="7.732417">
        <ele>434.089365</ele>
        <time>2021-11-14T18:04:51.866Z</time>
      </trkpt>
      <trkpt lat="47.471268" lon="7.732034">
        <ele>436.038718</ele>
        <time>2021-11-14T18:05:04.125Z</time>
      </trkpt>
      <trkpt lat="47.471153" lon="7.731437">
        <ele>438.875324</ele>
        <time>2021-11-14T18:05:21.877Z</time>
      </trkpt>
      <trkpt lat="47.471111" lon="7.731234">
        <ele>439.845415</ele>
        <time>2021-11-14T18:05:28.201Z</time>
      </trkpt>
      <trkpt lat="47.470944" lon="7.730671">
        <ele>442.654857</ele>
        <time>2021-11-14T18:05:44.879Z</time>
      </trkpt>
      <trkpt lat="47.470700" lon="7.730260">
        <ele>444.977440</ele>
        <time>2021-11-14T18:05:59.490Z</time>
      </trkpt>
      <trkpt lat="47.470333" lon="7.729782">
        <ele>447.711862</ele>
        <time>2021-11-14T18:06:18.737Z</time>
      </trkpt>
      <trkpt lat="47.469646" lon="7.728865">
        <ele>452.886420</ele>
        <time>2021-11-14T18:06:51.431Z</time>
      </trkpt>
      <trkpt lat="47.469535" lon="7.728710">
        <ele>453.740020</ele>
        <time>2021-11-14T18:06:56.868Z</time>
      </trkpt>
      <trkpt lat="47.469377" lon="7.728513">
        <ele>454.920475</ele>
        <time>2021-11-14T18:07:04.349Z</time>
      </trkpt>
      <trkpt lat="47.469080" lon="7.728106">
        <ele>457.264222</ele>
        <time>2021-11-14T18:07:19.413Z</time>
      </trkpt>
      <trkpt lat="47.467507" lon="7.725936">
        <ele>469.628978</ele>
        <time>2021-11-14T18:08:42.859Z</time>
      </trkpt>
      <trkpt lat="47.467396" lon="7.725770">
        <ele>470.527220</ele>
        <time>2021-11-14T18:08:49.305Z</time>
      </trkpt>
      <trkpt lat="47.467028" lon="7.725230">
        <ele>473.477030</ele>
        <time>2021-11-14T18:09:07.927Z</time>
      </trkpt>
      <trkpt lat="47.466779" lon="7.724949">
        <ele>475.164836</ele>
        <time>2021-11-14T18:09:19.157Z</time>
      </trkpt>
      <trkpt lat="47.466538" lon="7.724737">
        <ele>476.403788</ele>
        <time>2021-11-14T18:09:28.887Z</time>
      </trkpt>
      <trkpt lat="47.466305" lon="7.724568">
        <ele>477.550430</ele>
        <time>2021-11-14T18:09:37.221Z</time>
      </trkpt>
      <trkpt lat="47.466193" lon="7.724504">
        <ele>478.080957</ele>
        <time>2021-11-14T18:09:41.500Z</time>
      </trkpt>
      <trkpt lat="47.465567" lon="7.724049">
        <ele>481.162890</ele>
        <time>2021-11-14T18:10:03.338Z</time>
      </trkpt>
      <trkpt lat="47.464882" lon="7.723233">
        <ele>485.030826</ele>
        <time>2021-11-14T18:10:30.073Z</time>
      </trkpt>
      <trkpt lat="47.464732" lon="7.723056">
        <ele>485.871831</ele>
        <time>2021-11-14T18:10:36.611Z</time>
      </trkpt>
      <trkpt lat="47.464070" lon="7.722248">
        <ele>489.633586</ele>
        <time>2021-11-14T18:11:04.712Z</time>
      </trkpt>
      <trkpt lat="47.463877" lon="7.722012">
        <ele>490.715293</ele>
        <time>2021-11-14T18:11:13.702Z</time>
      </trkpt>
      <trkpt lat="47.463361" lon="7.721353">
        <ele>492.959466</ele>
        <time>2021-11-14T18:11:35.933Z</time>
      </trkpt>
      <trkpt lat="47.463192" lon="7.721145">
        <ele>493.683202</ele>
        <time>2021-11-14T18:11:42.416Z</time>
      </trkpt>
      <trkpt lat="47.463093" lon="7.721026">
        <ele>494.103144</ele>
        <time>2021-11-14T18:11:46.250Z</time>
      </trkpt>
      <trkpt lat="47.462940" lon="7.720839">
        <ele>494.756504</ele>
        <time>2021-11-14T18:11:51.704Z</time>
      </trkpt>
      <trkpt lat="47.462398" lon="7.720204">
        <ele>496.473383</ele>
        <time>2021-11-14T18:12:08.021Z</time>
      </trkpt>
      <trkpt lat="47.461918" lon="7.719612">
        <ele>495.939918</ele>
        <time>2021-11-14T18:12:16.842Z</time>
      </trkpt>
      <trkpt lat="47.461492" lon="7.719155">
        <ele>495.490721</ele>
        <time>2021-11-14T18:12:22.969Z</time>
      </trkpt>
      <trkpt lat="47.461216" lon="7.718921">
        <ele>495.219173</ele>
        <time>2021-11-14T18:12:26.510Z</time>
      </trkpt>
      <trkpt lat="47.460941" lon="7.718688">
        <ele>494.457688</ele>
        <time>2021-11-14T18:12:29.893Z</time>
      </trkpt>
      <trkpt lat="47.460776" lon="7.718517">
        <ele>493.478425</ele>
        <time>2021-11-14T18:12:31.940Z</time>
      </trkpt>
      <trkpt lat="47.460739" lon="7.718471">
        <ele>493.243493</ele>
        <time>2021-11-14T18:12:32.421Z</time>
      </trkpt>
      <trkpt lat="47.460341" lon="7.718145">
        <ele>491.032172</ele>
        <time>2021-11-14T18:12:36.774Z</time>
      </trkpt>
      <trkpt lat="47.459999" lon="7.717456">
        <ele>488.223281</ele>
        <time>2021-11-14T18:12:42.020Z</time>
      </trkpt>
      <trkpt lat="47.459964" lon="7.717452">
        <ele>488.052656</ele>
        <time>2021-11-14T18:12:42.335Z</time>
      </trkpt>
      <trkpt lat="47.459892" lon="7.717448">
        <ele>487.702451</ele>
        <time>2021-11-14T18:12:42.985Z</time>
      </trkpt>
      <trkpt lat="47.459808" lon="7.717440">
        <ele>487.293320</ele>
        <time>2021-11-14T18:12:43.804Z</time>
      </trkpt>
      <trkpt lat="47.459721" lon="7.717415">
        <ele>486.862547</ele>
        <time>2021-11-14T18:12:44.603Z</time>
      </trkpt>
      <trkpt lat="47.459662" lon="7.717526">
        <ele>486.398546</ele>
        <time>2021-11-14T18:12:45.468Z</time>
      </trkpt>
      <trkpt lat="47.459589" lon="7.717627">
        <ele>485.734230</ele>
        <time>2021-11-14T18:12:46.392Z</time>
      </trkpt>
      <trkpt lat="47.459524" lon="7.717695">
        <ele>485.173826</ele>
        <time>2021-11-14T18:12:47.187Z</time>
      </trkpt>
      <trkpt lat="47.459450" lon="7.717732">
        <ele>484.623996</ele>
        <time>2021-11-14T18:12:47.901Z</time>
      </trkpt>
      <trkpt lat="47.459083" lon="7.717829">
        <ele>481.999829</ele>
        <time>2021-11-14T18:12:51.435Z</time>
      </trkpt>
      <trkpt lat="47.458956" lon="7.717895">
        <ele>481.052324</ele>
        <time>2021-11-14T18:12:52.647Z</time>
      </trkpt>
      <trkpt lat="47.458654" lon="7.718112">
        <ele>478.689020</ele>
        <time>2021-11-14T18:12:55.766Z</time>
      </trkpt>
      <trkpt lat="47.458642" lon="7.718137">
        <ele>478.543109</ele>
        <time>2021-11-14T18:12:55.934Z</time>
      </trkpt>
      <trkpt lat="47.458619" lon="7.718188">
        <ele>478.251357</ele>
        <time>2021-11-14T18:12:56.335Z</time>
      </trkpt>
      <trkpt lat="47.458611" lon="7.718259">
        <ele>477.908801</ele>
        <time>2021-11-14T18:12:56.771Z</time>
      </trkpt>
      <trkpt lat="47.458577" lon="7.718531">
        <ele>476.592389</ele>
        <time>2021-11-14T18:12:58.434Z</time>
      </trkpt>
      <trkpt lat="47.458632" lon="7.719114">
        <ele>473.790955</ele>
        <time>2021-11-14T18:13:01.888Z</time>
      </trkpt>
      <trkpt lat="47.458590" lon="7.719319">
        <ele>472.258315</ele>
        <time>2021-11-14T18:13:03.130Z</time>
      </trkpt>
      <trkpt lat="47.458515" lon="7.719431">
        <ele>471.070118</ele>
        <time>2021-11-14T18:13:04.131Z</time>
      </trkpt>
      <trkpt lat="47.458455" lon="7.719474">
        <ele>470.326826</ele>
        <time>2021-11-14T18:13:04.723Z</time>
      </trkpt>
      <trkpt lat="47.458406" lon="7.719485">
        <ele>469.774300</ele>
        <time>2021-11-14T18:13:05.143Z</time>
      </trkpt>
      <trkpt lat="47.458173" lon="7.719569">
        <ele>467.100677</ele>
        <time>2021-11-14T18:13:07.164Z</time>
      </trkpt>
      <trkpt lat="47.457906" lon="7.719646">
        <ele>464.068008</ele>
        <time>2021-11-14T18:13:09.462Z</time>
      </trkpt>
      <trkpt lat="47.457441" lon="7.719878">
        <ele>458.597002</ele>
        <time>2021-11-14T18:13:13.664Z</time>
      </trkpt>
      <trkpt lat="47.457267" lon="7.720067">
        <ele>456.190239</ele>
        <time>2021-11-14T18:13:15.463Z</time>
      </trkpt>
      <trkpt lat="47.457171" lon="7.720351">
        <ele>453.796866</ele>
        <time>2021-11-14T18:13:17.327Z</time>
      </trkpt>
      <trkpt lat="47.457176" lon="7.720627">
        <ele>451.805865</ele>
        <time>2021-11-14T18:13:18.864Z</time>
      </trkpt>
      <trkpt lat="47.457201" lon="7.720790">
        <ele>450.606329</ele>
        <time>2021-11-14T18:13:19.845Z</time>
      </trkpt>
      <trkpt lat="47.457328" lon="7.721222">
        <ele>447.225581</ele>
        <time>2021-11-14T18:13:22.501Z</time>
      </trkpt>
      <trkpt lat="47.457394" lon="7.721380">
        <ele>445.892703</ele>
        <time>2021-11-14T18:13:23.599Z</time>
      </trkpt>
      <trkpt lat="47.457459" lon="7.721559">
        <ele>444.434517</ele>
        <time>2021-11-14T18:13:24.744Z</time>
      </trkpt>
      <trkpt lat="47.457631" lon="7.722450">
        <ele>437.784523</ele>
        <time>2021-11-14T18:13:30.163Z</time>
      </trkpt>
      <trkpt lat="47.457621" lon="7.722956">
        <ele>434.197200</ele>
        <time>2021-11-14T18:13:33.172Z</time>
      </trkpt>
      <trkpt lat="47.457501" lon="7.723676">
        <ele>429.558383</ele>
        <time>2021-11-14T18:13:37.718Z</time>
      </trkpt>
      <trkpt lat="47.457224" lon="7.724831">
        <ele>421.892141</ele>
        <time>2021-11-14T18:13:44.959Z</time>
      </trkpt>
      <trkpt lat="47.457193" lon="7.725215">
        <ele>419.472930</ele>
        <time>2021-11-14T18:13:47.184Z</time>
      </trkpt>
      <trkpt lat="47.457194" lon="7.725490">
        <ele>417.692609</ele>
        <time>2021-11-14T18:13:48.864Z</time>
      </trkpt>
      <trkpt lat="47.457229" lon="7.725725">
        <ele>415.392984</ele>
        <time>2021-11-14T18:13:50.198Z</time>
      </trkpt>
      <trkpt lat="47.457264" lon="7.725996">
        <ele>412.756340</ele>
        <time>2021-11-14T18:13:51.802Z</time>
      </trkpt>
      <trkpt lat="47.457263" lon="7.726074">
        <ele>412.010797</ele>
        <time>2021-11-14T18:13:52.247Z</time>
      </trkpt>
      <trkpt lat="47.457250" lon="7.726144">
        <ele>411.317064</ele>
        <time>2021-11-14T18:13:52.653Z</time>
      </trkpt>
      <trkpt lat="47.457127" lon="7.726426">
        <ele>408.110036</ele>
        <time>2021-11-14T18:13:54.566Z</time>
      </trkpt>
      <trkpt lat="47.456470" lon="7.727167">
        <ele>396.431983</ele>
        <time>2021-11-14T18:14:01.420Z</time>
      </trkpt>
      <trkpt lat="47.456356" lon="7.727306">
        <ele>394.343733</ele>
        <time>2021-11-14T18:14:02.621Z</time>
      </trkpt>
      <trkpt lat="47.456077" lon="7.727577">
        <ele>391.207476</ele>
        <time>2021-11-14T18:14:05.407Z</time>
      </trkpt>
      <trkpt lat="47.455497" lon="7.728040">
        <ele>387.119191</ele>
        <time>2021-11-14T18:14:11.171Z</time>
      </trkpt>
      <trkpt lat="47.455196" lon="7.728169">
        <ele>385.175315</ele>
        <time>2021-11-14T18:14:14.058Z</time>
      </trkpt>
      <trkpt lat="47.455125" lon="7.728204">
        <ele>384.711090</ele>
        <time>2021-11-14T18:14:14.683Z</time>
      </trkpt>
      <trkpt lat="47.454990" lon="7.728272">
        <ele>383.826467</ele>
        <time>2021-11-14T18:14:16.043Z</time>
      </trkpt>
      <trkpt lat="47.454888" lon="7.728354">
        <ele>383.106340</ele>
        <time>2021-11-14T18:14:17.286Z</time>
      </trkpt>
      <trkpt lat="47.454817" lon="7.728459">
        <ele>382.483524</ele>
        <time>2021-11-14T18:14:20.167Z</time>
      </trkpt>
      <trkpt lat="47.454236" lon="7.729219">
        <ele>384.930616</ele>
        <time>2021-11-14T18:14:48.022Z</time>
      </trkpt>
      <trkpt lat="47.453667" lon="7.729560">
        <ele>388.767831</ele>
        <time>2021-11-14T18:15:12.876Z</time>
      </trkpt>
      <trkpt lat="47.453627" lon="7.729619">
        <ele>389.120927</ele>
        <time>2021-11-14T18:15:18.571Z</time>
      </trkpt>
      <trkpt lat="47.453606" lon="7.729676">
        <ele>389.395259</ele>
        <time>2021-11-14T18:15:21.862Z</time>
      </trkpt>
      <trkpt lat="47.453722" lon="7.732102">
        <ele>398.240792</ele>
        <time>2021-11-14T18:16:34.863Z</time>
      </trkpt>
      <trkpt lat="47.453622" lon="7.732802">
        <ele>400.658012</ele>
        <time>2021-11-14T18:16:46.544Z</time>
      </trkpt>
      <trkpt lat="47.453555" lon="7.732894">
        <ele>401.114834</ele>
        <time>2021-11-14T18:16:47.952Z</time>
      </trkpt>
      <trkpt lat="47.453373" lon="7.732917">
        <ele>401.201173</ele>
        <time>2021-11-14T18:16:50.860Z</time>
      </trkpt>
      <trkpt lat="47.453309" lon="7.732927">
        <ele>401.002896</ele>
        <time>2021-11-14T18:16:52.618Z</time>
      </trkpt>
      <trkpt lat="47.453211" lon="7.732959">
        <ele>400.693693</ele>
        <time>2021-11-14T18:16:53.849Z</time>
      </trkpt>
      <trkpt lat="47.451588" lon="7.733721">
        <ele>394.682618</ele>
        <time>2021-11-14T18:17:10.665Z</time>
      </trkpt>
      <trkpt lat="47.450834" lon="7.734364">
        <ele>388.112971</ele>
        <time>2021-11-14T18:17:18.258Z</time>
      </trkpt>
      <trkpt lat="47.450582" lon="7.734469">
        <ele>386.136825</ele>
        <time>2021-11-14T18:17:20.583Z</time>
      </trkpt>
      <trkpt lat="47.450427" lon="7.734510">
        <ele>384.948323</ele>
        <time>2021-11-14T18:17:21.934Z</time>
      </trkpt>
      <trkpt lat="47.450291" lon="7.734546">
        <ele>383.905484</ele>
        <time>2021-11-14T18:17:23.177Z</time>
      </trkpt>
      <trkpt lat="47.450061" lon="7.734650">
        <ele>382.175000</ele>
        <time>2021-11-14T18:17:25.294Z</time>
      </trkpt>
      <trkpt lat="47.449912" lon="7.734724">
        <ele>381.314894</ele>
        <time>2021-11-14T18:17:26.740Z</time>
      </trkpt>
      <trkpt lat="47.449846" lon="7.734757">
        <ele>380.933646</ele>
        <time>2021-11-14T18:17:27.337Z</time>
      </trkpt>
      <trkpt lat="47.449760" lon="7.734811">
        <ele>380.422373</ele>
        <time>2021-11-14T18:17:28.169Z</time>
      </trkpt>
      <trkpt lat="47.449670" lon="7.734940">
        <ele>379.736499</ele>
        <time>2021-11-14T18:17:29.316Z</time>
      </trkpt>
      <trkpt lat="47.449614" lon="7.735030">
        <ele>379.283924</ele>
        <time>2021-11-14T18:17:30.099Z</time>
      </trkpt>
      <trkpt lat="47.449559" lon="7.735104">
        <ele>378.877024</ele>
        <time>2021-11-14T18:17:30.742Z</time>
      </trkpt>
      <trkpt lat="47.449392" lon="7.735251">
        <ele>377.813526</ele>
        <time>2021-11-14T18:17:32.516Z</time>
      </trkpt>
      <trkpt lat="47.449163" lon="7.735463">
        <ele>376.335091</ele>
        <time>2021-11-14T18:17:34.958Z</time>
      </trkpt>
      <trkpt lat="47.448938" lon="7.735928">
        <ele>374.219225</ele>
        <time>2021-11-14T18:17:38.777Z</time>
      </trkpt>
      <trkpt lat="47.448896" lon="7.736079">
        <ele>373.615025</ele>
        <time>2021-11-14T18:17:39.946Z</time>
      </trkpt>
      <trkpt lat="47.449072" lon="7.736131">
        <ele>372.632890</ele>
        <time>2021-11-14T18:17:41.732Z</time>
      </trkpt>
      <trkpt lat="47.449107" lon="7.736136">
        <ele>372.521655</ele>
        <time>2021-11-14T18:17:42.141Z</time>
      </trkpt>
      <trkpt lat="47.449300" lon="7.736166">
        <ele>372.203815</ele>
        <time>2021-11-14T18:17:44.289Z</time>
      </trkpt>
      <trkpt lat="47.449358" lon="7.736158">
        <ele>372.108409</ele>
        <time>2021-11-14T18:17:44.869Z</time>
      </trkpt>
      <trkpt lat="47.449411" lon="7.736143">
        <ele>372.020029</ele>
        <time>2021-11-14T18:17:45.438Z</time>
      </trkpt>
      <trkpt lat="47.449636" lon="7.736014">
        <ele>371.624792</ele>
        <time>2021-11-14T18:17:48.508Z</time>
      </trkpt>
      <trkpt lat="47.449876" lon="7.735764">
        <ele>371.143984</ele>
        <time>2021-11-14T18:17:51.999Z</time>
      </trkpt>
      <trkpt lat="47.449999" lon="7.735674">
        <ele>370.919220</ele>
        <time>2021-11-14T18:17:53.545Z</time>
      </trkpt>
      <trkpt lat="47.450032" lon="7.735659">
        <ele>370.862677</ele>
        <time>2021-11-14T18:17:53.920Z</time>
      </trkpt>
      <trkpt lat="47.450096" lon="7.735633">
        <ele>370.753973</ele>
        <time>2021-11-14T18:17:54.664Z</time>
      </trkpt>
      <trkpt lat="47.450162" lon="7.735630">
        <ele>370.645826</ele>
        <time>2021-11-14T18:17:55.514Z</time>
      </trkpt>
      <trkpt lat="47.450235" lon="7.735644">
        <ele>370.525264</ele>
        <time>2021-11-14T18:17:56.444Z</time>
      </trkpt>
      <trkpt lat="47.450479" lon="7.735840">
        <ele>370.070484</ele>
        <time>2021-11-14T18:17:59.604Z</time>
      </trkpt>
      <trkpt lat="47.450546" lon="7.735968">
        <ele>369.891211</ele>
        <time>2021-11-14T18:18:00.932Z</time>
      </trkpt>
      <trkpt lat="47.450604" lon="7.736062">
        <ele>369.750277</ele>
        <time>2021-11-14T18:18:01.914Z</time>
      </trkpt>
      <trkpt lat="47.450657" lon="7.736137">
        <ele>369.630132</ele>
        <time>2021-11-14T18:18:02.731Z</time>
      </trkpt>
      <trkpt lat="47.450802" lon="7.736283">
        <ele>369.551387</ele>
        <time>2021-11-14T18:18:04.867Z</time>
      </trkpt>
      <trkpt lat="47.450937" lon="7.736418">
        <ele>369.492458</ele>
        <time>2021-11-14T18:18:06.930Z</time>
      </trkpt>
      <trkpt lat="47.451089" lon="7.736610">
        <ele>369.420173</ele>
        <time>2021-11-14T18:18:09.362Z</time>
      </trkpt>
      <trkpt lat="47.451187" lon="7.736763">
        <ele>369.368643</ele>
        <time>2021-11-14T18:18:11.237Z</time>
      </trkpt>
      <trkpt lat="47.451252" lon="7.736833">
        <ele>369.339567</ele>
        <time>2021-11-14T18:18:12.213Z</time>
      </trkpt>
      <trkpt lat="47.451333" lon="7.736889">
        <ele>369.307234</ele>
        <time>2021-11-14T18:18:13.361Z</time>
      </trkpt>
      <trkpt lat="47.451595" lon="7.736972">
        <ele>369.210346</ele>
        <time>2021-11-14T18:18:17.091Z</time>
      </trkpt>
      <trkpt lat="47.451812" lon="7.737022">
        <ele>369.130932</ele>
        <time>2021-11-14T18:18:20.343Z</time>
      </trkpt>
      <trkpt lat="47.451885" lon="7.737043">
        <ele>369.104041</ele>
        <time>2021-11-14T18:18:21.582Z</time>
      </trkpt>
      <trkpt lat="47.451989" lon="7.737075">
        <ele>369.065629</ele>
        <time>2021-11-14T18:18:23.111Z</time>
      </trkpt>
      <trkpt lat="47.452126" lon="7.737138">
        <ele>369.013750</ele>
        <time>2021-11-14T18:18:25.422Z</time>
      </trkpt>
      <trkpt lat="47.452390" lon="7.737308">
        <ele>369.024563</ele>
        <time>2021-11-14T18:18:30.521Z</time>
      </trkpt>
      <trkpt lat="47.452658" lon="7.737458">
        <ele>369.156948</ele>
        <time>2021-11-14T18:18:35.499Z</time>
      </trkpt>
      <trkpt lat="47.452759" lon="7.737507">
        <ele>369.206056</ele>
        <time>2021-11-14T18:18:37.181Z</time>
      </trkpt>
      <trkpt lat="47.452831" lon="7.737536">
        <ele>369.240530</ele>
        <time>2021-11-14T18:18:38.249Z</time>
      </trkpt>
      <trkpt lat="47.452976" lon="7.737565">
        <ele>369.308129</ele>
        <time>2021-11-14T18:18:41.129Z</time>
      </trkpt>
      <trkpt lat="47.453142" lon="7.737588">
        <ele>369.385155</ele>
        <time>2021-11-14T18:18:43.811Z</time>
      </trkpt>
      <trkpt lat="47.453432" lon="7.737638">
        <ele>369.520040</ele>
        <time>2021-11-14T18:18:49.179Z</time>
      </trkpt>
      <trkpt lat="47.453609" lon="7.737683">
        <ele>369.603012</ele>
        <time>2021-11-14T18:18:51.828Z</time>
      </trkpt>
      <trkpt lat="47.453751" lon="7.737751">
        <ele>369.671968</ele>
        <time>2021-11-14T18:18:54.865Z</time>
      </trkpt>
      <trkpt lat="47.453895" lon="7.737850">
        <ele>369.745332</ele>
        <time>2021-11-14T18:18:56.975Z</time>
      </trkpt>
      <trkpt lat="47.454020" lon="7.737957">
        <ele>369.754743</ele>
        <time>2021-11-14T18:18:59.706Z</time>
      </trkpt>
      <trkpt lat="47.454162" lon="7.738085">
        <ele>369.621977</ele>
        <time>2021-11-14T18:19:02.051Z</time>
      </trkpt>
      <trkpt lat="47.454170" lon="7.738094">
        <ele>369.613952</ele>
        <time>2021-11-14T18:19:02.155Z</time>
      </trkpt>
      <trkpt lat="47.454299" lon="7.738229">
        <ele>369.487786</ele>
        <time>2021-11-14T18:19:04.841Z</time>
      </trkpt>
      <trkpt lat="47.454441" lon="7.738403">
        <ele>369.340561</ele>
        <time>2021-11-14T18:19:07.304Z</time>
      </trkpt>
      <trkpt lat="47.454485" lon="7.738456">
        <ele>369.295255</ele>
        <time>2021-11-14T18:19:07.990Z</time>
      </trkpt>
      <trkpt lat="47.454492" lon="7.738464">
        <ele>369.288192</ele>
        <time>2021-11-14T18:19:08.112Z</time>
      </trkpt>
      <trkpt lat="47.454586" lon="7.738594">
        <ele>369.185446</ele>
        <time>2021-11-14T18:19:10.121Z</time>
      </trkpt>
      <trkpt lat="47.454623" lon="7.738651">
        <ele>369.142791</ele>
        <time>2021-11-14T18:19:10.909Z</time>
      </trkpt>
      <trkpt lat="47.454843" lon="7.738950">
        <ele>368.904249</ele>
        <time>2021-11-14T18:19:14.503Z</time>
      </trkpt>
      <trkpt lat="47.454998" lon="7.739141">
        <ele>368.743177</ele>
        <time>2021-11-14T18:19:16.799Z</time>
      </trkpt>
      <trkpt lat="47.455129" lon="7.739281">
        <ele>368.614142</ele>
        <time>2021-11-14T18:19:18.746Z</time>
      </trkpt>
      <trkpt lat="47.455241" lon="7.739382">
        <ele>368.509414</ele>
        <time>2021-11-14T18:19:20.215Z</time>
      </trkpt>
      <trkpt lat="47.455373" lon="7.739473">
        <ele>368.393143</ele>
        <time>2021-11-14T18:19:21.865Z</time>
      </trkpt>
      <trkpt lat="47.455488" lon="7.739552">
        <ele>368.147960</ele>
        <time>2021-11-14T18:19:23.328Z</time>
      </trkpt>
      <trkpt lat="47.455544" lon="7.739590">
        <ele>367.986673</ele>
        <time>2021-11-14T18:19:24.016Z</time>
      </trkpt>
      <trkpt lat="47.455935" lon="7.739854">
        <ele>366.861521</ele>
        <time>2021-11-14T18:19:28.747Z</time>
      </trkpt>
      <trkpt lat="47.456226" lon="7.740188">
        <ele>365.897278</ele>
        <time>2021-11-14T18:19:32.633Z</time>
      </trkpt>
      <trkpt lat="47.456384" lon="7.740496">
        <ele>365.212984</ele>
        <time>2021-11-14T18:19:35.254Z</time>
      </trkpt>
      <trkpt lat="47.456616" lon="7.741103">
        <ele>363.978840</ele>
        <time>2021-11-14T18:19:40.046Z</time>
      </trkpt>
      <trkpt lat="47.456656" lon="7.741204">
        <ele>363.771665</ele>
        <time>2021-11-14T18:19:40.806Z</time>
      </trkpt>
      <trkpt lat="47.456807" lon="7.741596">
        <ele>363.210549</ele>
        <time>2021-11-14T18:19:43.893Z</time>
      </trkpt>
      <trkpt lat="47.456944" lon="7.741933">
        <ele>362.759867</ele>
        <time>2021-11-14T18:19:46.617Z</time>
      </trkpt>
      <trkpt lat="47.456992" lon="7.742013">
        <ele>362.637281</ele>
        <time>2021-11-14T18:19:47.446Z</time>
      </trkpt>
      <trkpt lat="47.457059" lon="7.742125">
        <ele>362.465887</ele>
        <time>2021-11-14T18:19:48.436Z</time>
      </trkpt>
      <trkpt lat="47.457044" lon="7.742183">
        <ele>362.394715</ele>
        <time>2021-11-14T18:19:48.902Z</time>
      </trkpt>
      <trkpt lat="47.457045" lon="7.742228">
        <ele>362.343111</ele>
        <time>2021-11-14T18:19:49.260Z</time>
      </trkpt>
      <trkpt lat="47.457063" lon="7.742288">
        <ele>362.267879</ele>
        <time>2021-11-14T18:19:49.750Z</time>
      </trkpt>
      <trkpt lat="47.457083" lon="7.742311">
        <ele>362.224934</ele>
        <time>2021-11-14T18:19:50.015Z</time>
      </trkpt>
      <trkpt lat="47.457196" lon="7.742292">
        <ele>362.032155</ele>
        <time>2021-11-14T18:19:51.632Z</time>
      </trkpt>
      <trkpt lat="47.457210" lon="7.742264">
        <ele>361.992242</ele>
        <time>2021-11-14T18:19:51.878Z</time>
      </trkpt>
      <trkpt lat="47.457311" lon="7.742284">
        <ele>361.819511</ele>
        <time>2021-11-14T18:19:52.934Z</time>
      </trkpt>
      <trkpt lat="47.457445" lon="7.742311">
        <ele>361.590270</ele>
        <time>2021-11-14T18:19:54.483Z</time>
      </trkpt>
      <trkpt lat="47.458000" lon="7.742302">
        <ele>360.649438</ele>
        <time>2021-11-14T18:20:01.940Z</time>
      </trkpt>
      <trkpt lat="47.458517" lon="7.742270">
        <ele>360.812016</ele>
        <time>2021-11-14T18:20:10.577Z</time>
      </trkpt>
      <trkpt lat="47.458665" lon="7.742312">
        <ele>360.878282</ele>
        <time>2021-11-14T18:20:13.411Z</time>
      </trkpt>
      <trkpt lat="47.458962" lon="7.742321">
        <ele>361.008909</ele>
        <time>2021-11-14T18:20:18.813Z</time>
      </trkpt>
      <trkpt lat="47.459071" lon="7.742404">
        <ele>361.062818</ele>
        <time>2021-11-14T18:20:20.673Z</time>
      </trkpt>
      <trkpt lat="47.459104" lon="7.742436">
        <ele>361.080170</ele>
        <time>2021-11-14T18:20:22.073Z</time>
      </trkpt>
      <trkpt lat="47.459181" lon="7.742476">
        <ele>361.116057</ele>
        <time>2021-11-14T18:20:23.484Z</time>
      </trkpt>
      <trkpt lat="47.459214" lon="7.742435">
        <ele>361.135008</ele>
        <time>2021-11-14T18:20:24.006Z</time>
      </trkpt>
      <trkpt lat="47.459352" lon="7.742262">
        <ele>361.214556</ele>
        <time>2021-11-14T18:20:27.041Z</time>
      </trkpt>
      <trkpt lat="47.459421" lon="7.742151">
        <ele>361.259385</ele>
        <time>2021-11-14T18:20:29.523Z</time>
      </trkpt>
      <trkpt lat="47.459496" lon="7.742033">
        <ele>361.307534</ele>
        <time>2021-11-14T18:20:31.132Z</time>
      </trkpt>
      <trkpt lat="47.459941" lon="7.741395">
        <ele>360.937484</ele>
        <time>2021-11-14T18:20:40.867Z</time>
      </trkpt>
      <trkpt lat="47.459971" lon="7.741305">
        <ele>360.867103</ele>
        <time>2021-11-14T18:20:41.622Z</time>
      </trkpt>
      <trkpt lat="47.460198" lon="7.741001">
        <ele>360.549420</ele>
        <time>2021-11-14T18:20:45.389Z</time>
      </trkpt>
      <trkpt lat="47.460674" lon="7.740345">
        <ele>359.874473</ele>
        <time>2021-11-14T18:20:52.633Z</time>
      </trkpt>
      <trkpt lat="47.460849" lon="7.740105">
        <ele>359.626893</ele>
        <time>2021-11-14T18:20:55.430Z</time>
      </trkpt>
      <trkpt lat="47.460986" lon="7.739937">
        <ele>359.419971</ele>
        <time>2021-11-14T18:20:57.399Z</time>
      </trkpt>
      <trkpt lat="47.461070" lon="7.739839">
        <ele>359.278255</ele>
        <time>2021-11-14T18:20:58.657Z</time>
      </trkpt>
      <trkpt lat="47.461511" lon="7.739436">
        <ele>358.591597</ele>
        <time>2021-11-14T18:21:04.580Z</time>
      </trkpt>
      <trkpt lat="47.461764" lon="7.739271">
        <ele>358.225336</ele>
        <time>2021-11-14T18:21:07.918Z</time>
      </trkpt>
      <trkpt lat="47.462058" lon="7.739121">
        <ele>357.813379</ele>
        <time>2021-11-14T18:21:11.575Z</time>
      </trkpt>
      <trkpt lat="47.462257" lon="7.739044">
        <ele>357.540908</ele>
        <time>2021-11-14T18:21:13.931Z</time>
      </trkpt>
      <trkpt lat="47.462428" lon="7.738996">
        <ele>357.310355</ele>
        <time>2021-11-14T18:21:16.174Z</time>
      </trkpt>
      <trkpt lat="47.462754" lon="7.738927">
        <ele>356.875986</ele>
        <time>2021-11-14T18:21:20.272Z</time>
      </trkpt>
      <trkpt lat="47.464246" lon="7.738800">
        <ele>354.910189</ele>
        <time>2021-11-14T18:21:37.698Z</time>
      </trkpt>
      <trkpt lat="47.464525" lon="7.738789">
        <ele>354.501129</ele>
        <time>2021-11-14T18:21:40.959Z</time>
      </trkpt>
      <trkpt lat="47.464818" lon="7.738771">
        <ele>354.045462</ele>
        <time>2021-11-14T18:21:44.366Z</time>
      </trkpt>
      <trkpt lat="47.465111" lon="7.738724">
        <ele>353.587518</ele>
        <time>2021-11-14T18:21:47.816Z</time>
      </trkpt>
      <trkpt lat="47.465278" lon="7.738667">
        <ele>353.321208</ele>
        <time>2021-11-14T18:21:49.782Z</time>
      </trkpt>
      <trkpt lat="47.466017" lon="7.738617">
        <ele>352.171721</ele>
        <time>2021-11-14T18:21:58.210Z</time>
      </trkpt>
      <trkpt lat="47.466070" lon="7.738615">
        <ele>352.089340</ele>
        <time>2021-11-14T18:21:58.809Z</time>
      </trkpt>
      <trkpt lat="47.466320" lon="7.738600">
        <ele>351.605373</ele>
        <time>2021-11-14T18:22:01.550Z</time>
      </trkpt>
      <trkpt lat="47.467080" lon="7.738726">
        <ele>350.011695</ele>
        <time>2021-11-14T18:22:09.924Z</time>
      </trkpt>
      <trkpt lat="47.467174" lon="7.738757">
        <ele>349.811000</ele>
        <time>2021-11-14T18:22:10.965Z</time>
      </trkpt>
      <trkpt lat="47.467405" lon="7.738857">
        <ele>349.309430</ele>
        <time>2021-11-14T18:22:13.559Z</time>
      </trkpt>
      <trkpt lat="47.467978" lon="7.739203">
        <ele>348.006450</ele>
        <time>2021-11-14T18:22:20.201Z</time>
      </trkpt>
      <trkpt lat="47.470256" lon="7.740990">
        <ele>342.801404</ele>
        <time>2021-11-14T18:22:48.075Z</time>
      </trkpt>
      <trkpt lat="47.470851" lon="7.741453">
        <ele>341.697626</ele>
        <time>2021-11-14T18:22:55.820Z</time>
      </trkpt>
      <trkpt lat="47.472097" lon="7.742408">
        <ele>340.823545</ele>
        <time>2021-11-14T18:23:14.378Z</time>
      </trkpt>
      <trkpt lat="47.472647" lon="7.742849">
        <ele>340.568662</ele>
        <time>2021-11-14T18:23:23.523Z</time>
      </trkpt>
      <trkpt lat="47.472975" lon="7.743113">
        <ele>340.466576</ele>
        <time>2021-11-14T18:23:28.842Z</time>
      </trkpt>
      <trkpt lat="47.473017" lon="7.743146">
        <ele>340.453836</ele>
        <time>2021-11-14T18:23:29.523Z</time>
      </trkpt>
      <trkpt lat="47.473167" lon="7.743264">
        <ele>340.408322</ele>
        <time>2021-11-14T18:23:31.963Z</time>
      </trkpt>
      <trkpt lat="47.474415" lon="7.744233">
        <ele>339.924319</ele>
        <time>2021-11-14T18:23:51.720Z</time>
      </trkpt>
      <trkpt lat="47.474802" lon="7.744534">
        <ele>339.558314</ele>
        <time>2021-11-14T18:23:57.038Z</time>
      </trkpt>
      <trkpt lat="47.474825" lon="7.744552">
        <ele>339.536532</ele>
        <time>2021-11-14T18:23:57.308Z</time>
      </trkpt>
      <trkpt lat="47.474911" lon="7.744614">
        <ele>339.456448</ele>
        <time>2021-11-14T18:23:58.320Z</time>
      </trkpt>
      <trkpt lat="47.474874" lon="7.744750">
        <ele>339.373497</ele>
        <time>2021-11-14T18:23:59.360Z</time>
      </trkpt>
      <trkpt lat="47.474864" lon="7.744784">
        <ele>339.352516</ele>
        <time>2021-11-14T18:24:00.086Z</time>
      </trkpt>
      <trkpt lat="47.474823" lon="7.744923">
        <ele>339.266705</ele>
        <time>2021-11-14T18:24:01.911Z</time>
      </trkpt>
      <trkpt lat="47.474919" lon="7.745031">
        <ele>339.165747</ele>
        <time>2021-11-14T18:24:03.111Z</time>
      </trkpt>
      <trkpt lat="47.475120" lon="7.745213">
        <ele>338.968474</ele>
        <time>2021-11-14T18:24:05.978Z</time>
      </trkpt>
      <trkpt lat="47.475272" lon="7.745333">
        <ele>338.824250</ele>
        <time>2021-11-14T18:24:07.764Z</time>
      </trkpt>
      <trkpt lat="47.475322" lon="7.745366">
        <ele>338.778418</ele>
        <time>2021-11-14T18:24:08.297Z</time>
      </trkpt>
      <trkpt lat="47.476180" lon="7.745640">
        <ele>339.670157</ele>
        <time>2021-11-14T18:24:24.746Z</time>
      </trkpt>
      <trkpt lat="47.476180" lon="7.745640">
        <ele>339.670157</ele>
        <time>2021-11-14T18:24:24.753Z</time>
      </trkpt>
      <trkpt lat="47.476292" lon="7.745741">
        <ele>339.896372</ele>
        <time>2021-11-14T18:24:27.866Z</time>
      </trkpt>
      <trkpt lat="47.476354" lon="7.745912">
        <ele>340.122575</ele>
        <time>2021-11-14T18:24:31.036Z</time>
      </trkpt>
      <trkpt lat="47.476362" lon="7.746087">
        <ele>340.327037</ele>
        <time>2021-11-14T18:24:33.645Z</time>
      </trkpt>
      <trkpt lat="47.476334" lon="7.746151">
        <ele>340.415907</ele>
        <time>2021-11-14T18:24:35.401Z</time>
      </trkpt>
      <trkpt lat="47.476298" lon="7.746210">
        <ele>340.508562</ele>
        <time>2021-11-14T18:24:36.898Z</time>
      </trkpt>
      <trkpt lat="47.476172" lon="7.746455">
        <ele>340.867432</ele>
        <time>2021-11-14T18:24:41.949Z</time>
      </trkpt>
      <trkpt lat="47.475970" lon="7.746912">
        <ele>341.503958</ele>
        <time>2021-11-14T18:24:52.446Z</time>
      </trkpt>
      <trkpt lat="47.475711" lon="7.747426">
        <ele>341.867130</ele>
        <time>2021-11-14T18:25:02.985Z</time>
      </trkpt>
      <trkpt lat="47.475491" lon="7.747847">
        <ele>342.072358</ele>
        <time>2021-11-14T18:25:10.481Z</time>
      </trkpt>
      <trkpt lat="47.475204" lon="7.748388">
        <ele>342.337588</ele>
        <time>2021-11-14T18:25:19.148Z</time>
      </trkpt>
      <trkpt lat="47.475083" lon="7.748631">
        <ele>342.453989</ele>
        <time>2021-11-14T18:25:23.051Z</time>
      </trkpt>
      <trkpt lat="47.474983" lon="7.748830">
        <ele>342.549622</ele>
        <time>2021-11-14T18:25:24.897Z</time>
      </trkpt>
      <trkpt lat="47.474890" lon="7.749015">
        <ele>342.638539</ele>
        <time>2021-11-14T18:25:27.003Z</time>
      </trkpt>
      <trkpt lat="47.474792" lon="7.749258">
        <ele>342.516425</ele>
        <time>2021-11-14T18:25:29.024Z</time>
      </trkpt>
      <trkpt lat="47.474380" lon="7.750216">
        <ele>340.663773</ele>
        <time>2021-11-14T18:25:36.781Z</time>
      </trkpt>
      <trkpt lat="47.474210" lon="7.750680">
        <ele>339.802637</ele>
        <time>2021-11-14T18:25:41.841Z</time>
      </trkpt>
      <trkpt lat="47.473427" lon="7.752386">
        <ele>338.169345</ele>
        <time>2021-11-14T18:26:04.831Z</time>
      </trkpt>
      <trkpt lat="47.473203" lon="7.752832">
        <ele>338.078698</ele>
        <time>2021-11-14T18:26:13.306Z</time>
      </trkpt>
      <trkpt lat="47.472651" lon="7.754010">
        <ele>338.290523</ele>
        <time>2021-11-14T18:26:36.133Z</time>
      </trkpt>
      <trkpt lat="47.472617" lon="7.754082">
        <ele>338.353395</ele>
        <time>2021-11-14T18:26:37.592Z</time>
      </trkpt>
      <trkpt lat="47.472425" lon="7.754488">
        <ele>338.708094</ele>
        <time>2021-11-14T18:26:45.692Z</time>
      </trkpt>
      <trkpt lat="47.472317" lon="7.754716">
        <ele>338.907392</ele>
        <time>2021-11-14T18:26:50.256Z</time>
      </trkpt>
      <trkpt lat="47.472173" lon="7.754994">
        <ele>339.158110</ele>
        <time>2021-11-14T18:26:55.982Z</time>
      </trkpt>
      <trkpt lat="47.471952" lon="7.755502">
        <ele>339.590567</ele>
        <time>2021-11-14T18:27:06.123Z</time>
      </trkpt>
      <trkpt lat="47.471870" lon="7.755689">
        <ele>339.750132</ele>
        <time>2021-11-14T18:27:09.986Z</time>
      </trkpt>
      <trkpt lat="47.471363" lon="7.756755">
        <ele>340.769013</ele>
        <time>2021-11-14T18:27:32.852Z</time>
      </trkpt>
      <trkpt lat="47.471191" lon="7.757108">
        <ele>341.111939</ele>
        <time>2021-11-14T18:27:40.321Z</time>
      </trkpt>
      <trkpt lat="47.470644" lon="7.758233">
        <ele>342.261061</ele>
        <time>2021-11-14T18:28:02.495Z</time>
      </trkpt>
      <trkpt lat="47.470419" lon="7.758788">
        <ele>342.876915</ele>
        <time>2021-11-14T18:28:13.191Z</time>
      </trkpt>
      <trkpt lat="47.470312" lon="7.758976">
        <ele>343.110791</ele>
        <time>2021-11-14T18:28:17.288Z</time>
      </trkpt>
      <trkpt lat="47.470270" lon="7.759101">
        <ele>343.243629</ele>
        <time>2021-11-14T18:28:19.665Z</time>
      </trkpt>
      <trkpt lat="47.470176" lon="7.759380">
        <ele>343.540284</ele>
        <time>2021-11-14T18:28:25.528Z</time>
      </trkpt>
      <trkpt lat="47.470133" lon="7.759528">
        <ele>343.693584</ele>
        <time>2021-11-14T18:28:28.436Z</time>
      </trkpt>
      <trkpt lat="47.470081" lon="7.759739">
        <ele>343.907306</ele>
        <time>2021-11-14T18:28:32.841Z</time>
      </trkpt>
      <trkpt lat="47.470056" lon="7.759828">
        <ele>343.999023</ele>
        <time>2021-11-14T18:28:34.598Z</time>
      </trkpt>
      <trkpt lat="47.470048" lon="7.759861">
        <ele>344.032385</ele>
        <time>2021-11-14T18:28:35.235Z</time>
      </trkpt>
      <trkpt lat="47.469993" lon="7.760086">
        <ele>344.260072</ele>
        <time>2021-11-14T18:28:39.575Z</time>
      </trkpt>
      <trkpt lat="47.469968" lon="7.760189">
        <ele>344.364218</ele>
        <time>2021-11-14T18:28:41.772Z</time>
      </trkpt>
      <trkpt lat="47.469935" lon="7.760325">
        <ele>344.512040</ele>
        <time>2021-11-14T18:28:44.399Z</time>
      </trkpt>
      <trkpt lat="47.469830" lon="7.760849">
        <ele>345.165278</ele>
        <time>2021-11-14T18:28:54.432Z</time>
      </trkpt>
      <trkpt lat="47.469785" lon="7.761099">
        <ele>345.474498</ele>
        <time>2021-11-14T18:28:58.989Z</time>
      </trkpt>
      <trkpt lat="47.469718" lon="7.761702">
        <ele>346.204895</ele>
        <time>2021-11-14T18:29:08.415Z</time>
      </trkpt>
      <trkpt lat="47.469611" lon="7.762993">
        <ele>347.680116</ele>
        <time>2021-11-14T18:29:28.292Z</time>
      </trkpt>
      <trkpt lat="47.469581" lon="7.764381">
        <ele>348.221395</ele>
        <time>2021-11-14T18:29:45.013Z</time>
      </trkpt>
      <trkpt lat="47.469603" lon="7.765259">
        <ele>348.563849</ele>
        <time>2021-11-14T18:29:53.530Z</time>
      </trkpt>
      <trkpt lat="47.469610" lon="7.765476">
        <ele>348.648525</ele>
        <time>2021-11-14T18:29:55.619Z</time>
      </trkpt>
      <trkpt lat="47.469667" lon="7.767377">
        <ele>349.718692</ele>
        <time>2021-11-14T18:30:16.104Z</time>
      </trkpt>
      <trkpt lat="47.469647" lon="7.767934">
        <ele>350.036485</ele>
        <time>2021-11-14T18:30:23.837Z</time>
      </trkpt>
      <trkpt lat="47.469432" lon="7.769397">
        <ele>352.073737</ele>
        <time>2021-11-14T18:30:49.611Z</time>
      </trkpt>
      <trkpt lat="47.469109" lon="7.770388">
        <ele>353.769061</ele>
        <time>2021-11-14T18:31:08.812Z</time>
      </trkpt>
      <trkpt lat="47.468958" lon="7.770724">
        <ele>354.280305</ele>
        <time>2021-11-14T18:31:15.202Z</time>
      </trkpt>
      <trkpt lat="47.468811" lon="7.771044">
        <ele>354.189649</ele>
        <time>2021-11-14T18:31:19.727Z</time>
      </trkpt>
      <trkpt lat="47.468805" lon="7.771183">
        <ele>354.157012</ele>
        <time>2021-11-14T18:31:21.590Z</time>
      </trkpt>
      <trkpt lat="47.468826" lon="7.771365">
        <ele>354.113750</ele>
        <time>2021-11-14T18:31:23.398Z</time>
      </trkpt>
      <trkpt lat="47.468873" lon="7.771700">
        <ele>354.033580</ele>
        <time>2021-11-14T18:31:27.140Z</time>
      </trkpt>
      <trkpt lat="47.468967" lon="7.772389">
        <ele>353.868880</ele>
        <time>2021-11-14T18:31:33.256Z</time>
      </trkpt>
      <trkpt lat="47.468989" lon="7.772749">
        <ele>353.784182</ele>
        <time>2021-11-14T18:31:36.270Z</time>
      </trkpt>
      <trkpt lat="47.468986" lon="7.773126">
        <ele>353.695838</ele>
        <time>2021-11-14T18:31:38.972Z</time>
      </trkpt>
      <trkpt lat="47.468932" lon="7.773715">
        <ele>353.091133</ele>
        <time>2021-11-14T18:31:43.144Z</time>
      </trkpt>
      <trkpt lat="47.468600" lon="7.776294">
        <ele>350.931969</ele>
        <time>2021-11-14T18:32:03.052Z</time>
      </trkpt>
      <trkpt lat="47.468501" lon="7.776957">
        <ele>351.544374</ele>
        <time>2021-11-14T18:32:11.401Z</time>
      </trkpt>
      <trkpt lat="47.468193" lon="7.778169">
        <ele>352.712227</ele>
        <time>2021-11-14T18:32:32.197Z</time>
      </trkpt>
      <trkpt lat="47.468174" lon="7.778263">
        <ele>352.800719</ele>
        <time>2021-11-14T18:32:34.415Z</time>
      </trkpt>
      <trkpt lat="47.468054" lon="7.778980">
        <ele>354.426223</ele>
        <time>2021-11-14T18:32:49.316Z</time>
      </trkpt>
      <trkpt lat="47.467858" lon="7.780201">
        <ele>357.549159</ele>
        <time>2021-11-14T18:33:14.962Z</time>
      </trkpt>
      <trkpt lat="47.467837" lon="7.780341">
        <ele>357.906022</ele>
        <time>2021-11-14T18:33:18.398Z</time>
      </trkpt>
      <trkpt lat="47.467673" lon="7.781405">
        <ele>360.266874</ele>
        <time>2021-11-14T18:33:40.558Z</time>
      </trkpt>
      <trkpt lat="47.467411" lon="7.782717">
        <ele>362.551635</ele>
        <time>2021-11-14T18:34:04.342Z</time>
      </trkpt>
      <trkpt lat="47.467374" lon="7.782864">
        <ele>362.813604</ele>
        <time>2021-11-14T18:34:06.620Z</time>
      </trkpt>
      <trkpt lat="47.467308" lon="7.783125">
        <ele>363.278997</ele>
        <time>2021-11-14T18:34:10.386Z</time>
      </trkpt>
      <trkpt lat="47.467275" lon="7.783266">
        <ele>363.528194</ele>
        <time>2021-11-14T18:34:12.615Z</time>
      </trkpt>
      <trkpt lat="47.467114" lon="7.784127">
        <ele>364.400064</ele>
        <time>2021-11-14T18:34:23.905Z</time>
      </trkpt>
      <trkpt lat="47.467074" lon="7.784580">
        <ele>364.705421</ele>
        <time>2021-11-14T18:34:29.782Z</time>
      </trkpt>
      <trkpt lat="47.467092" lon="7.784779">
        <ele>364.839618</ele>
        <time>2021-11-14T18:34:32.218Z</time>
      </trkpt>
      <trkpt lat="47.467119" lon="7.785066">
        <ele>365.033297</ele>
        <time>2021-11-14T18:34:35.834Z</time>
      </trkpt>
      <trkpt lat="47.467094" lon="7.785323">
        <ele>365.206846</ele>
        <time>2021-11-14T18:34:39.010Z</time>
      </trkpt>
      <trkpt lat="47.466956" lon="7.786579">
        <ele>366.063003</ele>
        <time>2021-11-14T18:34:54.241Z</time>
      </trkpt>
      <trkpt lat="47.466949" lon="7.786640">
        <ele>366.105154</ele>
        <time>2021-11-14T18:34:55.255Z</time>
      </trkpt>
      <trkpt lat="47.466939" lon="7.786723">
        <ele>366.162590</ele>
        <time>2021-11-14T18:34:56.354Z</time>
      </trkpt>
      <trkpt lat="47.466734" lon="7.788459">
        <ele>367.363167</ele>
        <time>2021-11-14T18:35:20.224Z</time>
      </trkpt>
      <trkpt lat="47.466719" lon="7.788592">
        <ele>367.455027</ele>
        <time>2021-11-14T18:35:21.524Z</time>
      </trkpt>
      <trkpt lat="47.466603" lon="7.789598">
        <ele>367.628204</ele>
        <time>2021-11-14T18:35:33.379Z</time>
      </trkpt>
      <trkpt lat="47.466514" lon="7.790156">
        <ele>367.662912</ele>
        <time>2021-11-14T18:35:38.790Z</time>
      </trkpt>
      <trkpt lat="47.466432" lon="7.790596">
        <ele>367.690543</ele>
        <time>2021-11-14T18:35:43.210Z</time>
      </trkpt>
      <trkpt lat="47.466412" lon="7.790700">
        <ele>367.697089</ele>
        <time>2021-11-14T18:35:43.979Z</time>
      </trkpt>
      <trkpt lat="47.466109" lon="7.792088">
        <ele>367.929529</ele>
        <time>2021-11-14T18:35:58.746Z</time>
      </trkpt>
      <trkpt lat="47.465907" lon="7.792914">
        <ele>368.145680</ele>
        <time>2021-11-14T18:36:07.154Z</time>
      </trkpt>
      <trkpt lat="47.465839" lon="7.793005">
        <ele>368.179059</ele>
        <time>2021-11-14T18:36:10.029Z</time>
      </trkpt>
      <trkpt lat="47.465607" lon="7.794086">
        <ele>368.615533</ele>
        <time>2021-11-14T18:36:28.302Z</time>
      </trkpt>
      <trkpt lat="47.465510" lon="7.794776">
        <ele>369.208361</ele>
        <time>2021-11-14T18:36:39.654Z</time>
      </trkpt>
      <trkpt lat="47.465496" lon="7.795149">
        <ele>369.522604</ele>
        <time>2021-11-14T18:36:46.901Z</time>
      </trkpt>
      <trkpt lat="47.465496" lon="7.795371">
        <ele>369.709346</ele>
        <time>2021-11-14T18:36:50.253Z</time>
      </trkpt>
      <trkpt lat="47.465480" lon="7.796373">
        <ele>370.552441</ele>
        <time>2021-11-14T18:37:07.554Z</time>
      </trkpt>
      <trkpt lat="47.465410" lon="7.796884">
        <ele>371.109914</ele>
        <time>2021-11-14T18:37:16.792Z</time>
      </trkpt>
      <trkpt lat="47.465256" lon="7.797400">
        <ele>371.741111</ele>
        <time>2021-11-14T18:37:26.936Z</time>
      </trkpt>
      <trkpt lat="47.464835" lon="7.798369">
        <ele>373.030103</ele>
        <time>2021-11-14T18:37:47.999Z</time>
      </trkpt>
      <trkpt lat="47.464712" lon="7.798976">
        <ele>373.730879</ele>
        <time>2021-11-14T18:37:59.919Z</time>
      </trkpt>
      <trkpt lat="47.464730" lon="7.799511">
        <ele>374.292041</ele>
        <time>2021-11-14T18:38:09.906Z</time>
      </trkpt>
      <trkpt lat="47.464989" lon="7.800859">
        <ele>375.760135</ele>
        <time>2021-11-14T18:38:34.502Z</time>
      </trkpt>
      <trkpt lat="47.465048" lon="7.801503">
        <ele>376.437487</ele>
        <time>2021-11-14T18:38:45.432Z</time>
      </trkpt>
      <trkpt lat="47.465028" lon="7.802107">
        <ele>377.022530</ele>
        <time>2021-11-14T18:38:57.052Z</time>
      </trkpt>
      <trkpt lat="47.464816" lon="7.803453">
        <ele>378.359602</ele>
        <time>2021-11-14T18:39:21.926Z</time>
      </trkpt>
      <trkpt lat="47.464763" lon="7.803640">
        <ele>378.555773</ele>
        <time>2021-11-14T18:39:25.616Z</time>
      </trkpt>
      <trkpt lat="47.464755" lon="7.803732">
        <ele>378.645512</ele>
        <time>2021-11-14T18:39:27.328Z</time>
      </trkpt>
      <trkpt lat="47.464724" lon="7.803957">
        <ele>378.867665</ele>
        <time>2021-11-14T18:39:30.596Z</time>
      </trkpt>
      <trkpt lat="47.464718" lon="7.804029">
        <ele>378.937850</ele>
        <time>2021-11-14T18:39:31.867Z</time>
      </trkpt>
      <trkpt lat="47.464711" lon="7.804133">
        <ele>378.961790</ele>
        <time>2021-11-14T18:39:33.701Z</time>
      </trkpt>
      <trkpt lat="47.464713" lon="7.804693">
        <ele>378.900936</ele>
        <time>2021-11-14T18:39:42.312Z</time>
      </trkpt>
      <trkpt lat="47.464714" lon="7.804918">
        <ele>378.876485</ele>
        <time>2021-11-14T18:39:45.474Z</time>
      </trkpt>
      <trkpt lat="47.464710" lon="7.804986">
        <ele>378.869068</ele>
        <time>2021-11-14T18:39:46.676Z</time>
      </trkpt>
      <trkpt lat="47.464714" lon="7.805162">
        <ele>378.849932</ele>
        <time>2021-11-14T18:39:49.079Z</time>
      </trkpt>
      <trkpt lat="47.464699" lon="7.805440">
        <ele>378.819627</ele>
        <time>2021-11-14T18:39:53.055Z</time>
      </trkpt>
      <trkpt lat="47.463946" lon="7.807355">
        <ele>378.230801</ele>
        <time>2021-11-14T18:40:19.004Z</time>
      </trkpt>
      <trkpt lat="47.463774" lon="7.807640">
        <ele>378.047025</ele>
        <time>2021-11-14T18:40:23.556Z</time>
      </trkpt>
      <trkpt lat="47.463425" lon="7.807905">
        <ele>377.767890</ele>
        <time>2021-11-14T18:40:30.849Z</time>
      </trkpt>
      <trkpt lat="47.463389" lon="7.807924">
        <ele>377.740693</ele>
        <time>2021-11-14T18:40:31.418Z</time>
      </trkpt>
      <trkpt lat="47.463328" lon="7.808001">
        <ele>377.683633</ele>
        <time>2021-11-14T18:40:33.026Z</time>
      </trkpt>
      <trkpt lat="47.463234" lon="7.808119">
        <ele>377.595908</ele>
        <time>2021-11-14T18:40:35.310Z</time>
      </trkpt>
      <trkpt lat="47.463139" lon="7.808153">
        <ele>377.526361</ele>
        <time>2021-11-14T18:40:36.858Z</time>
      </trkpt>
      <trkpt lat="47.463084" lon="7.808172">
        <ele>377.486173</ele>
        <time>2021-11-14T18:40:37.475Z</time>
      </trkpt>
      <trkpt lat="47.463004" lon="7.808201">
        <ele>377.427566</ele>
        <time>2021-11-14T18:40:38.740Z</time>
      </trkpt>
      <trkpt lat="47.462189" lon="7.808427">
        <ele>377.395361</ele>
        <time>2021-11-14T18:40:50.091Z</time>
      </trkpt>
      <trkpt lat="47.462087" lon="7.808494">
        <ele>377.394613</ele>
        <time>2021-11-14T18:40:52.139Z</time>
      </trkpt>
      <trkpt lat="47.462185" lon="7.808547">
        <ele>377.393914</ele>
        <time>2021-11-14T18:40:53.504Z</time>
      </trkpt>
      <trkpt lat="47.462552" lon="7.808850">
        <ele>377.391096</ele>
        <time>2021-11-14T18:41:00.562Z</time>
      </trkpt>
      <trkpt lat="47.462735" lon="7.809002">
        <ele>377.389689</ele>
        <time>2021-11-14T18:41:03.960Z</time>
      </trkpt>
      <trkpt lat="47.462879" lon="7.809121">
        <ele>377.390948</ele>
        <time>2021-11-14T18:41:06.371Z</time>
      </trkpt>
      <trkpt lat="47.462918" lon="7.809150">
        <ele>377.417593</ele>
        <time>2021-11-14T18:41:06.872Z</time>
      </trkpt>
      <trkpt lat="47.463007" lon="7.809215">
        <ele>377.478180</ele>
        <time>2021-11-14T18:41:08.688Z</time>
      </trkpt>
      <trkpt lat="47.462926" lon="7.809392">
        <ele>377.566383</ele>
        <time>2021-11-14T18:41:11.657Z</time>
      </trkpt>
      <trkpt lat="47.462773" lon="7.809839">
        <ele>377.773142</ele>
        <time>2021-11-14T18:41:19.150Z</time>
      </trkpt>
      <trkpt lat="47.462720" lon="7.810020">
        <ele>377.854541</ele>
        <time>2021-11-14T18:41:22.059Z</time>
      </trkpt>
      <trkpt lat="47.462665" lon="7.810186">
        <ele>377.930830</ele>
        <time>2021-11-14T18:41:24.800Z</time>
      </trkpt>
      <trkpt lat="47.462504" lon="7.810674">
        <ele>378.154915</ele>
        <time>2021-11-14T18:41:33.216Z</time>
      </trkpt>
      <trkpt lat="47.462316" lon="7.811277">
        <ele>378.428944</ele>
        <time>2021-11-14T18:41:43.819Z</time>
      </trkpt>
      <trkpt lat="47.462292" lon="7.811346">
        <ele>378.460967</ele>
        <time>2021-11-14T18:41:45.102Z</time>
      </trkpt>
      <trkpt lat="47.462267" lon="7.811397">
        <ele>378.486956</ele>
        <time>2021-11-14T18:41:46.290Z</time>
      </trkpt>
      <trkpt lat="47.462236" lon="7.811407">
        <ele>378.506025</ele>
        <time>2021-11-14T18:41:47.246Z</time>
      </trkpt>
      <trkpt lat="47.462198" lon="7.811410">
        <ele>378.528896</ele>
        <time>2021-11-14T18:41:48.165Z</time>
      </trkpt>
      <trkpt lat="47.461789" lon="7.811377">
        <ele>378.775070</ele>
        <time>2021-11-14T18:41:58.129Z</time>
      </trkpt>
      <trkpt lat="47.461669" lon="7.812101">
        <ele>379.077962</ele>
        <time>2021-11-14T18:42:08.921Z</time>
      </trkpt>
      <trkpt lat="47.461508" lon="7.813077">
        <ele>379.486171</ele>
        <time>2021-11-14T18:42:23.400Z</time>
      </trkpt>
      <trkpt lat="47.462031" lon="7.813253">
        <ele>380.381992</ele>
        <time>2021-11-14T18:42:35.541Z</time>
      </trkpt>
      <trkpt lat="47.462100" lon="7.813332">
        <ele>380.559198</ele>
        <time>2021-11-14T18:42:37.413Z</time>
      </trkpt>
      <trkpt lat="47.462091" lon="7.813502">
        <ele>380.793328</ele>
        <time>2021-11-14T18:42:40.419Z</time>
      </trkpt>
      <trkpt lat="47.461799" lon="7.814690">
        <ele>382.528946</ele>
        <time>2021-11-14T18:43:04.456Z</time>
      </trkpt>
      <trkpt lat="47.461270" lon="7.815892">
        <ele>385.308061</ele>
        <time>2021-11-14T18:43:40.240Z</time>
      </trkpt>
      <trkpt lat="47.460971" lon="7.816845">
        <ele>387.664809</ele>
        <time>2021-11-14T18:44:10.486Z</time>
      </trkpt>
      <trkpt lat="47.460728" lon="7.817819">
        <ele>388.565917</ele>
        <time>2021-11-14T18:44:26.008Z</time>
      </trkpt>
      <trkpt lat="47.460671" lon="7.818440">
        <ele>387.480344</ele>
        <time>2021-11-14T18:44:32.534Z</time>
      </trkpt>
      <trkpt lat="47.460667" lon="7.818652">
        <ele>387.112971</ele>
        <time>2021-11-14T18:44:34.932Z</time>
      </trkpt>
      <trkpt lat="47.460693" lon="7.818790">
        <ele>386.864818</ele>
        <time>2021-11-14T18:44:36.222Z</time>
      </trkpt>
      <trkpt lat="47.460742" lon="7.818922">
        <ele>386.603968</ele>
        <time>2021-11-14T18:44:37.729Z</time>
      </trkpt>
      <trkpt lat="47.460786" lon="7.818959">
        <ele>386.474291</ele>
        <time>2021-11-14T18:44:38.196Z</time>
      </trkpt>
      <trkpt lat="47.460884" lon="7.819043">
        <ele>386.184092</ele>
        <time>2021-11-14T18:44:39.621Z</time>
      </trkpt>
      <trkpt lat="47.461109" lon="7.819145">
        <ele>385.581155</ele>
        <time>2021-11-14T18:44:41.863Z</time>
      </trkpt>
      <trkpt lat="47.461257" lon="7.819178">
        <ele>385.197682</ele>
        <time>2021-11-14T18:44:43.431Z</time>
      </trkpt>
      <trkpt lat="47.461308" lon="7.819175">
        <ele>385.066912</ele>
        <time>2021-11-14T18:44:43.885Z</time>
      </trkpt>
      <trkpt lat="47.461360" lon="7.819102">
        <ele>384.883229</ele>
        <time>2021-11-14T18:44:44.596Z</time>
      </trkpt>
      <trkpt lat="47.461404" lon="7.819154">
        <ele>384.738932</ele>
        <time>2021-11-14T18:44:45.140Z</time>
      </trkpt>
      <trkpt lat="47.461777" lon="7.819314">
        <ele>383.661345</ele>
        <time>2021-11-14T18:44:48.804Z</time>
      </trkpt>
      <trkpt lat="47.461803" lon="7.819336">
        <ele>383.577021</ele>
        <time>2021-11-14T18:44:49.066Z</time>
      </trkpt>
      <trkpt lat="47.461833" lon="7.819386">
        <ele>383.449788</ele>
        <time>2021-11-14T18:44:49.549Z</time>
      </trkpt>
      <trkpt lat="47.461832" lon="7.819582">
        <ele>383.076741</ele>
        <time>2021-11-14T18:44:50.758Z</time>
      </trkpt>
      <trkpt lat="47.461818" lon="7.819635">
        <ele>382.968442</ele>
        <time>2021-11-14T18:44:51.120Z</time>
      </trkpt>
      <trkpt lat="47.461754" lon="7.819910">
        <ele>382.414907</ele>
        <time>2021-11-14T18:44:52.947Z</time>
      </trkpt>
      <trkpt lat="47.461722" lon="7.820179">
        <ele>381.895067</ele>
        <time>2021-11-14T18:44:54.681Z</time>
      </trkpt>
      <trkpt lat="47.461730" lon="7.820282">
        <ele>381.697742</ele>
        <time>2021-11-14T18:44:55.394Z</time>
      </trkpt>
      <trkpt lat="47.461748" lon="7.820387">
        <ele>381.491576</ele>
        <time>2021-11-14T18:44:56.163Z</time>
      </trkpt>
      <trkpt lat="47.461966" lon="7.821681">
        <ele>379.597110</ele>
        <time>2021-11-14T18:45:09.159Z</time>
      </trkpt>
      <trkpt lat="47.461985" lon="7.821867">
        <ele>379.648456</ele>
        <time>2021-11-14T18:45:11.800Z</time>
      </trkpt>
      <trkpt lat="47.461990" lon="7.821930">
        <ele>379.665770</ele>
        <time>2021-11-14T18:45:12.800Z</time>
      </trkpt>
      <trkpt lat="47.462001" lon="7.822109">
        <ele>379.714830</ele>
        <time>2021-11-14T18:45:14.980Z</time>
      </trkpt>
      <trkpt lat="47.462122" lon="7.824085">
        <ele>380.257155</ele>
        <time>2021-11-14T18:45:37.516Z</time>
      </trkpt>
      <trkpt lat="47.462104" lon="7.824385">
        <ele>380.343888</ele>
        <time>2021-11-14T18:45:40.714Z</time>
      </trkpt>
      <trkpt lat="47.462075" lon="7.824560">
        <ele>380.395775</ele>
        <time>2021-11-14T18:45:42.515Z</time>
      </trkpt>
      <trkpt lat="47.462041" lon="7.824554">
        <ele>380.410360</ele>
        <time>2021-11-14T18:45:43.087Z</time>
      </trkpt>
      <trkpt lat="47.461981" lon="7.824592">
        <ele>380.438161</ele>
        <time>2021-11-14T18:45:44.051Z</time>
      </trkpt>
      <trkpt lat="47.461961" lon="7.824632">
        <ele>380.452488</ele>
        <time>2021-11-14T18:45:44.676Z</time>
      </trkpt>
      <trkpt lat="47.461951" lon="7.824677">
        <ele>380.466129</ele>
        <time>2021-11-14T18:45:45.058Z</time>
      </trkpt>
      <trkpt lat="47.461983" lon="7.824803">
        <ele>380.504890</ele>
        <time>2021-11-14T18:45:46.635Z</time>
      </trkpt>
      <trkpt lat="47.462009" lon="7.824828">
        <ele>380.518099</ele>
        <time>2021-11-14T18:45:47.056Z</time>
      </trkpt>
      <trkpt lat="47.462048" lon="7.824839">
        <ele>380.535010</ele>
        <time>2021-11-14T18:45:47.615Z</time>
      </trkpt>
      <trkpt lat="47.462087" lon="7.824826">
        <ele>380.552039</ele>
        <time>2021-11-14T18:45:48.286Z</time>
      </trkpt>
      <trkpt lat="47.462119" lon="7.824792">
        <ele>380.568821</ele>
        <time>2021-11-14T18:45:48.916Z</time>
      </trkpt>
      <trkpt lat="47.462172" lon="7.824876">
        <ele>380.601909</ele>
        <time>2021-11-14T18:45:50.199Z</time>
      </trkpt>
      <trkpt lat="47.462220" lon="7.824965">
        <ele>380.634695</ele>
        <time>2021-11-14T18:45:51.338Z</time>
      </trkpt>
      <trkpt lat="47.462266" lon="7.825058">
        <ele>380.667879</ele>
        <time>2021-11-14T18:45:52.701Z</time>
      </trkpt>
      <trkpt lat="47.462323" lon="7.825177">
        <ele>380.709877</ele>
        <time>2021-11-14T18:45:54.311Z</time>
      </trkpt>
      <trkpt lat="47.462301" lon="7.825212">
        <ele>380.723639</ele>
        <time>2021-11-14T18:45:54.840Z</time>
      </trkpt>
      <trkpt lat="47.462295" lon="7.825350">
        <ele>380.763461</ele>
        <time>2021-11-14T18:45:56.449Z</time>
      </trkpt>
      <trkpt lat="47.462312" lon="7.825390">
        <ele>380.777067</ele>
        <time>2021-11-14T18:45:56.874Z</time>
      </trkpt>
      <trkpt lat="47.462244" lon="7.825463">
        <ele>380.812857</ele>
        <time>2021-11-14T18:45:58.488Z</time>
      </trkpt>
      <trkpt lat="47.462057" lon="7.825761">
        <ele>380.929942</ele>
        <time>2021-11-14T18:46:03.040Z</time>
      </trkpt>
      <trkpt lat="47.461963" lon="7.826038">
        <ele>381.042412</ele>
        <time>2021-11-14T18:46:06.823Z</time>
      </trkpt>
      <trkpt lat="47.461900" lon="7.826316">
        <ele>381.313203</ele>
        <time>2021-11-14T18:46:10.313Z</time>
      </trkpt>
      <trkpt lat="47.461850" lon="7.826816">
        <ele>381.780011</ele>
        <time>2021-11-14T18:46:16.151Z</time>
      </trkpt>
      <trkpt lat="47.461804" lon="7.827389">
        <ele>382.312933</ele>
        <time>2021-11-14T18:46:24.251Z</time>
      </trkpt>
      <trkpt lat="47.461536" lon="7.829345">
        <ele>384.244898</ele>
        <time>2021-11-14T18:46:54.278Z</time>
      </trkpt>
      <trkpt lat="47.461525" lon="7.829524">
        <ele>384.432234</ele>
        <time>2021-11-14T18:46:57.346Z</time>
      </trkpt>
      <trkpt lat="47.461539" lon="7.829782">
        <ele>384.702006</ele>
        <time>2021-11-14T18:47:00.761Z</time>
      </trkpt>
      <trkpt lat="47.461548" lon="7.829918">
        <ele>384.844433</ele>
        <time>2021-11-14T18:47:02.716Z</time>
      </trkpt>
      <trkpt lat="47.461585" lon="7.830158">
        <ele>385.101000</ele>
        <time>2021-11-14T18:47:06.397Z</time>
      </trkpt>
      <trkpt lat="47.461787" lon="7.831158">
        <ele>386.188799</ele>
        <time>2021-11-14T18:47:20.291Z</time>
      </trkpt>
      <trkpt lat="47.461918" lon="7.831668">
        <ele>386.558623</ele>
        <time>2021-11-14T18:47:27.315Z</time>
      </trkpt>
      <trkpt lat="47.462048" lon="7.832204">
        <ele>386.924723</ele>
        <time>2021-11-14T18:47:34.355Z</time>
      </trkpt>
      <trkpt lat="47.462080" lon="7.832335">
        <ele>387.014272</ele>
        <time>2021-11-14T18:47:35.989Z</time>
      </trkpt>
      <trkpt lat="47.462179" lon="7.832744">
        <ele>387.293564</ele>
        <time>2021-11-14T18:47:41.195Z</time>
      </trkpt>
      <trkpt lat="47.462217" lon="7.832953">
        <ele>387.432705</ele>
        <time>2021-11-14T18:47:44.208Z</time>
      </trkpt>
      <trkpt lat="47.462285" lon="7.833721">
        <ele>387.930670</ele>
        <time>2021-11-14T18:47:53.793Z</time>
      </trkpt>
      <trkpt lat="47.462296" lon="7.833933">
        <ele>388.057758</ele>
        <time>2021-11-14T18:47:56.839Z</time>
      </trkpt>
      <trkpt lat="47.462317" lon="7.834216">
        <ele>388.225939</ele>
        <time>2021-11-14T18:48:00.256Z</time>
      </trkpt>
      <trkpt lat="47.462357" lon="7.834782">
        <ele>388.562116</ele>
        <time>2021-11-14T18:48:07.013Z</time>
      </trkpt>
      <trkpt lat="47.462375" lon="7.834910">
        <ele>388.639348</ele>
        <time>2021-11-14T18:48:08.750Z</time>
      </trkpt>
      <trkpt lat="47.462388" lon="7.834991">
        <ele>388.688527</ele>
        <time>2021-11-14T18:48:09.931Z</time>
      </trkpt>
      <trkpt lat="47.462586" lon="7.835900">
        <ele>389.252684</ele>
        <time>2021-11-14T18:48:20.941Z</time>
      </trkpt>
      <trkpt lat="47.462666" lon="7.836201">
        <ele>389.443740</ele>
        <time>2021-11-14T18:48:25.102Z</time>
      </trkpt>
      <trkpt lat="47.462700" lon="7.836337">
        <ele>389.532464</ele>
        <time>2021-11-14T18:48:26.945Z</time>
      </trkpt>
      <trkpt lat="47.462730" lon="7.836472">
        <ele>389.645572</ele>
        <time>2021-11-14T18:48:28.729Z</time>
      </trkpt>
      <trkpt lat="47.462748" lon="7.836556">
        <ele>389.715709</ele>
        <time>2021-11-14T18:48:29.650Z</time>
      </trkpt>
      <trkpt lat="47.462851" lon="7.837404">
        <ele>390.401474</ele>
        <time>2021-11-14T18:48:42.144Z</time>
      </trkpt>
      <trkpt lat="47.462856" lon="7.837506">
        <ele>390.482873</ele>
        <time>2021-11-14T18:48:44.005Z</time>
      </trkpt>
      <trkpt lat="47.462865" lon="7.837711">
        <ele>390.646384</ele>
        <time>2021-11-14T18:48:46.341Z</time>
      </trkpt>
      <trkpt lat="47.462869" lon="7.837866">
        <ele>390.769845</ele>
        <time>2021-11-14T18:48:48.269Z</time>
      </trkpt>
      <trkpt lat="47.462871" lon="7.837954">
        <ele>390.839927</ele>
        <time>2021-11-14T18:48:49.789Z</time>
      </trkpt>
      <trkpt lat="47.462873" lon="7.838016">
        <ele>390.889331</ele>
        <time>2021-11-14T18:48:50.818Z</time>
      </trkpt>
      <trkpt lat="47.462883" lon="7.838488">
        <ele>391.265199</ele>
        <time>2021-11-14T18:48:56.882Z</time>
      </trkpt>
      <trkpt lat="47.462936" lon="7.838934">
        <ele>391.625631</ele>
        <time>2021-11-14T18:49:02.224Z</time>
      </trkpt>
      <trkpt lat="47.462967" lon="7.839047">
        <ele>391.661122</ele>
        <time>2021-11-14T18:49:03.922Z</time>
      </trkpt>
      <trkpt lat="47.462982" lon="7.839106">
        <ele>391.674766</ele>
        <time>2021-11-14T18:49:04.860Z</time>
      </trkpt>
      <trkpt lat="47.463043" lon="7.839292">
        <ele>391.719516</ele>
        <time>2021-11-14T18:49:06.676Z</time>
      </trkpt>
      <trkpt lat="47.463133" lon="7.839561">
        <ele>391.784485</ele>
        <time>2021-11-14T18:49:10.582Z</time>
      </trkpt>
      <trkpt lat="47.463287" lon="7.840028">
        <ele>391.896958</ele>
        <time>2021-11-14T18:49:16.618Z</time>
      </trkpt>
      <trkpt lat="47.463588" lon="7.840904">
        <ele>392.109665</ele>
        <time>2021-11-14T18:49:27.912Z</time>
      </trkpt>
      <trkpt lat="47.463616" lon="7.840992">
        <ele>392.130718</ele>
        <time>2021-11-14T18:49:28.991Z</time>
      </trkpt>
      <trkpt lat="47.463685" lon="7.841203">
        <ele>392.181454</ele>
        <time>2021-11-14T18:49:30.933Z</time>
      </trkpt>
      <trkpt lat="47.463874" lon="7.841863">
        <ele>392.062273</ele>
        <time>2021-11-14T18:49:37.222Z</time>
      </trkpt>
      <trkpt lat="47.463922" lon="7.842123">
        <ele>391.990060</ele>
        <time>2021-11-14T18:49:39.205Z</time>
      </trkpt>
      <trkpt lat="47.463971" lon="7.842355">
        <ele>391.924937</ele>
        <time>2021-11-14T18:49:41.769Z</time>
      </trkpt>
      <trkpt lat="47.464053" lon="7.842690">
        <ele>391.829478</ele>
        <time>2021-11-14T18:49:44.569Z</time>
      </trkpt>
      <trkpt lat="47.464075" lon="7.842774">
        <ele>391.805342</ele>
        <time>2021-11-14T18:49:45.767Z</time>
      </trkpt>
      <trkpt lat="47.464165" lon="7.843130">
        <ele>391.703507</ele>
        <time>2021-11-14T18:49:48.893Z</time>
      </trkpt>
      <trkpt lat="47.464176" lon="7.843178">
        <ele>391.689928</ele>
        <time>2021-11-14T18:49:49.378Z</time>
      </trkpt>
      <trkpt lat="47.464234" lon="7.843434">
        <ele>391.617589</ele>
        <time>2021-11-14T18:49:52.442Z</time>
      </trkpt>
      <trkpt lat="47.464354" lon="7.843960">
        <ele>391.558436</ele>
        <time>2021-11-14T18:49:58.458Z</time>
      </trkpt>
      <trkpt lat="47.464386" lon="7.844088">
        <ele>391.623183</ele>
        <time>2021-11-14T18:49:59.801Z</time>
      </trkpt>
      <trkpt lat="47.464433" lon="7.844273">
        <ele>391.716947</ele>
        <time>2021-11-14T18:50:02.285Z</time>
      </trkpt>
      <trkpt lat="47.464585" lon="7.844988">
        <ele>392.072546</ele>
        <time>2021-11-14T18:50:10.797Z</time>
      </trkpt>
      <trkpt lat="47.464737" lon="7.846119">
        <ele>392.619633</ele>
        <time>2021-11-14T18:50:24.906Z</time>
      </trkpt>
      <trkpt lat="47.464771" lon="7.847028">
        <ele>393.279112</ele>
        <time>2021-11-14T18:50:37.016Z</time>
      </trkpt>
      <trkpt lat="47.464784" lon="7.847333">
        <ele>393.538617</ele>
        <time>2021-11-14T18:50:40.997Z</time>
      </trkpt>
      <trkpt lat="47.464820" lon="7.847644">
        <ele>393.806545</ele>
        <time>2021-11-14T18:50:45.267Z</time>
      </trkpt>
      <trkpt lat="47.464850" lon="7.847870">
        <ele>394.002117</ele>
        <time>2021-11-14T18:50:48.184Z</time>
      </trkpt>
      <trkpt lat="47.464909" lon="7.848219">
        <ele>394.307595</ele>
        <time>2021-11-14T18:50:53.250Z</time>
      </trkpt>
      <trkpt lat="47.464952" lon="7.848443">
        <ele>394.505323</ele>
        <time>2021-11-14T18:50:56.438Z</time>
      </trkpt>
      <trkpt lat="47.465152" lon="7.849351">
        <ele>395.312490</ele>
        <time>2021-11-14T18:51:09.697Z</time>
      </trkpt>
      <trkpt lat="47.465348" lon="7.849875">
        <ele>395.814515</ele>
        <time>2021-11-14T18:51:17.923Z</time>
      </trkpt>
      <trkpt lat="47.465558" lon="7.850405">
        <ele>396.329501</ele>
        <time>2021-11-14T18:51:26.223Z</time>
      </trkpt>
      <trkpt lat="47.465620" lon="7.850585">
        <ele>396.498851</ele>
        <time>2021-11-14T18:51:28.826Z</time>
      </trkpt>
      <trkpt lat="47.465714" lon="7.850917">
        <ele>396.800588</ele>
        <time>2021-11-14T18:51:33.466Z</time>
      </trkpt>
      <trkpt lat="47.465829" lon="7.851383">
        <ele>397.216447</ele>
        <time>2021-11-14T18:51:39.828Z</time>
      </trkpt>
      <trkpt lat="47.465804" lon="7.851399">
        <ele>397.250225</ele>
        <time>2021-11-14T18:51:40.384Z</time>
      </trkpt>
      <trkpt lat="47.465765" lon="7.851501">
        <ele>397.342844</ele>
        <time>2021-11-14T18:51:41.863Z</time>
      </trkpt>
      <trkpt lat="47.465770" lon="7.851542">
        <ele>397.375714</ele>
        <time>2021-11-14T18:51:42.414Z</time>
      </trkpt>
      <trkpt lat="47.465781" lon="7.851575">
        <ele>397.404744</ele>
        <time>2021-11-14T18:51:42.895Z</time>
      </trkpt>
      <trkpt lat="47.465821" lon="7.851619">
        <ele>397.462920</ele>
        <time>2021-11-14T18:51:43.803Z</time>
      </trkpt>
      <trkpt lat="47.465846" lon="7.851625">
        <ele>397.492478</ele>
        <time>2021-11-14T18:51:44.283Z</time>
      </trkpt>
      <trkpt lat="47.465871" lon="7.851620">
        <ele>397.521921</ele>
        <time>2021-11-14T18:51:44.734Z</time>
      </trkpt>
      <trkpt lat="47.465906" lon="7.851776">
        <ele>397.651603</ele>
        <time>2021-11-14T18:51:46.960Z</time>
      </trkpt>
      <trkpt lat="47.466256" lon="7.853287">
        <ele>398.911788</ele>
        <time>2021-11-14T18:52:07.790Z</time>
      </trkpt>
      <trkpt lat="47.466331" lon="7.853936">
        <ele>399.459763</ele>
        <time>2021-11-14T18:52:16.627Z</time>
      </trkpt>
      <trkpt lat="47.466338" lon="7.854554">
        <ele>400.123131</ele>
        <time>2021-11-14T18:52:25.201Z</time>
      </trkpt>
      <trkpt lat="47.466332" lon="7.854775">
        <ele>400.360513</ele>
        <time>2021-11-14T18:52:28.420Z</time>
      </trkpt>
      <trkpt lat="47.466324" lon="7.855062">
        <ele>400.668800</ele>
        <time>2021-11-14T18:52:32.656Z</time>
      </trkpt>
      <trkpt lat="47.466298" lon="7.855895">
        <ele>401.563778</ele>
        <time>2021-11-14T18:52:44.754Z</time>
      </trkpt>
      <trkpt lat="47.466295" lon="7.856234">
        <ele>401.927645</ele>
        <time>2021-11-14T18:52:50.003Z</time>
      </trkpt>
      <trkpt lat="47.466298" lon="7.856354">
        <ele>402.056524</ele>
        <time>2021-11-14T18:52:51.802Z</time>
      </trkpt>
      <trkpt lat="47.466271" lon="7.856363">
        <ele>402.100464</ele>
        <time>2021-11-14T18:52:52.329Z</time>
      </trkpt>
      <trkpt lat="47.466237" lon="7.856421">
        <ele>402.182858</ele>
        <time>2021-11-14T18:52:53.318Z</time>
      </trkpt>
      <trkpt lat="47.466235" lon="7.856461">
        <ele>402.223584</ele>
        <time>2021-11-14T18:52:53.849Z</time>
      </trkpt>
      <trkpt lat="47.466243" lon="7.856497">
        <ele>402.259072</ele>
        <time>2021-11-14T18:52:54.505Z</time>
      </trkpt>
      <trkpt lat="47.466284" lon="7.856540">
        <ele>402.328694</ele>
        <time>2021-11-14T18:52:55.683Z</time>
      </trkpt>
      <trkpt lat="47.466310" lon="7.856541">
        <ele>402.364723</ele>
        <time>2021-11-14T18:52:56.235Z</time>
      </trkpt>
      <trkpt lat="47.466322" lon="7.856655">
        <ele>402.472767</ele>
        <time>2021-11-14T18:52:57.958Z</time>
      </trkpt>
      <trkpt lat="47.466344" lon="7.856945">
        <ele>402.746048</ele>
        <time>2021-11-14T18:53:01.746Z</time>
      </trkpt>
      <trkpt lat="47.466347" lon="7.856973">
        <ele>402.772596</ele>
        <time>2021-11-14T18:53:02.422Z</time>
      </trkpt>
      <trkpt lat="47.466518" lon="7.858022">
        <ele>403.783106</ele>
        <time>2021-11-14T18:53:17.459Z</time>
      </trkpt>
      <trkpt lat="47.466576" lon="7.858236">
        <ele>403.999015</ele>
        <time>2021-11-14T18:53:20.752Z</time>
      </trkpt>
      <trkpt lat="47.466673" lon="7.858620">
        <ele>404.382901</ele>
        <time>2021-11-14T18:53:27.607Z</time>
      </trkpt>
      <trkpt lat="47.466824" lon="7.859137">
        <ele>404.845967</ele>
        <time>2021-11-14T18:53:36.966Z</time>
      </trkpt>
      <trkpt lat="47.466922" lon="7.859398">
        <ele>405.040310</ele>
        <time>2021-11-14T18:53:41.515Z</time>
      </trkpt>
      <trkpt lat="47.467047" lon="7.859682">
        <ele>405.260908</ele>
        <time>2021-11-14T18:53:47.111Z</time>
      </trkpt>
      <trkpt lat="47.467266" lon="7.860107">
        <ele>405.608764</ele>
        <time>2021-11-14T18:53:55.966Z</time>
      </trkpt>
      <trkpt lat="47.467944" lon="7.861300">
        <ele>406.719899</ele>
        <time>2021-11-14T18:54:20.628Z</time>
      </trkpt>
      <trkpt lat="47.468224" lon="7.861805">
        <ele>407.358871</ele>
        <time>2021-11-14T18:54:31.931Z</time>
      </trkpt>
      <trkpt lat="47.468543" lon="7.862357">
        <ele>408.069333</ele>
        <time>2021-11-14T18:54:44.587Z</time>
      </trkpt>
      <trkpt lat="47.468825" lon="7.862900">
        <ele>408.739220</ele>
        <time>2021-11-14T18:54:57.183Z</time>
      </trkpt>
      <trkpt lat="47.468859" lon="7.862978">
        <ele>408.830016</ele>
        <time>2021-11-14T18:54:59.053Z</time>
      </trkpt>
      <trkpt lat="47.468943" lon="7.863195">
        <ele>409.082885</ele>
        <time>2021-11-14T18:55:03.537Z</time>
      </trkpt>
      <trkpt lat="47.468986" lon="7.863323">
        <ele>409.251205</ele>
        <time>2021-11-14T18:55:06.177Z</time>
      </trkpt>
      <trkpt lat="47.469011" lon="7.863405">
        <ele>409.357135</ele>
        <time>2021-11-14T18:55:08.315Z</time>
      </trkpt>
      <trkpt lat="47.469305" lon="7.864692">
        <ele>410.956896</ele>
        <time>2021-11-14T18:55:33.496Z</time>
      </trkpt>
      <trkpt lat="47.469629" lon="7.865918">
        <ele>412.344687</ele>
        <time>2021-11-14T18:55:57.586Z</time>
      </trkpt>
      <trkpt lat="47.469710" lon="7.866208">
        <ele>412.537505</ele>
        <time>2021-11-14T18:56:02.578Z</time>
      </trkpt>
      <trkpt lat="47.469764" lon="7.866452">
        <ele>412.695275</ele>
        <time>2021-11-14T18:56:06.885Z</time>
      </trkpt>
      <trkpt lat="47.469808" lon="7.866690">
        <ele>412.846897</ele>
        <time>2021-11-14T18:56:10.744Z</time>
      </trkpt>
      <trkpt lat="47.469915" lon="7.867494">
        <ele>413.350439</ele>
        <time>2021-11-14T18:56:23.909Z</time>
      </trkpt>
      <trkpt lat="47.470127" lon="7.868484">
        <ele>413.991123</ele>
        <time>2021-11-14T18:56:39.304Z</time>
      </trkpt>
      <trkpt lat="47.470234" lon="7.868884">
        <ele>414.259072</ele>
        <time>2021-11-14T18:56:45.675Z</time>
      </trkpt>
      <trkpt lat="47.470309" lon="7.869201">
        <ele>414.468267</ele>
        <time>2021-11-14T18:56:50.965Z</time>
      </trkpt>
      <trkpt lat="47.470378" lon="7.869626">
        <ele>414.740515</ele>
        <time>2021-11-14T18:56:57.849Z</time>
      </trkpt>
      <trkpt lat="47.470397" lon="7.870147">
        <ele>415.065503</ele>
        <time>2021-11-14T18:57:06.600Z</time>
      </trkpt>
      <trkpt lat="47.470379" lon="7.870338">
        <ele>415.185622</ele>
        <time>2021-11-14T18:57:10.048Z</time>
      </trkpt>
      <trkpt lat="47.470350" lon="7.870570">
        <ele>415.332578</ele>
        <time>2021-11-14T18:57:13.063Z</time>
      </trkpt>
      <trkpt lat="47.470333" lon="7.870669">
        <ele>415.396201</ele>
        <time>2021-11-14T18:57:14.536Z</time>
      </trkpt>
      <trkpt lat="47.470316" lon="7.870753">
        <ele>415.450817</ele>
        <time>2021-11-14T18:57:15.903Z</time>
      </trkpt>
      <trkpt lat="47.470245" lon="7.871088">
        <ele>415.846872</ele>
        <time>2021-11-14T18:57:20.561Z</time>
      </trkpt>
      <trkpt lat="47.470217" lon="7.871214">
        <ele>415.999413</ele>
        <time>2021-11-14T18:57:22.526Z</time>
      </trkpt>
      <trkpt lat="47.470156" lon="7.871491">
        <ele>416.334469</ele>
        <time>2021-11-14T18:57:27.009Z</time>
      </trkpt>
      <trkpt lat="47.469969" lon="7.872276">
        <ele>417.291717</ele>
        <time>2021-11-14T18:57:39.195Z</time>
      </trkpt>
      <trkpt lat="47.469710" lon="7.873249">
        <ele>418.494404</ele>
        <time>2021-11-14T18:57:54.587Z</time>
      </trkpt>
      <trkpt lat="47.469682" lon="7.873326">
        <ele>418.613586</ele>
        <time>2021-11-14T18:57:56.273Z</time>
      </trkpt>
      <trkpt lat="47.469626" lon="7.873477">
        <ele>418.860970</ele>
        <time>2021-11-14T18:57:58.753Z</time>
      </trkpt>
      <trkpt lat="47.469489" lon="7.873809">
        <ele>419.419667</ele>
        <time>2021-11-14T18:58:04.693Z</time>
      </trkpt>
      <trkpt lat="47.469422" lon="7.873965">
        <ele>419.685138</ele>
        <time>2021-11-14T18:58:07.424Z</time>
      </trkpt>
      <trkpt lat="47.469224" lon="7.874328">
        <ele>420.355105</ele>
        <time>2021-11-14T18:58:14.639Z</time>
      </trkpt>
      <trkpt lat="47.469173" lon="7.874432">
        <ele>420.539653</ele>
        <time>2021-11-14T18:58:16.425Z</time>
      </trkpt>
      <trkpt lat="47.469136" lon="7.874516">
        <ele>420.683661</ele>
        <time>2021-11-14T18:58:17.909Z</time>
      </trkpt>
      <trkpt lat="47.469097" lon="7.874606">
        <ele>420.837213</ele>
        <time>2021-11-14T18:58:19.722Z</time>
      </trkpt>
      <trkpt lat="47.469068" lon="7.874689">
        <ele>420.971414</ele>
        <time>2021-11-14T18:58:21.413Z</time>
      </trkpt>
      <trkpt lat="47.469050" lon="7.874738">
        <ele>421.051517</ele>
        <time>2021-11-14T18:58:22.267Z</time>
      </trkpt>
      <trkpt lat="47.468989" lon="7.874967">
        <ele>421.405060</ele>
        <time>2021-11-14T18:58:25.948Z</time>
      </trkpt>
      <trkpt lat="47.468925" lon="7.875205">
        <ele>421.772969</ele>
        <time>2021-11-14T18:58:30.291Z</time>
      </trkpt>
      <trkpt lat="47.468806" lon="7.875696">
        <ele>422.819825</ele>
        <time>2021-11-14T18:58:38.110Z</time>
      </trkpt>
      <trkpt lat="47.468698" lon="7.876140">
        <ele>424.616864</ele>
        <time>2021-11-14T18:58:46.610Z</time>
      </trkpt>
      <trkpt lat="47.468639" lon="7.876439">
        <ele>425.803079</ele>
        <time>2021-11-14T18:58:52.847Z</time>
      </trkpt>
      <trkpt lat="47.468557" lon="7.876917">
        <ele>427.681171</ele>
        <time>2021-11-14T18:59:03.793Z</time>
      </trkpt>
      <trkpt lat="47.468377" lon="7.877826">
        <ele>431.288437</ele>
        <time>2021-11-14T18:59:33.497Z</time>
      </trkpt>
      <trkpt lat="47.468327" lon="7.877957">
        <ele>431.861363</ele>
        <time>2021-11-14T18:59:38.888Z</time>
      </trkpt>
      <trkpt lat="47.468308" lon="7.877998">
        <ele>432.050673</ele>
        <time>2021-11-14T18:59:41.863Z</time>
      </trkpt>
      <trkpt lat="47.468268" lon="7.878083">
        <ele>432.445097</ele>
        <time>2021-11-14T18:59:44.836Z</time>
      </trkpt>
      <trkpt lat="47.468104" lon="7.878354">
        <ele>434.178867</ele>
        <time>2021-11-14T18:59:55.441Z</time>
      </trkpt>
      <trkpt lat="47.468067" lon="7.878427">
        <ele>434.615706</ele>
        <time>2021-11-14T19:00:00.341Z</time>
      </trkpt>
      <trkpt lat="47.467908" lon="7.878819">
        <ele>436.804449</ele>
        <time>2021-11-14T19:00:13.660Z</time>
      </trkpt>
      <trkpt lat="47.467814" lon="7.879126">
        <ele>438.418053</ele>
        <time>2021-11-14T19:00:24.046Z</time>
      </trkpt>
      <trkpt lat="47.467758" lon="7.879308">
        <ele>439.375455</ele>
        <time>2021-11-14T19:00:31.138Z</time>
      </trkpt>
      <trkpt lat="47.467695" lon="7.879712">
        <ele>441.360534</ele>
        <time>2021-11-14T19:00:43.959Z</time>
      </trkpt>
      <trkpt lat="47.467712" lon="7.880819">
        <ele>445.231194</ele>
        <time>2021-11-14T19:01:12.775Z</time>
      </trkpt>
      <trkpt lat="47.467755" lon="7.881902">
        <ele>445.293244</ele>
        <time>2021-11-14T19:01:27.073Z</time>
      </trkpt>
      <trkpt lat="47.467789" lon="7.882188">
        <ele>445.309852</ele>
        <time>2021-11-14T19:01:29.258Z</time>
      </trkpt>
      <trkpt lat="47.467832" lon="7.882502">
        <ele>445.328177</ele>
        <time>2021-11-14T19:01:31.564Z</time>
      </trkpt>
      <trkpt lat="47.467854" lon="7.882590">
        <ele>445.333543</ele>
        <time>2021-11-14T19:01:32.156Z</time>
      </trkpt>
      <trkpt lat="47.468085" lon="7.883534">
        <ele>444.488519</ele>
        <time>2021-11-14T19:01:38.940Z</time>
      </trkpt>
      <trkpt lat="47.468175" lon="7.884477">
        <ele>442.568018</ele>
        <time>2021-11-14T19:01:45.279Z</time>
      </trkpt>
      <trkpt lat="47.468170" lon="7.884753">
        <ele>442.011240</ele>
        <time>2021-11-14T19:01:47.082Z</time>
      </trkpt>
      <trkpt lat="47.468160" lon="7.885131">
        <ele>441.248387</ele>
        <time>2021-11-14T19:01:49.906Z</time>
      </trkpt>
      <trkpt lat="47.468160" lon="7.885412">
        <ele>440.681726</ele>
        <time>2021-11-14T19:01:51.958Z</time>
      </trkpt>
      <trkpt lat="47.468174" lon="7.885724">
        <ele>440.051166</ele>
        <time>2021-11-14T19:01:54.254Z</time>
      </trkpt>
      <trkpt lat="47.468250" lon="7.886308">
        <ele>439.822463</ele>
        <time>2021-11-14T19:01:58.735Z</time>
      </trkpt>
      <trkpt lat="47.468546" lon="7.888014">
        <ele>439.271914</ele>
        <time>2021-11-14T19:02:15.815Z</time>
      </trkpt>
      <trkpt lat="47.468718" lon="7.888938">
        <ele>439.562620</ele>
        <time>2021-11-14T19:02:27.162Z</time>
      </trkpt>
      <trkpt lat="47.468951" lon="7.890216">
        <ele>440.391904</ele>
        <time>2021-11-14T19:02:44.142Z</time>
      </trkpt>
      <trkpt lat="47.469288" lon="7.891996">
        <ele>441.556391</ele>
        <time>2021-11-14T19:03:08.355Z</time>
      </trkpt>
      <trkpt lat="47.469496" lon="7.893085">
        <ele>442.271713</ele>
        <time>2021-11-14T19:03:22.421Z</time>
      </trkpt>
      <trkpt lat="47.469658" lon="7.894567">
        <ele>443.110506</ele>
        <time>2021-11-14T19:03:39.883Z</time>
      </trkpt>
      <trkpt lat="47.469691" lon="7.894970">
        <ele>443.326895</ele>
        <time>2021-11-14T19:03:44.447Z</time>
      </trkpt>
      <trkpt lat="47.469714" lon="7.895204">
        <ele>443.452940</ele>
        <time>2021-11-14T19:03:47.096Z</time>
      </trkpt>
      <trkpt lat="47.469728" lon="7.895384">
        <ele>443.549522</ele>
        <time>2021-11-14T19:03:49.099Z</time>
      </trkpt>
      <trkpt lat="47.469734" lon="7.895575">
        <ele>443.651444</ele>
        <time>2021-11-14T19:03:51.500Z</time>
      </trkpt>
      <trkpt lat="47.469747" lon="7.895922">
        <ele>443.836696</ele>
        <time>2021-11-14T19:03:55.563Z</time>
      </trkpt>
      <trkpt lat="47.469738" lon="7.896220">
        <ele>444.137703</ele>
        <time>2021-11-14T19:04:00.044Z</time>
      </trkpt>
      <trkpt lat="47.469692" lon="7.896826">
        <ele>445.236413</ele>
        <time>2021-11-14T19:04:09.190Z</time>
      </trkpt>
      <trkpt lat="47.469678" lon="7.896938">
        <ele>445.441628</ele>
        <time>2021-11-14T19:04:10.753Z</time>
      </trkpt>
      <trkpt lat="47.469652" lon="7.897139">
        <ele>445.810347</ele>
        <time>2021-11-14T19:04:14.168Z</time>
      </trkpt>
      <trkpt lat="47.469598" lon="7.897405">
        <ele>446.310753</ele>
        <time>2021-11-14T19:04:18.646Z</time>
      </trkpt>
      <trkpt lat="47.469534" lon="7.897638">
        <ele>446.763891</ele>
        <time>2021-11-14T19:04:22.915Z</time>
      </trkpt>
      <trkpt lat="47.469806" lon="7.897795">
        <ele>447.542100</ele>
        <time>2021-11-14T19:04:30.161Z</time>
      </trkpt>
      <trkpt lat="47.469999" lon="7.897879">
        <ele>448.078316</ele>
        <time>2021-11-14T19:04:35.834Z</time>
      </trkpt>
      <trkpt lat="47.471002" lon="7.898222">
        <ele>452.679986</ele>
        <time>2021-11-14T19:05:10.965Z</time>
      </trkpt>
      <trkpt lat="47.471597" lon="7.898344">
        <ele>455.702791</ele>
        <time>2021-11-14T19:05:33.073Z</time>
      </trkpt>
      <trkpt lat="47.471825" lon="7.898370">
        <ele>456.853546</ele>
        <time>2021-11-14T19:05:41.030Z</time>
      </trkpt>
      <trkpt lat="47.471910" lon="7.898392">
        <ele>457.287783</ele>
        <time>2021-11-14T19:05:44.413Z</time>
      </trkpt>
      <trkpt lat="47.473317" lon="7.898945">
        <ele>464.632857</ele>
        <time>2021-11-14T19:06:37.055Z</time>
      </trkpt>
      <trkpt lat="47.473931" lon="7.899567">
        <ele>468.361856</ele>
        <time>2021-11-14T19:07:00.328Z</time>
      </trkpt>
      <trkpt lat="47.474087" lon="7.899774">
        <ele>469.401220</ele>
        <time>2021-11-14T19:07:07.848Z</time>
      </trkpt>
      <trkpt lat="47.474186" lon="7.899915">
        <ele>470.082807</ele>
        <time>2021-11-14T19:07:12.505Z</time>
      </trkpt>
      <trkpt lat="47.474336" lon="7.900125">
        <ele>471.107095</ele>
        <time>2021-11-14T19:07:19.784Z</time>
      </trkpt>
      <trkpt lat="47.474617" lon="7.900560">
        <ele>473.124328</ele>
        <time>2021-11-14T19:07:33.892Z</time>
      </trkpt>
      <trkpt lat="47.474888" lon="7.900841">
        <ele>474.765713</ele>
        <time>2021-11-14T19:07:45.219Z</time>
      </trkpt>
      <trkpt lat="47.475163" lon="7.901034">
        <ele>476.363300</ele>
        <time>2021-11-14T19:07:56.196Z</time>
      </trkpt>
      <trkpt lat="47.475300" lon="7.901112">
        <ele>477.220332</ele>
        <time>2021-11-14T19:08:02.208Z</time>
      </trkpt>
      <trkpt lat="47.476364" lon="7.901870">
        <ele>484.114956</ele>
        <time>2021-11-14T19:08:46.873Z</time>
      </trkpt>
      <trkpt lat="47.476536" lon="7.901977">
        <ele>485.204306</ele>
        <time>2021-11-14T19:08:54.533Z</time>
      </trkpt>
      <trkpt lat="47.476982" lon="7.902234">
        <ele>488.144974</ele>
        <time>2021-11-14T19:09:13.507Z</time>
      </trkpt>
      <trkpt lat="47.478118" lon="7.903075">
        <ele>496.192315</ele>
        <time>2021-11-14T19:10:06.152Z</time>
      </trkpt>
      <trkpt lat="47.478182" lon="7.903109">
        <ele>496.623107</ele>
        <time>2021-11-14T19:10:09.491Z</time>
      </trkpt>
      <trkpt lat="47.478367" lon="7.903166">
        <ele>497.796101</ele>
        <time>2021-11-14T19:10:16.561Z</time>
      </trkpt>
      <trkpt lat="47.480980" lon="7.903461">
        <ele>512.117121</ele>
        <time>2021-11-14T19:11:49.018Z</time>
      </trkpt>
      <trkpt lat="47.481478" lon="7.903693">
        <ele>515.167808</ele>
        <time>2021-11-14T19:12:08.589Z</time>
      </trkpt>
      <trkpt lat="47.481588" lon="7.903776">
        <ele>515.889296</ele>
        <time>2021-11-14T19:12:13.435Z</time>
      </trkpt>
      <trkpt lat="47.481709" lon="7.903892">
        <ele>516.731736</ele>
        <time>2021-11-14T19:12:19.785Z</time>
      </trkpt>
      <trkpt lat="47.482157" lon="7.904346">
        <ele>520.147571</ele>
        <time>2021-11-14T19:12:43.930Z</time>
      </trkpt>
      <trkpt lat="47.482433" lon="7.904538">
        <ele>522.125160</ele>
        <time>2021-11-14T19:12:57.892Z</time>
      </trkpt>
      <trkpt lat="47.483101" lon="7.904680">
        <ele>526.501155</ele>
        <time>2021-11-14T19:13:28.992Z</time>
      </trkpt>
      <trkpt lat="47.483329" lon="7.904705">
        <ele>527.983633</ele>
        <time>2021-11-14T19:13:37.411Z</time>
      </trkpt>
      <trkpt lat="47.483385" lon="7.904708">
        <ele>528.346993</ele>
        <time>2021-11-14T19:13:39.791Z</time>
      </trkpt>
      <trkpt lat="47.484005" lon="7.904793">
        <ele>529.536553</ele>
        <time>2021-11-14T19:13:56.018Z</time>
      </trkpt>
      <trkpt lat="47.484064" lon="7.904808">
        <ele>529.560095</ele>
        <time>2021-11-14T19:13:57.114Z</time>
      </trkpt>
      <trkpt lat="47.484124" lon="7.904824">
        <ele>529.584070</ele>
        <time>2021-11-14T19:13:58.507Z</time>
      </trkpt>
      <trkpt lat="47.484248" lon="7.904856">
        <ele>529.633570</ele>
        <time>2021-11-14T19:14:01.066Z</time>
      </trkpt>
      <trkpt lat="47.484481" lon="7.904947">
        <ele>529.728337</ele>
        <time>2021-11-14T19:14:05.435Z</time>
      </trkpt>
      <trkpt lat="47.484713" lon="7.905133">
        <ele>529.832103</ele>
        <time>2021-11-14T19:14:10.057Z</time>
      </trkpt>
      <trkpt lat="47.484936" lon="7.905289">
        <ele>529.929105</ele>
        <time>2021-11-14T19:14:12.768Z</time>
      </trkpt>
      <trkpt lat="47.485049" lon="7.905336">
        <ele>529.975265</ele>
        <time>2021-11-14T19:14:14.074Z</time>
      </trkpt>
      <trkpt lat="47.485073" lon="7.905345">
        <ele>529.985002</ele>
        <time>2021-11-14T19:14:14.285Z</time>
      </trkpt>
      <trkpt lat="47.485331" lon="7.905337">
        <ele>529.690014</ele>
        <time>2021-11-14T19:14:16.972Z</time>
      </trkpt>
      <trkpt lat="47.485593" lon="7.905145">
        <ele>528.083110</ele>
        <time>2021-11-14T19:14:19.878Z</time>
      </trkpt>
      <trkpt lat="47.486049" lon="7.904262">
        <ele>523.955502</ele>
        <time>2021-11-14T19:14:26.735Z</time>
      </trkpt>
      <trkpt lat="47.486247" lon="7.904043">
        <ele>522.596868</ele>
        <time>2021-11-14T19:14:28.926Z</time>
      </trkpt>
      <trkpt lat="47.486480" lon="7.904016">
        <ele>521.312339</ele>
        <time>2021-11-14T19:14:31.093Z</time>
      </trkpt>
      <trkpt lat="47.486688" lon="7.904238">
        <ele>519.907907</ele>
        <time>2021-11-14T19:14:33.505Z</time>
      </trkpt>
      <trkpt lat="47.486721" lon="7.904326">
        <ele>519.541129</ele>
        <time>2021-11-14T19:14:34.108Z</time>
      </trkpt>
      <trkpt lat="47.486755" lon="7.904487">
        <ele>518.926398</ele>
        <time>2021-11-14T19:14:35.127Z</time>
      </trkpt>
      <trkpt lat="47.486724" lon="7.905485">
        <ele>515.285453</ele>
        <time>2021-11-14T19:14:41.290Z</time>
      </trkpt>
      <trkpt lat="47.486769" lon="7.905976">
        <ele>513.479674</ele>
        <time>2021-11-14T19:14:44.377Z</time>
      </trkpt>
      <trkpt lat="47.486969" lon="7.906583">
        <ele>511.018585</ele>
        <time>2021-11-14T19:14:48.669Z</time>
      </trkpt>
      <trkpt lat="47.487197" lon="7.906946">
        <ele>509.727182</ele>
        <time>2021-11-14T19:14:52.220Z</time>
      </trkpt>
      <trkpt lat="47.487378" lon="7.907191">
        <ele>508.943932</ele>
        <time>2021-11-14T19:14:54.798Z</time>
      </trkpt>
      <trkpt lat="47.487587" lon="7.907459">
        <ele>508.060898</ele>
        <time>2021-11-14T19:14:57.668Z</time>
      </trkpt>
      <trkpt lat="47.487763" lon="7.907711">
        <ele>507.278929</ele>
        <time>2021-11-14T19:15:00.187Z</time>
      </trkpt>
      <trkpt lat="47.488080" lon="7.908344">
        <ele>505.578924</ele>
        <time>2021-11-14T19:15:05.546Z</time>
      </trkpt>
      <trkpt lat="47.488185" lon="7.908663">
        <ele>504.813309</ele>
        <time>2021-11-14T19:15:08.077Z</time>
      </trkpt>
      <trkpt lat="47.488241" lon="7.908835">
        <ele>504.335973</ele>
        <time>2021-11-14T19:15:09.334Z</time>
      </trkpt>
      <trkpt lat="47.488366" lon="7.909318">
        <ele>502.998683</ele>
        <time>2021-11-14T19:15:12.938Z</time>
      </trkpt>
      <trkpt lat="47.488699" lon="7.910498">
        <ele>499.692346</ele>
        <time>2021-11-14T19:15:21.460Z</time>
      </trkpt>
      <trkpt lat="47.488908" lon="7.911009">
        <ele>498.147961</ele>
        <time>2021-11-14T19:15:25.296Z</time>
      </trkpt>
      <trkpt lat="47.489040" lon="7.911300">
        <ele>497.304069</ele>
        <time>2021-11-14T19:15:27.507Z</time>
      </trkpt>
      <trkpt lat="47.489216" lon="7.911685">
        <ele>496.225567</ele>
        <time>2021-11-14T19:15:30.597Z</time>
      </trkpt>
      <trkpt lat="47.489607" lon="7.912646">
        <ele>493.622851</ele>
        <time>2021-11-14T19:15:38.110Z</time>
      </trkpt>
      <trkpt lat="47.489843" lon="7.913398">
        <ele>491.699068</ele>
        <time>2021-11-14T19:15:43.982Z</time>
      </trkpt>
      <trkpt lat="47.489922" lon="7.913738">
        <ele>491.123139</ele>
        <time>2021-11-14T19:15:46.692Z</time>
      </trkpt>
      <trkpt lat="47.489951" lon="7.913893">
        <ele>490.869236</ele>
        <time>2021-11-14T19:15:47.885Z</time>
      </trkpt>
      <trkpt lat="47.489987" lon="7.914083">
        <ele>490.557716</ele>
        <time>2021-11-14T19:15:49.357Z</time>
      </trkpt>
      <trkpt lat="47.490283" lon="7.915612">
        <ele>488.046798</ele>
        <time>2021-11-14T19:16:00.900Z</time>
      </trkpt>
      <trkpt lat="47.490429" lon="7.916164">
        <ele>486.972748</ele>
        <time>2021-11-14T19:16:05.147Z</time>
      </trkpt>
      <trkpt lat="47.490607" lon="7.916690">
        <ele>485.687274</ele>
        <time>2021-11-14T19:16:09.356Z</time>
      </trkpt>
      <trkpt lat="47.490822" lon="7.917158">
        <ele>484.450657</ele>
        <time>2021-11-14T19:16:13.273Z</time>
      </trkpt>
      <trkpt lat="47.491324" lon="7.917985">
        <ele>482.021453</ele>
        <time>2021-11-14T19:16:20.724Z</time>
      </trkpt>
      <trkpt lat="47.492227" lon="7.918989">
        <ele>476.993635</ele>
        <time>2021-11-14T19:16:31.575Z</time>
      </trkpt>
      <trkpt lat="47.492584" lon="7.919482">
        <ele>474.753566</ele>
        <time>2021-11-14T19:16:36.181Z</time>
      </trkpt>
      <trkpt lat="47.492813" lon="7.919900">
        <ele>473.104145</ele>
        <time>2021-11-14T19:16:39.607Z</time>
      </trkpt>
      <trkpt lat="47.493132" lon="7.920716">
        <ele>470.354178</ele>
        <time>2021-11-14T19:16:45.662Z</time>
      </trkpt>
      <trkpt lat="47.493236" lon="7.921091">
        <ele>469.171746</ele>
        <time>2021-11-14T19:16:48.287Z</time>
      </trkpt>
      <trkpt lat="47.493307" lon="7.921373">
        <ele>468.293902</ele>
        <time>2021-11-14T19:16:50.263Z</time>
      </trkpt>
      <trkpt lat="47.493397" lon="7.921760">
        <ele>467.100034</ele>
        <time>2021-11-14T19:16:52.968Z</time>
      </trkpt>
      <trkpt lat="47.493708" lon="7.923049">
        <ele>463.653287</ele>
        <time>2021-11-14T19:17:02.157Z</time>
      </trkpt>
      <trkpt lat="47.494034" lon="7.924101">
        <ele>461.005521</ele>
        <time>2021-11-14T19:17:10.097Z</time>
      </trkpt>
      <trkpt lat="47.494438" lon="7.925289">
        <ele>457.781107</ele>
        <time>2021-11-14T19:17:19.175Z</time>
      </trkpt>
      <trkpt lat="47.494515" lon="7.925509">
        <ele>457.149280</ele>
        <time>2021-11-14T19:17:20.786Z</time>
      </trkpt>
      <trkpt lat="47.494945" lon="7.926765">
        <ele>453.558657</ele>
        <time>2021-11-14T19:17:30.167Z</time>
      </trkpt>
      <trkpt lat="47.495031" lon="7.927006">
        <ele>452.863638</ele>
        <time>2021-11-14T19:17:31.887Z</time>
      </trkpt>
      <trkpt lat="47.495268" lon="7.927740">
        <ele>451.091713</ele>
        <time>2021-11-14T19:17:37.258Z</time>
      </trkpt>
      <trkpt lat="47.495455" lon="7.928595">
        <ele>449.152022</ele>
        <time>2021-11-14T19:17:43.391Z</time>
      </trkpt>
      <trkpt lat="47.495530" lon="7.929063">
        <ele>448.113879</ele>
        <time>2021-11-14T19:17:46.699Z</time>
      </trkpt>
      <trkpt lat="47.495562" lon="7.929221">
        <ele>447.757864</ele>
        <time>2021-11-14T19:17:47.944Z</time>
      </trkpt>
      <trkpt lat="47.495622" lon="7.929400">
        <ele>447.326584</ele>
        <time>2021-11-14T19:17:49.452Z</time>
      </trkpt>
      <trkpt lat="47.495801" lon="7.929891">
        <ele>446.576814</ele>
        <time>2021-11-14T19:17:53.591Z</time>
      </trkpt>
      <trkpt lat="47.495985" lon="7.930428">
        <ele>445.940117</ele>
        <time>2021-11-14T19:17:57.983Z</time>
      </trkpt>
      <trkpt lat="47.496051" lon="7.930607">
        <ele>445.724483</ele>
        <time>2021-11-14T19:17:59.574Z</time>
      </trkpt>
      <trkpt lat="47.496117" lon="7.930763">
        <ele>445.529849</ele>
        <time>2021-11-14T19:18:00.961Z</time>
      </trkpt>
      <trkpt lat="47.496162" lon="7.930842">
        <ele>445.420584</ele>
        <time>2021-11-14T19:18:01.832Z</time>
      </trkpt>
      <trkpt lat="47.496205" lon="7.930904">
        <ele>445.326629</ele>
        <time>2021-11-14T19:18:02.457Z</time>
      </trkpt>
      <trkpt lat="47.496424" lon="7.931075">
        <ele>444.939100</ele>
        <time>2021-11-14T19:18:05.815Z</time>
      </trkpt>
      <trkpt lat="47.496998" lon="7.931330">
        <ele>443.971354</ele>
        <time>2021-11-14T19:18:13.390Z</time>
      </trkpt>
      <trkpt lat="47.497104" lon="7.931414">
        <ele>443.754734</ele>
        <time>2021-11-14T19:18:14.805Z</time>
      </trkpt>
      <trkpt lat="47.497221" lon="7.931528">
        <ele>443.502370</ele>
        <time>2021-11-14T19:18:16.457Z</time>
      </trkpt>
      <trkpt lat="47.497430" lon="7.931757">
        <ele>443.033884</ele>
        <time>2021-11-14T19:18:19.294Z</time>
      </trkpt>
      <trkpt lat="47.497676" lon="7.932013">
        <ele>442.492107</ele>
        <time>2021-11-14T19:18:22.456Z</time>
      </trkpt>
      <trkpt lat="47.497907" lon="7.932254">
        <ele>441.982938</ele>
        <time>2021-11-14T19:18:25.549Z</time>
      </trkpt>
      <trkpt lat="47.498068" lon="7.932426">
        <ele>441.625214</ele>
        <time>2021-11-14T19:18:27.682Z</time>
      </trkpt>
      <trkpt lat="47.498138" lon="7.932522">
        <ele>441.453287</ele>
        <time>2021-11-14T19:18:28.687Z</time>
      </trkpt>
      <trkpt lat="47.498196" lon="7.932613">
        <ele>441.301012</ele>
        <time>2021-11-14T19:18:29.598Z</time>
      </trkpt>
      <trkpt lat="47.498391" lon="7.932972">
        <ele>440.792246</ele>
        <time>2021-11-14T19:18:33.107Z</time>
      </trkpt>
      <trkpt lat="47.498431" lon="7.932995">
        <ele>440.733395</ele>
        <time>2021-11-14T19:18:33.598Z</time>
      </trkpt>
      <trkpt lat="47.498481" lon="7.933011">
        <ele>440.663239</ele>
        <time>2021-11-14T19:18:34.151Z</time>
      </trkpt>
      <trkpt lat="47.498611" lon="7.932943">
        <ele>440.474147</ele>
        <time>2021-11-14T19:18:35.945Z</time>
      </trkpt>
      <trkpt lat="47.498925" lon="7.932781">
        <ele>440.018107</ele>
        <time>2021-11-14T19:18:39.783Z</time>
      </trkpt>
      <trkpt lat="47.498997" lon="7.932758">
        <ele>439.917090</ele>
        <time>2021-11-14T19:18:40.579Z</time>
      </trkpt>
      <trkpt lat="47.499088" lon="7.932741">
        <ele>439.791299</ele>
        <time>2021-11-14T19:18:41.779Z</time>
      </trkpt>
      <trkpt lat="47.499354" lon="7.932769">
        <ele>439.425577</ele>
        <time>2021-11-14T19:18:44.911Z</time>
      </trkpt>
      <trkpt lat="47.499421" lon="7.932805">
        <ele>439.327824</ele>
        <time>2021-11-14T19:18:45.780Z</time>
      </trkpt>
      <trkpt lat="47.499538" lon="7.932868">
        <ele>439.157078</ele>
        <time>2021-11-14T19:18:47.186Z</time>
      </trkpt>
      <trkpt lat="47.499654" lon="7.933034">
        <ele>438.935799</ele>
        <time>2021-11-14T19:18:48.996Z</time>
      </trkpt>
      <trkpt lat="47.499822" lon="7.933272">
        <ele>438.616877</ele>
        <time>2021-11-14T19:18:51.740Z</time>
      </trkpt>
      <trkpt lat="47.499993" lon="7.933864">
        <ele>438.341652</ele>
        <time>2021-11-14T19:18:57.219Z</time>
      </trkpt>
      <trkpt lat="47.500034" lon="7.933965">
        <ele>438.307003</ele>
        <time>2021-11-14T19:18:58.105Z</time>
      </trkpt>
      <trkpt lat="47.500007" lon="7.933994">
        <ele>438.292482</ele>
        <time>2021-11-14T19:18:58.581Z</time>
      </trkpt>
      <trkpt lat="47.499971" lon="7.934127">
        <ele>438.250349</ele>
        <time>2021-11-14T19:19:00.222Z</time>
      </trkpt>
      <trkpt lat="47.499976" lon="7.934175">
        <ele>438.236067</ele>
        <time>2021-11-14T19:19:00.877Z</time>
      </trkpt>
      <trkpt lat="47.499991" lon="7.934221">
        <ele>438.221047</ele>
        <time>2021-11-14T19:19:01.265Z</time>
      </trkpt>
      <trkpt lat="47.500077" lon="7.934300">
        <ele>438.176990</ele>
        <time>2021-11-14T19:19:02.509Z</time>
      </trkpt>
      <trkpt lat="47.500111" lon="7.934299">
        <ele>438.162188</ele>
        <time>2021-11-14T19:19:03.051Z</time>
      </trkpt>
      <trkpt lat="47.500150" lon="7.934279">
        <ele>438.144223</ele>
        <time>2021-11-14T19:19:03.593Z</time>
      </trkpt>
      <trkpt lat="47.500213" lon="7.934131">
        <ele>438.092782</ele>
        <time>2021-11-14T19:19:05.844Z</time>
      </trkpt>
      <trkpt lat="47.500208" lon="7.934071">
        <ele>438.075005</ele>
        <time>2021-11-14T19:19:06.579Z</time>
      </trkpt>
      <trkpt lat="47.500275" lon="7.934029">
        <ele>438.043334</ele>
        <time>2021-11-14T19:19:07.459Z</time>
      </trkpt>
      <trkpt lat="47.500352" lon="7.933976">
        <ele>438.006371</ele>
        <time>2021-11-14T19:19:08.745Z</time>
      </trkpt>
      <trkpt lat="47.500386" lon="7.933937">
        <ele>437.987649</ele>
        <time>2021-11-14T19:19:09.384Z</time>
      </trkpt>
      <trkpt lat="47.500435" lon="7.933872">
        <ele>437.959009</ele>
        <time>2021-11-14T19:19:10.451Z</time>
      </trkpt>
      <trkpt lat="47.500843" lon="7.933102">
        <ele>437.643124</ele>
        <time>2021-11-14T19:19:19.689Z</time>
      </trkpt>
      <trkpt lat="47.500990" lon="7.932950">
        <ele>437.505597</ele>
        <time>2021-11-14T19:19:22.185Z</time>
      </trkpt>
      <trkpt lat="47.501075" lon="7.932885">
        <ele>437.432221</ele>
        <time>2021-11-14T19:19:23.221Z</time>
      </trkpt>
      <trkpt lat="47.501463" lon="7.932668">
        <ele>437.114110</ele>
        <time>2021-11-14T19:19:28.223Z</time>
      </trkpt>
      <trkpt lat="47.501794" lon="7.932466">
        <ele>436.839519</ele>
        <time>2021-11-14T19:19:32.895Z</time>
      </trkpt>
      <trkpt lat="47.501901" lon="7.932351">
        <ele>436.738104</ele>
        <time>2021-11-14T19:19:34.963Z</time>
      </trkpt>
      <trkpt lat="47.502023" lon="7.932158">
        <ele>436.601156</ele>
        <time>2021-11-14T19:19:37.009Z</time>
      </trkpt>
      <trkpt lat="47.502400" lon="7.931256">
        <ele>436.042755</ele>
        <time>2021-11-14T19:19:45.996Z</time>
      </trkpt>
      <trkpt lat="47.502613" lon="7.930856">
        <ele>435.770445</ele>
        <time>2021-11-14T19:19:50.080Z</time>
      </trkpt>
      <trkpt lat="47.502761" lon="7.930610">
        <ele>435.594325</ele>
        <time>2021-11-14T19:19:52.984Z</time>
      </trkpt>
      <trkpt lat="47.503014" lon="7.930220">
        <ele>435.305242</ele>
        <time>2021-11-14T19:19:57.706Z</time>
      </trkpt>
      <trkpt lat="47.503485" lon="7.929688">
        <ele>434.754111</ele>
        <time>2021-11-14T19:20:05.595Z</time>
      </trkpt>
      <trkpt lat="47.503528" lon="7.929650">
        <ele>434.667111</ele>
        <time>2021-11-14T19:20:06.083Z</time>
      </trkpt>
      <trkpt lat="47.503598" lon="7.929585">
        <ele>434.523561</ele>
        <time>2021-11-14T19:20:07.512Z</time>
      </trkpt>
      <trkpt lat="47.503815" lon="7.929426">
        <ele>434.102932</ele>
        <time>2021-11-14T19:20:10.234Z</time>
      </trkpt>
      <trkpt lat="47.504005" lon="7.929312">
        <ele>433.746779</ele>
        <time>2021-11-14T19:20:13.354Z</time>
      </trkpt>
      <trkpt lat="47.504650" lon="7.928941">
        <ele>432.544661</ele>
        <time>2021-11-14T19:20:21.322Z</time>
      </trkpt>
      <trkpt lat="47.504724" lon="7.928871">
        <ele>432.392102</ele>
        <time>2021-11-14T19:20:22.193Z</time>
      </trkpt>
      <trkpt lat="47.504799" lon="7.928777">
        <ele>432.221384</ele>
        <time>2021-11-14T19:20:23.091Z</time>
      </trkpt>
      <trkpt lat="47.505253" lon="7.928170">
        <ele>430.490269</ele>
        <time>2021-11-14T19:20:29.513Z</time>
      </trkpt>
      <trkpt lat="47.505814" lon="7.927657">
        <ele>428.113721</ele>
        <time>2021-11-14T19:20:35.921Z</time>
      </trkpt>
      <trkpt lat="47.505868" lon="7.927611">
        <ele>427.889177</ele>
        <time>2021-11-14T19:20:36.493Z</time>
      </trkpt>
      <trkpt lat="47.505881" lon="7.927601">
        <ele>427.836376</ele>
        <time>2021-11-14T19:20:36.631Z</time>
      </trkpt>
      <trkpt lat="47.506112" lon="7.927414">
        <ele>426.887480</ele>
        <time>2021-11-14T19:20:39.149Z</time>
      </trkpt>
      <trkpt lat="47.507856" lon="7.925990">
        <ele>420.971833</ele>
        <time>2021-11-14T19:20:59.629Z</time>
      </trkpt>
      <trkpt lat="47.508002" lon="7.925879">
        <ele>420.513935</ele>
        <time>2021-11-14T19:21:01.407Z</time>
      </trkpt>
      <trkpt lat="47.508106" lon="7.925799">
        <ele>420.203530</ele>
        <time>2021-11-14T19:21:02.761Z</time>
      </trkpt>
      <trkpt lat="47.508355" lon="7.925609">
        <ele>419.561124</ele>
        <time>2021-11-14T19:21:05.870Z</time>
      </trkpt>
      <trkpt lat="47.508667" lon="7.925295">
        <ele>418.695958</ele>
        <time>2021-11-14T19:21:10.059Z</time>
      </trkpt>
      <trkpt lat="47.509016" lon="7.924882">
        <ele>417.671348</ele>
        <time>2021-11-14T19:21:14.761Z</time>
      </trkpt>
      <trkpt lat="47.509032" lon="7.924863">
        <ele>417.624311</ele>
        <time>2021-11-14T19:21:14.962Z</time>
      </trkpt>
      <trkpt lat="47.509223" lon="7.924628">
        <ele>417.054782</ele>
        <time>2021-11-14T19:21:17.637Z</time>
      </trkpt>
      <trkpt lat="47.509572" lon="7.924311">
        <ele>416.123367</ele>
        <time>2021-11-14T19:21:21.992Z</time>
      </trkpt>
      <trkpt lat="47.509605" lon="7.924290">
        <ele>416.056740</ele>
        <time>2021-11-14T19:21:22.328Z</time>
      </trkpt>
      <trkpt lat="47.509676" lon="7.924247">
        <ele>415.914448</ele>
        <time>2021-11-14T19:21:23.118Z</time>
      </trkpt>
      <trkpt lat="47.509806" lon="7.924174">
        <ele>415.656548</ele>
        <time>2021-11-14T19:21:24.720Z</time>
      </trkpt>
      <trkpt lat="47.509886" lon="7.924134">
        <ele>415.499922</ele>
        <time>2021-11-14T19:21:25.701Z</time>
      </trkpt>
      <trkpt lat="47.509869" lon="7.923971">
        <ele>415.293276</ele>
        <time>2021-11-14T19:21:26.806Z</time>
      </trkpt>
      <trkpt lat="47.509817" lon="7.923703">
        <ele>414.943916</ele>
        <time>2021-11-14T19:21:28.978Z</time>
      </trkpt>
      <trkpt lat="47.509668" lon="7.923400">
        <ele>414.474332</ele>
        <time>2021-11-14T19:21:31.676Z</time>
      </trkpt>
      <trkpt lat="47.509595" lon="7.923295">
        <ele>414.285540</ele>
        <time>2021-11-14T19:21:32.911Z</time>
      </trkpt>
      <trkpt lat="47.509550" lon="7.923245">
        <ele>414.181176</ele>
        <time>2021-11-14T19:21:33.584Z</time>
      </trkpt>
      <trkpt lat="47.509583" lon="7.922962">
        <ele>413.821354</ele>
        <time>2021-11-14T19:21:35.642Z</time>
      </trkpt>
      <trkpt lat="47.509615" lon="7.922742">
        <ele>413.539393</ele>
        <time>2021-11-14T19:21:37.533Z</time>
      </trkpt>
      <trkpt lat="47.509688" lon="7.922616">
        <ele>413.331408</ele>
        <time>2021-11-14T19:21:38.679Z</time>
      </trkpt>
      <trkpt lat="47.510639" lon="7.921796">
        <ele>412.063761</ele>
        <time>2021-11-14T19:21:52.237Z</time>
      </trkpt>
      <trkpt lat="47.510872" lon="7.921477">
        <ele>411.772982</ele>
        <time>2021-11-14T19:21:56.335Z</time>
      </trkpt>
      <trkpt lat="47.511052" lon="7.921232">
        <ele>411.548950</ele>
        <time>2021-11-14T19:21:59.462Z</time>
      </trkpt>
      <trkpt lat="47.511067" lon="7.921207">
        <ele>411.528255</ele>
        <time>2021-11-14T19:21:59.733Z</time>
      </trkpt>
      <trkpt lat="47.511186" lon="7.920984">
        <ele>411.352371</ele>
        <time>2021-11-14T19:22:02.228Z</time>
      </trkpt>
      <trkpt lat="47.511371" lon="7.920637">
        <ele>411.027253</ele>
        <time>2021-11-14T19:22:05.920Z</time>
      </trkpt>
      <trkpt lat="47.511613" lon="7.920183">
        <ele>410.469381</ele>
        <time>2021-11-14T19:22:10.791Z</time>
      </trkpt>
      <trkpt lat="47.511632" lon="7.920105">
        <ele>410.389399</ele>
        <time>2021-11-14T19:22:11.538Z</time>
      </trkpt>
      <trkpt lat="47.511883" lon="7.920133">
        <ele>410.029930</ele>
        <time>2021-11-14T19:22:15.667Z</time>
      </trkpt>
      <trkpt lat="47.511964" lon="7.919989">
        <ele>409.849169</ele>
        <time>2021-11-14T19:22:17.123Z</time>
      </trkpt>
      <trkpt lat="47.512085" lon="7.919732">
        <ele>409.546986</ele>
        <time>2021-11-14T19:22:19.513Z</time>
      </trkpt>
      <trkpt lat="47.512255" lon="7.919538">
        <ele>409.240460</ele>
        <time>2021-11-14T19:22:21.939Z</time>
      </trkpt>
      <trkpt lat="47.512664" lon="7.919306">
        <ele>408.614965</ele>
        <time>2021-11-14T19:22:26.828Z</time>
      </trkpt>
      <trkpt lat="47.512938" lon="7.919052">
        <ele>408.021947</ele>
        <time>2021-11-14T19:22:30.393Z</time>
      </trkpt>
      <trkpt lat="47.513058" lon="7.918896">
        <ele>407.727189</ele>
        <time>2021-11-14T19:22:32.116Z</time>
      </trkpt>
      <trkpt lat="47.513160" lon="7.918764">
        <ele>407.477137</ele>
        <time>2021-11-14T19:22:33.593Z</time>
      </trkpt>
      <trkpt lat="47.513378" lon="7.918393">
        <ele>406.864088</ele>
        <time>2021-11-14T19:22:37.257Z</time>
      </trkpt>
      <trkpt lat="47.514255" lon="7.917714">
        <ele>405.130327</ele>
        <time>2021-11-14T19:22:48.331Z</time>
      </trkpt>
      <trkpt lat="47.514561" lon="7.917409">
        <ele>404.707651</ele>
        <time>2021-11-14T19:22:52.643Z</time>
      </trkpt>
      <trkpt lat="47.514635" lon="7.917349">
        <ele>404.610978</ele>
        <time>2021-11-14T19:22:53.586Z</time>
      </trkpt>
      <trkpt lat="47.515014" lon="7.917030">
        <ele>404.111438</ele>
        <time>2021-11-14T19:22:58.950Z</time>
      </trkpt>
      <trkpt lat="47.516391" lon="7.915243">
        <ele>402.240302</ele>
        <time>2021-11-14T19:23:21.652Z</time>
      </trkpt>
      <trkpt lat="47.516544" lon="7.914936">
        <ele>402.000507</ele>
        <time>2021-11-14T19:23:24.822Z</time>
      </trkpt>
      <trkpt lat="47.516569" lon="7.914864">
        <ele>401.949625</ele>
        <time>2021-11-14T19:23:25.601Z</time>
      </trkpt>
      <trkpt lat="47.516590" lon="7.914840">
        <ele>401.924938</ele>
        <time>2021-11-14T19:23:25.918Z</time>
      </trkpt>
      <trkpt lat="47.516626" lon="7.914830">
        <ele>401.890853</ele>
        <time>2021-11-14T19:23:26.396Z</time>
      </trkpt>
      <trkpt lat="47.516662" lon="7.914835">
        <ele>401.857204</ele>
        <time>2021-11-14T19:23:26.828Z</time>
      </trkpt>
      <trkpt lat="47.516748" lon="7.914873">
        <ele>401.773686</ele>
        <time>2021-11-14T19:23:27.899Z</time>
      </trkpt>
      <trkpt lat="47.516806" lon="7.914896">
        <ele>401.717810</ele>
        <time>2021-11-14T19:23:28.602Z</time>
      </trkpt>
      <trkpt lat="47.517140" lon="7.915259">
        <ele>401.318717</ele>
        <time>2021-11-14T19:23:33.722Z</time>
      </trkpt>
      <trkpt lat="47.517281" lon="7.915238">
        <ele>401.178560</ele>
        <time>2021-11-14T19:23:35.507Z</time>
      </trkpt>
      <trkpt lat="47.517688" lon="7.914418">
        <ele>400.498826</ele>
        <time>2021-11-14T19:23:43.858Z</time>
      </trkpt>
      <trkpt lat="47.518342" lon="7.913541">
        <ele>399.610402</ele>
        <time>2021-11-14T19:23:54.668Z</time>
      </trkpt>
      <trkpt lat="47.518488" lon="7.913346">
        <ele>399.394451</ele>
        <time>2021-11-14T19:23:57.133Z</time>
      </trkpt>
      <trkpt lat="47.519421" lon="7.912098">
        <ele>398.013514</ele>
        <time>2021-11-14T19:24:12.204Z</time>
      </trkpt>
      <trkpt lat="47.519720" lon="7.911522">
        <ele>397.557539</ele>
        <time>2021-11-14T19:24:18.135Z</time>
      </trkpt>
      <trkpt lat="47.519891" lon="7.911129">
        <ele>397.300967</ele>
        <time>2021-11-14T19:24:21.941Z</time>
      </trkpt>
      <trkpt lat="47.519997" lon="7.910833">
        <ele>397.117094</ele>
        <time>2021-11-14T19:24:24.590Z</time>
      </trkpt>
      <trkpt lat="47.520493" lon="7.908683">
        <ele>396.313365</ele>
        <time>2021-11-14T19:24:44.854Z</time>
      </trkpt>
      <trkpt lat="47.520738" lon="7.907839">
        <ele>396.293353</ele>
        <time>2021-11-14T19:24:55.360Z</time>
      </trkpt>
      <trkpt lat="47.520733" lon="7.907655">
        <ele>396.289341</ele>
        <time>2021-11-14T19:24:56.970Z</time>
      </trkpt>
      <trkpt lat="47.520551" lon="7.907422">
        <ele>396.281581</ele>
        <time>2021-11-14T19:25:01.020Z</time>
      </trkpt>
      <trkpt lat="47.520506" lon="7.907236">
        <ele>396.277277</ele>
        <time>2021-11-14T19:25:02.700Z</time>
      </trkpt>
      <trkpt lat="47.520515" lon="7.907103">
        <ele>396.274365</ele>
        <time>2021-11-14T19:25:04.462Z</time>
      </trkpt>
      <trkpt lat="47.520528" lon="7.906930">
        <ele>396.166338</ele>
        <time>2021-11-14T19:25:06.153Z</time>
      </trkpt>
      <trkpt lat="47.520566" lon="7.906668">
        <ele>395.963609</ele>
        <time>2021-11-14T19:25:08.431Z</time>
      </trkpt>
      <trkpt lat="47.520678" lon="7.906050">
        <ele>395.479535</ele>
        <time>2021-11-14T19:25:14.359Z</time>
      </trkpt>
      <trkpt lat="47.520989" lon="7.905130">
        <ele>394.701209</ele>
        <time>2021-11-14T19:25:22.777Z</time>
      </trkpt>
      <trkpt lat="47.521297" lon="7.904312">
        <ele>393.403614</ele>
        <time>2021-11-14T19:25:29.530Z</time>
      </trkpt>
      <trkpt lat="47.521687" lon="7.903552">
        <ele>391.082752</ele>
        <time>2021-11-14T19:25:36.040Z</time>
      </trkpt>
      <trkpt lat="47.521792" lon="7.903347">
        <ele>390.457162</ele>
        <time>2021-11-14T19:25:37.675Z</time>
      </trkpt>
      <trkpt lat="47.522013" lon="7.902637">
        <ele>388.556303</ele>
        <time>2021-11-14T19:25:42.867Z</time>
      </trkpt>
      <trkpt lat="47.522038" lon="7.902562">
        <ele>388.352943</ele>
        <time>2021-11-14T19:25:43.385Z</time>
      </trkpt>
      <trkpt lat="47.522065" lon="7.902526">
        <ele>388.222131</ele>
        <time>2021-11-14T19:25:43.714Z</time>
      </trkpt>
      <trkpt lat="47.522132" lon="7.902476">
        <ele>387.951999</ele>
        <time>2021-11-14T19:25:44.451Z</time>
      </trkpt>
      <trkpt lat="47.522260" lon="7.902356">
        <ele>387.387177</ele>
        <time>2021-11-14T19:25:45.952Z</time>
      </trkpt>
      <trkpt lat="47.522554" lon="7.901999">
        <ele>385.947799</ele>
        <time>2021-11-14T19:25:49.597Z</time>
      </trkpt>
      <trkpt lat="47.522688" lon="7.901843">
        <ele>385.302504</ele>
        <time>2021-11-14T19:25:51.175Z</time>
      </trkpt>
      <trkpt lat="47.523036" lon="7.901580">
        <ele>383.823398</ele>
        <time>2021-11-14T19:25:54.954Z</time>
      </trkpt>
      <trkpt lat="47.523340" lon="7.901197">
        <ele>382.312359</ele>
        <time>2021-11-14T19:25:58.915Z</time>
      </trkpt>
      <trkpt lat="47.523433" lon="7.901043">
        <ele>381.784193</ele>
        <time>2021-11-14T19:26:00.304Z</time>
      </trkpt>
      <trkpt lat="47.523567" lon="7.900820">
        <ele>381.021069</ele>
        <time>2021-11-14T19:26:02.404Z</time>
      </trkpt>
      <trkpt lat="47.523620" lon="7.900698">
        <ele>380.900083</ele>
        <time>2021-11-14T19:26:03.505Z</time>
      </trkpt>
      <trkpt lat="47.523648" lon="7.900606">
        <ele>380.841457</ele>
        <time>2021-11-14T19:26:04.191Z</time>
      </trkpt>
      <trkpt lat="47.523739" lon="7.900557">
        <ele>380.758153</ele>
        <time>2021-11-14T19:26:05.247Z</time>
      </trkpt>
      <trkpt lat="47.523878" lon="7.900445">
        <ele>380.622012</ele>
        <time>2021-11-14T19:26:07.213Z</time>
      </trkpt>
      <trkpt lat="47.523957" lon="7.900371">
        <ele>380.541592</ele>
        <time>2021-11-14T19:26:08.244Z</time>
      </trkpt>
      <trkpt lat="47.523989" lon="7.900340">
        <ele>380.508694</ele>
        <time>2021-11-14T19:26:08.710Z</time>
      </trkpt>
      <trkpt lat="47.523945" lon="7.900256">
        <ele>380.446933</ele>
        <time>2021-11-14T19:26:09.787Z</time>
      </trkpt>
      <trkpt lat="47.523890" lon="7.900131">
        <ele>380.360258</ele>
        <time>2021-11-14T19:26:11.202Z</time>
      </trkpt>
      <trkpt lat="47.523861" lon="7.900049">
        <ele>380.306481</ele>
        <time>2021-11-14T19:26:12.099Z</time>
      </trkpt>
      <trkpt lat="47.523896" lon="7.900001">
        <ele>380.265441</ele>
        <time>2021-11-14T19:26:12.655Z</time>
      </trkpt>
      <trkpt lat="47.524309" lon="7.899115">
        <ele>379.639988</ele>
        <time>2021-11-14T19:26:22.480Z</time>
      </trkpt>
      <trkpt lat="47.524360" lon="7.898951">
        <ele>379.535095</ele>
        <time>2021-11-14T19:26:24.183Z</time>
      </trkpt>
      <trkpt lat="47.524617" lon="7.898216">
        <ele>379.368819</ele>
        <time>2021-11-14T19:26:33.392Z</time>
      </trkpt>
      <trkpt lat="47.524834" lon="7.897636">
        <ele>379.309429</ele>
        <time>2021-11-14T19:26:40.582Z</time>
      </trkpt>
      <trkpt lat="47.525518" lon="7.896336">
        <ele>378.766395</ele>
        <time>2021-11-14T19:26:56.667Z</time>
      </trkpt>
      <trkpt lat="47.525590" lon="7.896117">
        <ele>378.409795</ele>
        <time>2021-11-14T19:26:58.305Z</time>
      </trkpt>
      <trkpt lat="47.525622" lon="7.895944">
        <ele>378.147192</ele>
        <time>2021-11-14T19:27:00.433Z</time>
      </trkpt>
      <trkpt lat="47.525631" lon="7.895583">
        <ele>377.618325</ele>
        <time>2021-11-14T19:27:02.821Z</time>
      </trkpt>
      <trkpt lat="47.525631" lon="7.895442">
        <ele>377.411900</ele>
        <time>2021-11-14T19:27:04.557Z</time>
      </trkpt>
      <trkpt lat="47.525603" lon="7.895265">
        <ele>377.145755</ele>
        <time>2021-11-14T19:27:05.904Z</time>
      </trkpt>
      <trkpt lat="47.525725" lon="7.895110">
        <ele>376.797251</ele>
        <time>2021-11-14T19:27:07.426Z</time>
      </trkpt>
      <trkpt lat="47.526257" lon="7.894278">
        <ele>375.086881</ele>
        <time>2021-11-14T19:27:15.622Z</time>
      </trkpt>
      <trkpt lat="47.526335" lon="7.893960">
        <ele>374.494794</ele>
        <time>2021-11-14T19:27:17.955Z</time>
      </trkpt>
      <trkpt lat="47.526401" lon="7.893964">
        <ele>374.323601</ele>
        <time>2021-11-14T19:27:18.591Z</time>
      </trkpt>
      <trkpt lat="47.526451" lon="7.893983">
        <ele>374.189819</ele>
        <time>2021-11-14T19:27:19.323Z</time>
      </trkpt>
      <trkpt lat="47.526504" lon="7.894030">
        <ele>374.029718</ele>
        <time>2021-11-14T19:27:19.993Z</time>
      </trkpt>
      <trkpt lat="47.526709" lon="7.893617">
        <ele>373.132695</ele>
        <time>2021-11-14T19:27:23.419Z</time>
      </trkpt>
      <trkpt lat="47.527011" lon="7.893061">
        <ele>371.883962</ele>
        <time>2021-11-14T19:27:28.424Z</time>
      </trkpt>
      <trkpt lat="47.527498" lon="7.892650">
        <ele>370.538368</ele>
        <time>2021-11-14T19:27:34.497Z</time>
      </trkpt>
      <trkpt lat="47.528003" lon="7.892732">
        <ele>369.943903</ele>
        <time>2021-11-14T19:27:40.747Z</time>
      </trkpt>
      <trkpt lat="47.528331" lon="7.892682">
        <ele>369.558067</ele>
        <time>2021-11-14T19:27:45.015Z</time>
      </trkpt>
      <trkpt lat="47.529235" lon="7.892158">
        <ele>368.440375</ele>
        <time>2021-11-14T19:27:56.713Z</time>
      </trkpt>
      <trkpt lat="47.529695" lon="7.891638">
        <ele>367.887176</ele>
        <time>2021-11-14T19:28:03.777Z</time>
      </trkpt>
      <trkpt lat="47.529714" lon="7.891609">
        <ele>367.861094</ele>
        <time>2021-11-14T19:28:04.039Z</time>
      </trkpt>
      <trkpt lat="47.529972" lon="7.891210">
        <ele>367.504503</ele>
        <time>2021-11-14T19:28:08.466Z</time>
      </trkpt>
      <trkpt lat="47.530322" lon="7.890690">
        <ele>367.030581</ele>
        <time>2021-11-14T19:28:14.617Z</time>
      </trkpt>
      <trkpt lat="47.530606" lon="7.890373">
        <ele>366.866112</ele>
        <time>2021-11-14T19:28:19.325Z</time>
      </trkpt>
      <trkpt lat="47.530965" lon="7.890110">
        <ele>367.084186</ele>
        <time>2021-11-14T19:28:24.948Z</time>
      </trkpt>
      <trkpt lat="47.531076" lon="7.890029">
        <ele>367.151562</ele>
        <time>2021-11-14T19:28:27.042Z</time>
      </trkpt>
      <trkpt lat="47.531265" lon="7.889937">
        <ele>367.259884</ele>
        <time>2021-11-14T19:28:30.132Z</time>
      </trkpt>
      <trkpt lat="47.531560" lon="7.889776">
        <ele>367.431064</ele>
        <time>2021-11-14T19:28:35.780Z</time>
      </trkpt>
      <trkpt lat="47.531843" lon="7.889349">
        <ele>367.651029</ele>
        <time>2021-11-14T19:28:43.368Z</time>
      </trkpt>
      <trkpt lat="47.532011" lon="7.888896">
        <ele>367.970579</ele>
        <time>2021-11-14T19:28:50.563Z</time>
      </trkpt>
      <trkpt lat="47.532288" lon="7.887728">
        <ele>369.420354</ele>
        <time>2021-11-14T19:29:09.401Z</time>
      </trkpt>
      <trkpt lat="47.532505" lon="7.887120">
        <ele>370.225743</ele>
        <time>2021-11-14T19:29:19.687Z</time>
      </trkpt>
      <trkpt lat="47.532650" lon="7.885569">
        <ele>371.787993</ele>
        <time>2021-11-14T19:29:42.449Z</time>
      </trkpt>
      <trkpt lat="47.532658" lon="7.884989">
        <ele>372.308104</ele>
        <time>2021-11-14T19:29:50.636Z</time>
      </trkpt>
      <trkpt lat="47.532670" lon="7.884773">
        <ele>372.502415</ele>
        <time>2021-11-14T19:29:53.939Z</time>
      </trkpt>
      <trkpt lat="47.532699" lon="7.884224">
        <ele>372.996128</ele>
        <time>2021-11-14T19:30:01.055Z</time>
      </trkpt>
      <trkpt lat="47.532713" lon="7.884122">
        <ele>373.089447</ele>
        <time>2021-11-14T19:30:02.218Z</time>
      </trkpt>
      <trkpt lat="47.532859" lon="7.883508">
        <ele>373.132354</ele>
        <time>2021-11-14T19:30:09.830Z</time>
      </trkpt>
      <trkpt lat="47.533014" lon="7.882949">
        <ele>372.909509</ele>
        <time>2021-11-14T19:30:16.049Z</time>
      </trkpt>
      <trkpt lat="47.533374" lon="7.881639">
        <ele>372.387951</ele>
        <time>2021-11-14T19:30:27.761Z</time>
      </trkpt>
      <trkpt lat="47.533606" lon="7.880961">
        <ele>371.173899</ele>
        <time>2021-11-14T19:30:33.556Z</time>
      </trkpt>
      <trkpt lat="47.533892" lon="7.880353">
        <ele>369.624262</ele>
        <time>2021-11-14T19:30:38.873Z</time>
      </trkpt>
      <trkpt lat="47.534616" lon="7.879490">
        <ele>366.745738</ele>
        <time>2021-11-14T19:30:48.044Z</time>
      </trkpt>
      <trkpt lat="47.534908" lon="7.878975">
        <ele>364.316322</ele>
        <time>2021-11-14T19:30:52.246Z</time>
      </trkpt>
      <trkpt lat="47.534946" lon="7.878790">
        <ele>363.615824</ele>
        <time>2021-11-14T19:30:53.521Z</time>
      </trkpt>
      <trkpt lat="47.534825" lon="7.878414">
        <ele>362.106932</ele>
        <time>2021-11-14T19:30:56.048Z</time>
      </trkpt>
      <trkpt lat="47.534778" lon="7.878270">
        <ele>361.527527</ele>
        <time>2021-11-14T19:30:57.199Z</time>
      </trkpt>
      <trkpt lat="47.534855" lon="7.878090">
        <ele>360.755599</ele>
        <time>2021-11-14T19:30:58.450Z</time>
      </trkpt>
      <trkpt lat="47.535088" lon="7.877742">
        <ele>358.980163</ele>
        <time>2021-11-14T19:31:01.545Z</time>
      </trkpt>
      <trkpt lat="47.535322" lon="7.877590">
        <ele>357.609181</ele>
        <time>2021-11-14T19:31:04.042Z</time>
      </trkpt>
      <trkpt lat="47.535551" lon="7.877487">
        <ele>356.504817</ele>
        <time>2021-11-14T19:31:06.196Z</time>
      </trkpt>
      <trkpt lat="47.535635" lon="7.877484">
        <ele>356.160530</ele>
        <time>2021-11-14T19:31:07.134Z</time>
      </trkpt>
      <trkpt lat="47.535770" lon="7.877432">
        <ele>355.588974</ele>
        <time>2021-11-14T19:31:08.386Z</time>
      </trkpt>
      <trkpt lat="47.535851" lon="7.877319">
        <ele>355.133048</ele>
        <time>2021-11-14T19:31:09.415Z</time>
      </trkpt>
      <trkpt lat="47.536444" lon="7.876177">
        <ele>351.147585</ele>
        <time>2021-11-14T19:31:18.794Z</time>
      </trkpt>
      <trkpt lat="47.536632" lon="7.875912">
        <ele>350.084203</ele>
        <time>2021-11-14T19:31:21.444Z</time>
      </trkpt>
      <trkpt lat="47.536757" lon="7.875759">
        <ele>349.614013</ele>
        <time>2021-11-14T19:31:23.390Z</time>
      </trkpt>
      <trkpt lat="47.536921" lon="7.875537">
        <ele>349.301076</ele>
        <time>2021-11-14T19:31:25.957Z</time>
      </trkpt>
      <trkpt lat="47.537182" lon="7.875293">
        <ele>348.866344</ele>
        <time>2021-11-14T19:31:29.667Z</time>
      </trkpt>
      <trkpt lat="47.537261" lon="7.875237">
        <ele>348.742982</ele>
        <time>2021-11-14T19:31:30.628Z</time>
      </trkpt>
      <trkpt lat="47.537716" lon="7.874966">
        <ele>348.052219</ele>
        <time>2021-11-14T19:31:36.517Z</time>
      </trkpt>
      <trkpt lat="47.538278" lon="7.874319">
        <ele>347.074814</ele>
        <time>2021-11-14T19:31:44.992Z</time>
      </trkpt>
      <trkpt lat="47.539222" lon="7.873416">
        <ele>345.792445</ele>
        <time>2021-11-14T19:31:59.438Z</time>
      </trkpt>
      <trkpt lat="47.539678" lon="7.872430">
        <ele>345.129699</ele>
        <time>2021-11-14T19:32:08.520Z</time>
      </trkpt>
      <trkpt lat="47.539841" lon="7.872151">
        <ele>345.129699</ele>
        <time>2021-11-14T19:32:11.294Z</time>
      </trkpt>
      <trkpt lat="47.539930" lon="7.872041">
        <ele>345.129699</ele>
        <time>2021-11-14T19:32:12.488Z</time>
      </trkpt>
      <trkpt lat="47.540034" lon="7.871970">
        <ele>345.129699</ele>
        <time>2021-11-14T19:32:13.755Z</time>
      </trkpt>
      <trkpt lat="47.540216" lon="7.871851">
        <ele>345.129699</ele>
        <time>2021-11-14T19:32:15.935Z</time>
      </trkpt>
      <trkpt lat="47.540265" lon="7.871808">
        <ele>345.129699</ele>
        <time>2021-11-14T19:32:16.539Z</time>
      </trkpt>
      <trkpt lat="47.540463" lon="7.871584">
        <ele>345.129699</ele>
        <time>2021-11-14T19:32:19.329Z</time>
      </trkpt>
      <trkpt lat="47.540693" lon="7.871390">
        <ele>345.129699</ele>
        <time>2021-11-14T19:32:22.200Z</time>
      </trkpt>
      <trkpt lat="47.540894" lon="7.871220">
        <ele>345.129699</ele>
        <time>2021-11-14T19:32:24.705Z</time>
      </trkpt>
      <trkpt lat="47.540933" lon="7.871187">
        <ele>345.129699</ele>
        <time>2021-11-14T19:32:25.179Z</time>
      </trkpt>
      <trkpt lat="47.541215" lon="7.870953">
        <ele>345.129699</ele>
        <time>2021-11-14T19:32:28.740Z</time>
      </trkpt>
    </trkseg>
  </trk>
</gpx>